SondeTracker

Meteorological Radiosondes Database

Operations

Sounding was ended - last measurement: 2022-12-07 02:33:09z

MAP
About Radiosonde

Number: U0230111

Launch Site: Madrid (ES)

Type: RS41

AUX: NO

Frequency: 403.000 MHz

Max Speed: 146 km/h at 28429 m

Average Speed: 38.64 km/h

Max Altitude: 29254 m

Average Ascent Speed: 4.15 m/s

Average Descent Speed: 5.62 m/s

Status: UNKNOWN

Status Changes
Launch Site Type AUX Frequency Status Finder Landing Point Description Changes made by
APRS Statistics

Received Frames: 1591

First Frame [UTC]: 2022-12-06 23:16:19z

Last Frame [UTC]: 2022-12-07 02:33:09z

Receivers: EA1JAY-16, EA3IK-13, EA4CP-14, EA4EKH-11, EA4EKH-12, EA4GBR, EA4GBR-10, EA4GBR-9, EA4GSU-11, LETO2-14

Flight Time: 03:16:50 h

Distance From First Measurement: 100.43 km

Nearest City: Cuenca (ES) [45.59 km]

Nearest Hunter: EA4ALK [47.39 km]

Ground Altitude: 857 m

Distance from QTH: 0.00 km

APRS Data
Receiver Number Date/Time [UTC] φ λ Course [°] Speed [km/h] Altitude [m] Description
EA4EKH-11U02301112022-12-07 02:33:0940.4322-2.39338221141Clb=-2.6m/s t=7.0C h=97.3% p=891.0hPa 403.000 MHz Type=RS41-SGP ser=U0230111 Radiosonde
EA4EKH-11U02301112022-12-07 02:32:3840.4322-2.3933332561162Clb=-2.6m/s t=6.8C h=97.9% p=888.9hPa 403.000 MHz Type=RS41-SGP ser=U0230111 Radiosonde
EA4EKH-11U02301112022-12-07 02:32:0740.4322-2.3933311761237Clb=-2.3m/s t=6.5C h=100.0% p=880.7hPa 403.000 MHz Type=RS41-SGP ser=U0230111 Radiosonde
EA4EKH-11U02301112022-12-07 02:31:3640.4324-2.3941411271322Clb=-2.4m/s t=6.5C h=94.9% p=871.6hPa 403.000 MHz Type=RS41-SGP ser=U0230111 Radiosonde
EA4EKH-11U02301112022-12-07 02:31:0540.4327-2.395494111409Clb=-2.6m/s t=6.3C h=87.6% p=862.5hPa 403.000 MHz Type=RS41-SGP ser=U0230111 Radiosonde
EA4EKH-11U02301112022-12-07 02:30:3440.4327-2.396598971483Clb=-2.6m/s t=5.7C h=89.6% p=854.7hPa 403.000 MHz Type=RS41-SGP ser=U0230111 Radiosonde
EA4EKH-11U02301112022-12-07 02:30:0340.4327-2.397447491542Clb=-2.3m/s t=5.3C h=90.1% p=848.7hPa 403.000 MHz Type=RS41-SGP ser=U0230111 Radiosonde
EA4EKH-11U02301112022-12-07 02:29:3240.4325-2.398445741622Clb=-2.5m/s t=4.9C h=87.5% p=840.3hPa 403.000 MHz Type=RS41-SGP ser=U0230111 Radiosonde
EA4EKH-11U02301112022-12-07 02:29:0140.4324-2.3992888111696Clb=-2.5m/s t=4.6C h=87.6% p=832.8hPa 403.000 MHz Type=RS41-SGP ser=U0230111 Radiosonde
EA4EKH-11U02301112022-12-07 02:28:3040.4323-2.399952461767Clb=-2.6m/s t=4.3C h=87.0% p=825.6hPa 403.000 MHz Type=RS41-SGP ser=U0230111 Radiosonde
EA4EKH-11U02301112022-12-07 02:27:5940.4322-2.40033341842Clb=-2.7m/s t=4.0C h=84.5% p=818.1hPa 403.000 MHz Type=RS41-SGP ser=U0230111 Radiosonde
EA4EKH-11U02301112022-12-07 02:27:2740.4322-2.4002421641916Clb=-2.3m/s t=3.5C h=81.7% p=810.5hPa 403.000 MHz Type=RS41-SGP ser=U0230111 Radiosonde
EA4EKH-11U02301112022-12-07 02:26:5640.4323-2.3999528361991Clb=-2.5m/s t=3.2C h=76.8% p=803.2hPa 403.000 MHz Type=RS41-SGP ser=U0230111 Radiosonde
EA4EKH-11U02301112022-12-07 02:26:2540.4326-2.3996618162067Clb=-2.3m/s t=2.7C h=74.1% p=795.8hPa 403.000 MHz Type=RS41-SGP ser=U0230111 Radiosonde
EA4EKH-11U02301112022-12-07 02:25:5440.4329-2.3992921142144Clb=-2.4m/s t=2.0C h=78.6% p=788.3hPa 403.000 MHz Type=RS41-SGP ser=U0230111 Radiosonde
EA4EKH-11U02301112022-12-07 02:25:2340.4331-2.3988928362223Clb=-2.5m/s t=1.3C h=83.1% p=780.5hPa 403.000 MHz Type=RS41-SGP ser=U0230111 Radiosonde
EA4EKH-11U02301112022-12-07 02:24:5240.4331-2.3983427472296Clb=-2.4m/s t=0.6C h=86.6% p=773.5hPa 403.000 MHz Type=RS41-SGP ser=U0230111 Radiosonde
EA4EKH-11U02301112022-12-07 02:24:2140.4331-2.3978921372369Clb=-2.5m/s t=-0.1C h=89.7% p=766.5hPa 403.000 MHz Type=RS41-SGP ser=U0230111 Radiosonde
EA4EKH-11U02301112022-12-07 02:23:5040.4332-2.397577842449Clb=-2.5m/s t=-0.7C h=91.4% p=758.8hPa 403.000 MHz Type=RS41-SGP ser=U0230111 Radiosonde
EA4EKH-11U02301112022-12-07 02:23:1940.4333-2.3974834142515Clb=-2.5m/s t=-1.2C h=93.0% p=752.6hPa 403.000 MHz Type=RS41-SGP ser=U0230111 Radiosonde
EA4EKH-11U02301112022-12-07 02:22:4840.4332-2.3973730262591Clb=-2.4m/s t=-1.8C h=95.6% p=745.3hPa 403.000 MHz Type=RS41-SGP ser=U0230111 Radiosonde
EA4EKH-11U02301112022-12-07 02:22:1740.4328-2.3971727362668Clb=-2.7m/s t=-2.2C h=93.2% p=738.2hPa 403.000 MHz Type=RS41-SGP ser=U0230111 Radiosonde
EA4EKH-11U02301112022-12-07 02:21:4640.4322-2.396891342744Clb=-2.5m/s t=-2.7C h=93.2% p=731.2hPa 403.000 MHz Type=RS41-SGP ser=U0230111 Radiosonde
EA4EKH-11U02301112022-12-07 02:21:1540.4317-2.39609334132829Clb=-2.1m/s t=-3.3C h=95.2% p=723.4hPa 403.000 MHz Type=RS41-SGP ser=U0230111 Radiosonde
EA4EKH-11U02301112022-12-07 02:20:4440.4311-2.39523323192902Clb=-2.4m/s t=-3.9C h=97.3% p=716.7hPa 403.000 MHz Type=RS41-SGP ser=U0230111 Radiosonde
EA4EKH-11U02301112022-12-07 02:20:1340.4304-2.39417300202989Clb=-3.5m/s t=-4.6C h=95.0% p=708.9hPa 403.000 MHz Type=RS41-SGP ser=U0230111 Radiosonde
EA4EKH-11U02301112022-12-07 02:19:4240.4294-2.3934227893087Clb=-3.3m/s t=-5.4C h=100.0% p=700.2hPa 403.000 MHz Type=RS41-SGP ser=U0230111 Radiosonde
EA4EKH-11U02301112022-12-07 02:19:1140.4284-2.392822493174Clb=-2.7m/s t=-6.0C h=100.0% p=692.4hPa 403.000 MHz Type=RS41-SGP ser=U0230111 Radiosonde
EA4EKH-11U02301112022-12-07 02:18:4040.428-2.3930521113259Clb=-2.5m/s t=-4.6C h=76.0% p=685.2hPa 403.000 MHz Type=RS41-SGP ser=U0230111 Radiosonde
EA4EKH-11U02301112022-12-07 02:18:0940.4276-2.3936574153342Clb=-3.3m/s t=-4.5C h=70.5% p=677.9hPa 403.000 MHz Type=RS41-SGP ser=U0230111 Radiosonde
EA4EKH-11U02301112022-12-07 02:17:3840.4273-2.3948473203434Clb=-2.8m/s t=-4.8C h=68.4% p=670.0hPa 403.000 MHz Type=RS41-SGP ser=U0230111 Radiosonde
EA4EKH-11U02301112022-12-07 02:17:0640.4272-2.3964990223526Clb=-2.6m/s t=-5.4C h=67.3% p=662.2hPa 403.000 MHz Type=RS41-SGP ser=U0230111 Radiosonde
EA4EKH-11U02301112022-12-07 02:16:3540.4272-2.39805117113620Clb=-3.0m/s t=-6.0C h=62.6% p=654.4hPa 403.000 MHz Type=RS41-SGP ser=U0230111 Radiosonde
EA4EKH-11U02301112022-12-07 02:16:0440.427-2.39901103113703Clb=-2.9m/s t=-6.0C h=59.6% p=647.4hPa 403.000 MHz Type=RS41-SGP ser=U0230111 Radiosonde
EA4EKH-11U02301112022-12-07 02:15:3340.4267-2.399871063793Clb=-2.7m/s t=-6.5C h=58.4% p=640.1hPa 403.000 MHz Type=RS41-SGP ser=U0230111 Radiosonde
EA4EKH-11U02301112022-12-07 02:14:3140.4258-2.40199100193972Clb=-3.2m/s t=-6.7C h=9.4% p=625.6hPa 403.000 MHz Type=RS41-SGP ser=U0230111 Radiosonde
EA4CP-14U02301112022-12-07 02:14:0340.4257-2.4032972204052Clb=-2.9m/s p=619.1hPa t=-7.1C h=7.6% 403.00MHz Type=RS41-SGP Details on http://radiosondy.info
EA4EKH-11U02301112022-12-07 02:14:0040.4257-2.40359103204063Clb=-2.9m/s t=-7.2C h=7.5% p=618.1hPa 403.000 MHz Type=RS41-SGP ser=U0230111 Radiosonde
EA4EKH-11U02301112022-12-07 02:13:2940.4255-2.40565264152Clb=-3.1m/s t=-7.7C h=6.4% p=611.2hPa 403.000 MHz Type=RS41-SGP ser=U0230111 Radiosonde
EA4CP-14U02301112022-12-07 02:13:1440.4253-2.4057953204194Clb=-2.8m/s p=608.0hPa t=-7.8C h=6.5% 403.00MHz Type=RS41-SGP Details on http://radiosondy.info
EA4CP-14U02301112022-12-07 02:12:5940.425-2.4066246204237Clb=-2.6m/s p=604.7hPa t=-8.0C h=6.6% 403.00MHz Type=RS41-SGP batt=2.6V Details on http://radiosondy.info
EA4EKH-11U02301112022-12-07 02:12:5840.425-2.4066853224239Clb=-2.8m/s t=-8.0C h=6.3% p=604.5hPa 403.000 MHz Type=RS41-SGP ser=U0230111 Radiosonde
EA4CP-14U02301112022-12-07 02:12:4340.4247-2.4075645204281Clb=-3.1m/s p=601.1hPa t=-8.1C h=6.3% 403.00MHz Type=RS41-SGP Details on http://radiosondy.info
EA4CP-14U02301112022-12-07 02:12:2740.4246-2.4085455204328Clb=-2.9m/s p=597.5hPa t=-8.2C h=5.5% 403.00MHz Type=RS41-SGP TxOff=7h27m Details on http://radiosondy.info
EA4CP-14U02301112022-12-07 02:12:0940.4243-2.4095142204380Clb=-3.2m/s p=593.5hPa t=-8.4C h=4.7% 403.00MHz Type=RS41-SGP batt=2.6V Details on http://radiosondy.info
EA4EKH-11U02301112022-12-07 02:11:5640.424-2.410455394424Clb=-3.1m/s t=-8.8C h=4.4% p=590.2hPa 403.000 MHz Type=RS41-SGP ser=U0230111 Radiosonde
EA4CP-14U02301112022-12-07 02:11:5340.424-2.4104845224427Clb=-3.1m/s p=589.9hPa t=-8.7C h=4.7% 403.00MHz Type=RS41-SGP Details on http://radiosondy.info
EA4CP-14U02301112022-12-07 02:11:3840.424-2.4114693194472Clb=-2.8m/s p=586.5hPa t=-9.0C h=4.9% 403.00MHz Type=RS41-SGP Details on http://radiosondy.info
EA4EKH-11U02301112022-12-07 02:11:2540.4238-2.41227114134512Clb=-3.1m/s t=-9.3C h=4.5% p=583.6hPa 403.000 MHz Type=RS41-SGP ser=U0230111 Radiosonde
EA4CP-14U02301112022-12-07 02:11:2240.4239-2.4123493174517Clb=-3.3m/s p=583.0hPa t=-9.2C h=4.8% 403.00MHz Type=RS41-SGP batt=2.7V Details on http://radiosondy.info
EA4CP-14U02301112022-12-07 02:11:0340.4237-2.4132135174574Clb=-3.3m/s p=578.9hPa t=-9.5C h=5.8% 403.00MHz Type=RS41-SGP Details on http://radiosondy.info
EA4EKH-11U02301112022-12-07 02:10:5440.4236-2.41381104154603Clb=-3.1m/s t=-9.8C h=5.8% p=576.6hPa 403.000 MHz Type=RS41-SGP ser=U0230111 Radiosonde
EA4CP-14U02301112022-12-07 02:10:4840.4236-2.4139550194620Clb=-3.1m/s p=575.5hPa t=-9.8C h=6.1% 403.00MHz Type=RS41-SGP Details on http://radiosondy.info
LETO2-14U02301112022-12-07 02:10:4240.4235-2.4142775264639Clb=-3.0m/s p=574.0hPa t=-10.0C h=6.0% 403.00MHz Type=RS41-SGP Radiosonde Tracker +Info: 403MHz@gmail.com
EA4CP-14U02301112022-12-07 02:10:3240.4236-2.41488101194669Clb=-3.5m/s p=571.7hPa t=-10.2C h=6.3% 403.00MHz Type=RS41-SGP batt=2.7V Details on http://radiosondy.info
LETO2-14U02301112022-12-07 02:10:3140.4236-2.41498164673Clb=-3.3m/s p=571.5hPa t=-10.3C h=6.3% 403.00MHz Type=RS41-SGP Radiosonde Tracker +Info: 403MHz@gmail.com
LETO2-14U02301112022-12-07 02:10:2740.4235-2.4150143194686Clb=-3.4m/s p=570.6hPa t=-10.4C h=6.4% 403.00MHz Type=RS41-SGP batt=2.6V Radiosonde Tracker +Info: 403MHz@gmail.com
LETO2-14U02301112022-12-07 02:10:2340.4234-2.4152673264698Clb=-3.2m/s p=569.7hPa t=-10.5C h=6.4% 403.00MHz Type=RS41-SGP Radiosonde Tracker +Info: 403MHz@gmail.com
LETO2-14U02301112022-12-07 02:10:1940.4234-2.41556110194711Clb=-3.1m/s p=568.7hPa t=-10.6C h=6.4% 403.00MHz Type=RS41-SGP Radiosonde Tracker +Info: 403MHz@gmail.com
EA4CP-14U02301112022-12-07 02:10:1740.4234-2.41566123174717Clb=-3.1m/s p=568.2hPa t=-10.6C h=6.4% 403.00MHz Type=RS41-SGP TxOff=7h29m Details on http://radiosondy.info
EA4CP-14U02301112022-12-07 02:10:0140.4233-2.41644117174766Clb=-3.4m/s p=564.6hPa t=-11.0C h=6.3% 403.00MHz Type=RS41-SGP Details on http://radiosondy.info
EA4EKH-11U02301112022-12-07 02:09:5240.4231-2.416868244797Clb=-3.2m/s t=-11.4C h=6.0% p=562.5hPa 403.000 MHz Type=RS41-SGP ser=U0230111 Radiosonde
EA4CP-14U02301112022-12-07 02:09:4540.4231-2.41725112174816Clb=-3.1m/s p=560.9hPa t=-11.4C h=6.6% 403.00MHz Type=RS41-SGP batt=2.6V Details on http://radiosondy.info
LETO2-14U02301112022-12-07 02:09:3440.423-2.4176558244851Clb=-3.1m/s p=558.3hPa t=-11.6C h=6.7% 403.00MHz Type=RS41-SGP batt=2.6V Radiosonde Tracker +Info: 403MHz@gmail.com
LETO2-14U02301112022-12-07 02:09:3040.4229-2.4179788194862Clb=-3.7m/s p=557.4hPa t=-11.7C h=6.9% 403.00MHz Type=RS41-SGP Radiosonde Tracker +Info: 403MHz@gmail.com
LETO2-14U02301112022-12-07 02:09:2240.423-2.418426564890Clb=-3.6m/s p=555.5hPa t=-11.9C h=6.9% 403.00MHz Type=RS41-SGP TxOff=7h30m Radiosonde Tracker +Info: 403MHz@gmail.com
EA4EKH-11U02301112022-12-07 02:09:2140.423-2.4184644114896Clb=-3.6m/s t=-12.0C h=6.5% p=555.0hPa 403.000 MHz Type=RS41-SGP ser=U0230111 Radiosonde
LETO2-14U02301112022-12-07 02:09:1440.4229-2.4188288244917Clb=-3.3m/s p=553.7hPa t=-12.2C h=7.2% 403.00MHz Type=RS41-SGP batt=2.6V Radiosonde Tracker +Info: 403MHz@gmail.com
EA4CP-14U02301112022-12-07 02:08:5840.4229-2.419544194970Clb=-3.9m/s p=549.8hPa t=-12.7C h=7.5% 403.00MHz Type=RS41-SGP batt=2.6V Details on http://radiosondy.info
EA4EKH-11U02301112022-12-07 02:08:5040.4228-2.42009111175002Clb=-3.1m/s t=-13.0C h=7.4% p=547.8hPa 403.000 MHz Type=RS41-SGP ser=U0230111 Radiosonde
EA4CP-14U02301112022-12-07 02:08:4340.4228-2.4202741205020Clb=-3.0m/s p=546.2hPa t=-13.1C h=8.2% 403.00MHz Type=RS41-SGP Details on http://radiosondy.info
EA4CP-14U02301112022-12-07 02:08:2740.4227-2.4212978245071Clb=-3.6m/s p=542.6hPa t=-13.2C h=7.6% 403.00MHz Type=RS41-SGP Details on http://radiosondy.info
LETO2-14U02301112022-12-07 02:08:2240.4225-2.4215558285087Clb=-3.3m/s p=541.4hPa t=-13.3C h=7.4% 403.00MHz Type=RS41-SGP Radiosonde Tracker +Info: 403MHz@gmail.com
EA4EKH-11U02301112022-12-07 02:08:1940.4224-2.4218773305100Clb=-3.3m/s t=-13.4C h=6.9% p=540.5hPa 403.000 MHz Type=RS41-SGP ser=U0230111 Radiosonde
EA4CP-14U02301112022-12-07 02:08:1240.4224-2.4224597225121Clb=-3.4m/s p=539.0hPa t=-13.5C h=7.3% 403.00MHz Type=RS41-SGP TxOff=7h31m batt=2.6V Details on http://radiosondy.info
LETO2-14U02301112022-12-07 02:08:0840.4224-2.42275109155134Clb=-3.5m/s p=538.1hPa t=-13.6C h=7.3% 403.00MHz Type=RS41-SGP Radiosonde Tracker +Info: 403MHz@gmail.com
LETO2-14U02301112022-12-07 02:08:0240.4224-2.4230264245153Clb=-3.3m/s p=536.7hPa t=-13.7C h=7.2% 403.00MHz Type=RS41-SGP batt=2.6V Radiosonde Tracker +Info: 403MHz@gmail.com
LETO2-14U02301112022-12-07 02:07:5640.4223-2.4235482265172Clb=-3.7m/s p=535.3hPa t=-13.8C h=7.1% 403.00MHz Type=RS41-SGP Radiosonde Tracker +Info: 403MHz@gmail.com
EA4CP-14U02301112022-12-07 02:07:5440.4223-2.4237593225179Clb=-3.4m/s p=534.9hPa t=-13.9C h=7.1% 403.00MHz Type=RS41-SGP Details on http://radiosondy.info
EA4EKH-11U02301112022-12-07 02:07:4740.4224-2.42433110175203Clb=-3.3m/s t=-14.2C h=6.6% p=533.3hPa 403.000 MHz Type=RS41-SGP ser=U0230111 Radiosonde
LETO2-14U02301112022-12-07 02:07:4640.4224-2.42438106225206Clb=-3.6m/s p=533.0hPa t=-14.1C h=7.1% 403.00MHz Type=RS41-SGP Radiosonde Tracker +Info: 403MHz@gmail.com
EA4CP-14U02301112022-12-07 02:07:3840.4223-2.4248876315231Clb=-3.5m/s p=531.2hPa t=-14.4C h=7.1% 403.00MHz Type=RS41-SGP Details on http://radiosondy.info
LETO2-14U02301112022-12-07 02:07:3240.4222-2.4255495395252Clb=-3.9m/s p=529.7hPa t=-14.5C h=7.1% 403.00MHz Type=RS41-SGP batt=2.6V Radiosonde Tracker +Info: 403MHz@gmail.com
LETO2-14U02301112022-12-07 02:07:2240.4224-2.4264577265288Clb=-3.0m/s p=527.3hPa t=-14.8C h=7.0% 403.00MHz Type=RS41-SGP TxOff=7h32m Radiosonde Tracker +Info: 403MHz@gmail.com
LETO2-14U02301112022-12-07 02:07:1740.4223-2.426985315304Clb=-3.4m/s p=526.2hPa t=-15.0C h=7.0% 403.00MHz Type=RS41-SGP Radiosonde Tracker +Info: 403MHz@gmail.com
EA4EKH-11U02301112022-12-07 02:07:1640.4223-2.4270285375307Clb=-3.6m/s t=-15.1C h=6.5% p=526.0hPa 403.000 MHz Type=RS41-SGP ser=U0230111 Radiosonde
LETO2-14U02301112022-12-07 02:07:0740.4225-2.42795114225336Clb=-3.6m/s p=523.8hPa t=-15.3C h=7.0% 403.00MHz Type=RS41-SGP batt=2.6V Radiosonde Tracker +Info: 403MHz@gmail.com
LETO2-14U02301112022-12-07 02:06:5740.4224-2.4287789355371Clb=-3.0m/s p=521.6hPa t=-15.5C h=6.8% 403.00MHz Type=RS41-SGP Radiosonde Tracker +Info: 403MHz@gmail.com
LETO2-14U02301112022-12-07 02:06:5140.4225-2.42942119245390Clb=-3.6m/s p=520.2hPa t=-15.6C h=6.7% 403.00MHz Type=RS41-SGP Radiosonde Tracker +Info: 403MHz@gmail.com
EA4CP-14U02301112022-12-07 02:06:4940.4226-2.42958116245397Clb=-3.6m/s p=519.6hPa t=-15.6C h=6.5% 403.00MHz Type=RS41-SGP Details on http://radiosondy.info
EA4EKH-11U02301112022-12-07 02:06:4540.4227-2.4298981175415Clb=-3.9m/s t=-15.8C h=5.9% p=518.5hPa 403.000 MHz Type=RS41-SGP ser=U0230111 Radiosonde
LETO2-14U02301112022-12-07 02:06:4340.4227-2.4299478265418Clb=-3.3m/s p=518.3hPa t=-15.7C h=6.4% 403.00MHz Type=RS41-SGP batt=2.6V Radiosonde Tracker +Info: 403MHz@gmail.com
LETO2-14U02301112022-12-07 02:06:3740.4226-2.4304886285438Clb=-3.2m/s p=517.0hPa t=-15.9C h=6.4% 403.00MHz Type=RS41-SGP Radiosonde Tracker +Info: 403MHz@gmail.com
EA4CP-14U02301112022-12-07 02:06:3340.4226-2.43097104265451Clb=-3.0m/s p=516.0hPa t=-16.0C h=6.3% 403.00MHz Type=RS41-SGP batt=2.6V Details on http://radiosondy.info
LETO2-14U02301112022-12-07 02:06:2540.4228-2.43161101195478Clb=-4.0m/s p=514.1hPa t=-16.2C h=6.3% 403.00MHz Type=RS41-SGP Radiosonde Tracker +Info: 403MHz@gmail.com
LETO2-14U02301112022-12-07 02:06:1940.4228-2.4320273315499Clb=-3.7m/s p=512.7hPa t=-16.4C h=6.5% 403.00MHz Type=RS41-SGP TxOff=7h33m batt=2.5V Radiosonde Tracker +Info: 403MHz@gmail.com
EA4CP-14U02301112022-12-07 02:06:1740.4228-2.4322285335507Clb=-3.6m/s p=512.2hPa t=-16.4C h=6.7% 403.00MHz Type=RS41-SGP Details on http://radiosondy.info
EA4EKH-11U02301112022-12-07 02:06:1440.4227-2.4325691355517Clb=-3.5m/s t=-16.6C h=6.8% p=511.6hPa 403.000 MHz Type=RS41-SGP ser=U0230111 Radiosonde
EA4CP-14U02301112022-12-07 02:06:0140.423-2.4337682305561Clb=-3.0m/s p=508.7hPa t=-17.0C h=8.7% 403.00MHz Type=RS41-SGP TxOff=7h33m Details on http://radiosondy.info
LETO2-14U02301112022-12-07 02:06:0040.423-2.4338479355564Clb=-3.1m/s p=508.4hPa t=-17.0C h=8.8% 403.00MHz Type=RS41-SGP Radiosonde Tracker +Info: 403MHz@gmail.com
LETO2-14U02301112022-12-07 02:05:5240.423-2.43476109285589Clb=-3.0m/s p=506.6hPa t=-17.2C h=9.7% 403.00MHz Type=RS41-SGP batt=2.6V Radiosonde Tracker +Info: 403MHz@gmail.com
EA4CP-14U02301112022-12-07 02:05:4540.4232-2.4353489335612Clb=-3.2m/s p=505.3hPa t=-17.5C h=10.1% 403.00MHz Type=RS41-SGP batt=2.5V Details on http://radiosondy.info
EA4EKH-11U02301112022-12-07 02:05:4340.4232-2.435580265619Clb=-2.9m/s t=-17.6C h=9.4% p=504.8hPa 403.000 MHz Type=RS41-SGP ser=U0230111 Radiosonde
LETO2-14U02301112022-12-07 02:05:4240.4232-2.4355984245623Clb=-3.1m/s p=504.5hPa t=-17.5C h=10.2% 403.00MHz Type=RS41-SGP Radiosonde Tracker +Info: 403MHz@gmail.com
EA4CP-14U02301112022-12-07 02:05:2940.4234-2.43702119315665Clb=-3.2m/s p=501.6hPa t=-18.0C h=10.7% 403.00MHz Type=RS41-SGP Details on http://radiosondy.info
LETO2-14U02301112022-12-07 02:05:2440.4234-2.4373980305681Clb=-3.2m/s p=500.6hPa t=-18.1C h=10.9% 403.00MHz Type=RS41-SGP Radiosonde Tracker +Info: 403MHz@gmail.com
LETO2-14U02301112022-12-07 02:05:1840.4234-2.4380694415701Clb=-3.4m/s p=499.3hPa t=-18.3C h=11.2% 403.00MHz Type=RS41-SGP batt=2.5V Radiosonde Tracker +Info: 403MHz@gmail.com
EA4CP-14U02301112022-12-07 02:05:1340.4235-2.43866116305717Clb=-3.0m/s p=498.1hPa t=-18.5C h=11.4% 403.00MHz Type=RS41-SGP Details on http://radiosondy.info
EA4EKH-11U02301112022-12-07 02:05:1240.4235-2.43875120285720Clb=-2.9m/s t=-18.5C h=10.6% p=497.9hPa 403.000 MHz Type=RS41-SGP ser=U0230111 Radiosonde
LETO2-14U02301112022-12-07 02:05:0240.4236-2.4396591355752Clb=-3.1m/s p=495.8hPa t=-18.8C h=11.9% 403.00MHz Type=RS41-SGP TxOff=7h34m Radiosonde Tracker +Info: 403MHz@gmail.com
EA4CP-14U02301112022-12-07 02:04:5840.4237-2.44016114315766Clb=-2.9m/s p=494.9hPa t=-18.9C h=12.0% 403.00MHz Type=RS41-SGP batt=2.6V Details on http://radiosondy.info
EA4CP-14U02301112022-12-07 02:04:4240.4239-2.44176114305817Clb=-2.6m/s p=491.6hPa t=-19.1C h=7.9% 403.00MHz Type=RS41-SGP Details on http://radiosondy.info
EA4EKH-11U02301112022-12-07 02:04:4140.4239-2.44186115305820Clb=-2.8m/s t=-19.2C h=7.1% p=491.4hPa 403.000 MHz Type=RS41-SGP ser=U0230111 Radiosonde
EA4CP-14U02301112022-12-07 02:04:2640.4239-2.4433497335867Clb=-3.1m/s p=488.1hPa t=-19.5C h=8.1% 403.00MHz Type=RS41-SGP Details on http://radiosondy.info
EA4EKH-11U02301112022-12-07 02:04:1040.4241-2.4450188435918Clb=-3.2m/s t=-20.0C h=9.0% p=484.9hPa 403.000 MHz Type=RS41-SGP ser=U0230111 Radiosonde
LETO2-14U02301112022-12-07 02:04:0140.4243-2.44609103265948Clb=-3.1m/s p=482.9hPa t=-20.2C h=10.1% 403.00MHz Type=RS41-SGP batt=2.5V Radiosonde Tracker +Info: 403MHz@gmail.com
EA4CP-14U02301112022-12-07 02:03:5440.4242-2.4468487355970Clb=-3.1m/s p=481.6hPa t=-20.4C h=9.9% 403.00MHz Type=RS41-SGP TxOff=7h35m Details on http://radiosondy.info
LETO2-14U02301112022-12-07 02:03:4740.4243-2.44781110305992Clb=-2.7m/s p=480.1hPa t=-20.6C h=11.0% 403.00MHz Type=RS41-SGP Radiosonde Tracker +Info: 403MHz@gmail.com
LETO2-14U02301112022-12-07 02:03:4140.4244-2.4483583286012Clb=-2.9m/s p=478.9hPa t=-20.8C h=11.6% 403.00MHz Type=RS41-SGP Radiosonde Tracker +Info: 403MHz@gmail.com
EA4EKH-11U02301112022-12-07 02:03:3940.4244-2.4485678356017Clb=-3.1m/s t=-20.9C h=10.4% p=478.6hPa 403.000 MHz Type=RS41-SGP ser=U0230111 Radiosonde
EA4CP-14U02301112022-12-07 02:03:3840.4244-2.4486984356021Clb=-2.6m/s p=478.3hPa t=-20.9C h=11.2% 403.00MHz Type=RS41-SGP Details on http://radiosondy.info
LETO2-14U02301112022-12-07 02:03:3640.4244-2.4489789436027Clb=-2.9m/s p=477.8hPa t=-21.0C h=11.1% 403.00MHz Type=RS41-SGP batt=2.6V Radiosonde Tracker +Info: 403MHz@gmail.com
LETO2-14U02301112022-12-07 02:03:3040.4245-2.44977111306045Clb=-2.8m/s p=476.5hPa t=-21.1C h=10.5% 403.00MHz Type=RS41-SGP Radiosonde Tracker +Info: 403MHz@gmail.com
EA4CP-14U02301112022-12-07 02:03:2340.4245-2.4503979356068Clb=-2.8m/s p=475.2hPa t=-21.4C h=12.0% 403.00MHz Type=RS41-SGP batt=2.5V Details on http://radiosondy.info
LETO2-14U02301112022-12-07 02:03:1940.4245-2.4508987396080Clb=-3.0m/s p=474.4hPa t=-21.5C h=12.1% 403.00MHz Type=RS41-SGP Radiosonde Tracker +Info: 403MHz@gmail.com
EA4EKH-11U02301112022-12-07 02:03:0840.4246-2.4520780316114Clb=-3.0m/s t=-21.8C h=11.3% p=472.2hPa 403.000 MHz Type=RS41-SGP ser=U0230111 Radiosonde
EA4CP-14U02301112022-12-07 02:03:0440.4245-2.4525786396126Clb=-3.0m/s p=471.3hPa t=-21.9C h=12.6% 403.00MHz Type=RS41-SGP Details on http://radiosondy.info
EA4CP-14U02301112022-12-07 02:02:4940.4246-2.4543676416174Clb=-3.2m/s p=468.3hPa t=-22.3C h=12.4% 403.00MHz Type=RS41-SGP Details on http://radiosondy.info
EA4EKH-11U02301112022-12-07 02:02:3740.4247-2.45597112336213Clb=-3.1m/s t=-22.7C h=11.8% p=465.9hPa 403.000 MHz Type=RS41-SGP ser=U0230111 Radiosonde
EA4CP-14U02301112022-12-07 02:02:3440.4248-2.4562596396223Clb=-2.8m/s p=465.2hPa t=-22.8C h=13.1% 403.00MHz Type=RS41-SGP batt=2.5V Details on http://radiosondy.info
EA4CP-14U02301112022-12-07 02:02:1840.425-2.45825111356275Clb=-3.5m/s p=462.0hPa t=-23.2C h=12.0% 403.00MHz Type=RS41-SGP Details on http://radiosondy.info
LETO2-14U02301112022-12-07 02:02:1440.4251-2.458686286289Clb=-2.9m/s p=461.1hPa t=-23.3C h=11.4% 403.00MHz Type=RS41-SGP batt=2.6V Radiosonde Tracker +Info: 403MHz@gmail.com
LETO2-14U02301112022-12-07 02:02:0840.425-2.459384446308Clb=-3.2m/s p=459.8hPa t=-23.4C h=11.1% 403.00MHz Type=RS41-SGP TxOff=7h37m Radiosonde Tracker +Info: 403MHz@gmail.com
EA4EKH-11U02301112022-12-07 02:02:0640.425-2.4595991446315Clb=-3.1m/s t=-23.5C h=10.0% p=459.4hPa 403.000 MHz Type=RS41-SGP ser=U0230111 Radiosonde
EA4CP-14U02301112022-12-07 02:02:0340.425-2.46002102316325Clb=-3.0m/s p=458.9hPa t=-23.5C h=10.9% 403.00MHz Type=RS41-SGP Details on http://radiosondy.info
LETO2-14U02301112022-12-07 02:01:5640.4252-2.46069102246349Clb=-3.1m/s p=457.4hPa t=-23.7C h=10.7% 403.00MHz Type=RS41-SGP Radiosonde Tracker +Info: 403MHz@gmail.com
EA4CP-14U02301112022-12-07 02:01:4840.4251-2.4614685306376Clb=-3.1m/s p=455.7hPa t=-24.0C h=10.8% 403.00MHz Type=RS41-SGP TxOff=7h38m batt=2.6V Details on http://radiosondy.info
LETO2-14U02301112022-12-07 02:01:3940.4253-2.46248109226405Clb=-3.0m/s p=453.8hPa t=-24.2C h=11.0% 403.00MHz Type=RS41-SGP Radiosonde Tracker +Info: 403MHz@gmail.com
EA4EKH-11U02301112022-12-07 02:01:3540.4253-2.4627690206419Clb=-3.4m/s t=-24.4C h=9.9% p=453.0hPa 403.000 MHz Type=RS41-SGP ser=U0230111 Radiosonde
LETO2-14U02301112022-12-07 02:01:3440.4253-2.4628383226423Clb=-3.0m/s p=452.7hPa t=-24.4C h=11.0% 403.00MHz Type=RS41-SGP Radiosonde Tracker +Info: 403MHz@gmail.com
EA4CP-14U02301112022-12-07 02:01:3240.4253-2.46378316429Clb=-3.0m/s p=452.3hPa t=-24.5C h=11.0% 403.00MHz Type=RS41-SGP Details on http://radiosondy.info
LETO2-14U02301112022-12-07 02:01:2840.4252-2.4634993376443Clb=-3.0m/s p=451.5hPa t=-24.6C h=10.8% 403.00MHz Type=RS41-SGP batt=2.6V Radiosonde Tracker +Info: 403MHz@gmail.com
LETO2-14U02301112022-12-07 02:01:2240.4254-2.46413110266461Clb=-3.2m/s p=450.2hPa t=-24.7C h=10.7% 403.00MHz Type=RS41-SGP Radiosonde Tracker +Info: 403MHz@gmail.com
LETO2-14U02301112022-12-07 02:01:1740.4254-2.464583306479Clb=-3.2m/s p=449.3hPa t=-24.9C h=10.8% 403.00MHz Type=RS41-SGP Radiosonde Tracker +Info: 403MHz@gmail.com
EA4CP-14U02301112022-12-07 02:01:1440.4253-2.4647668336489Clb=-3.4m/s p=448.6hPa t=-24.9C h=10.8% 403.00MHz Type=RS41-SGP Details on http://radiosondy.info
LETO2-14U02301112022-12-07 02:01:1140.4252-2.4651283416500Clb=-3.0m/s p=447.9hPa t=-25.0C h=10.7% 403.00MHz Type=RS41-SGP TxOff=7h38m batt=2.5V Radiosonde Tracker +Info: 403MHz@gmail.com
EA4EKH-11U02301112022-12-07 02:01:0440.4253-2.46608101246528Clb=-2.9m/s t=-25.3C h=9.6% p=446.5hPa 403.000 MHz Type=RS41-SGP ser=U0230111 Radiosonde
LETO2-14U02301112022-12-07 02:01:0340.4253-2.46608102336528Clb=-2.8m/s p=446.4hPa t=-25.2C h=10.7% 403.00MHz Type=RS41-SGP Radiosonde Tracker +Info: 403MHz@gmail.com
EA4CP-14U02301112022-12-07 02:00:5840.4253-2.4664772376544Clb=-3.2m/s p=445.2hPa t=-25.3C h=10.7% 403.00MHz Type=RS41-SGP batt=2.5V Details on http://radiosondy.info
EA4CP-14U02301112022-12-07 02:00:4240.4252-2.4684498356600Clb=-2.8m/s p=441.8hPa t=-25.7C h=10.1% 403.00MHz Type=RS41-SGP Details on http://radiosondy.info
LETO2-14U02301112022-12-07 02:00:3640.4251-2.4690478356618Clb=-3.3m/s p=440.7hPa t=-25.6C h=8.3% 403.00MHz Type=RS41-SGP Radiosonde Tracker +Info: 403MHz@gmail.com
EA4EKH-11U02301112022-12-07 02:00:3340.4251-2.469692436632Clb=-3.1m/s t=-25.5C h=6.6% p=439.9hPa 403.000 MHz Type=RS41-SGP ser=U0230111 Radiosonde
EA4CP-14U02301112022-12-07 02:00:2640.4252-2.47029105306653Clb=-3.4m/s p=438.6hPa t=-25.5C h=7.2% 403.00MHz Type=RS41-SGP Details on http://radiosondy.info
LETO2-14U02301112022-12-07 02:00:2240.4252-2.4706187336668Clb=-3.4m/s p=437.7hPa t=-25.6C h=6.9% 403.00MHz Type=RS41-SGP batt=2.5V Radiosonde Tracker +Info: 403MHz@gmail.com
EA4CP-14U02301112022-12-07 02:00:1540.4251-2.47184106336704Clb=-3.7m/s p=435.5hPa t=-25.6C h=6.3% 403.00MHz Type=RS41-SGP batt=2.5V Details on http://radiosondy.info
EA4EKH-11U02301112022-12-07 02:00:0240.425-2.4727864356739Clb=-3.2m/s t=-25.8C h=5.3% p=433.5hPa 403.000 MHz Type=RS41-SGP ser=U0230111 Radiosonde
EA4CP-14U02301112022-12-07 01:59:5640.4249-2.4733676336757Clb=-3.3m/s p=432.5hPa t=-25.8C h=6.1% 403.00MHz Type=RS41-SGP Details on http://radiosondy.info
EA4CP-14U02301112022-12-07 01:59:4040.4248-2.4750966376813Clb=-3.4m/s p=429.2hPa t=-26.2C h=7.5% 403.00MHz Type=RS41-SGP TxOff=7h40m Details on http://radiosondy.info
EA4EKH-11U02301112022-12-07 01:59:3140.4247-2.47656100356852Clb=-2.8m/s t=-26.4C h=6.6% p=426.9hPa 403.000 MHz Type=RS41-SGP ser=U0230111 Radiosonde
EA4CP-14U02301112022-12-07 01:59:2440.4247-2.47777396869Clb=-3.1m/s p=425.9hPa t=-26.5C h=7.6% 403.00MHz Type=RS41-SGP batt=2.6V Details on http://radiosondy.info
EA4CP-14U02301112022-12-07 01:59:0940.4245-2.4789799306921Clb=-3.1m/s p=422.8hPa t=-26.9C h=8.0% 403.00MHz Type=RS41-SGP Details on http://radiosondy.info
EA4EKH-11U02301112022-12-07 01:59:0040.4245-2.4798765286955Clb=-3.7m/s t=-27.2C h=7.4% p=420.8hPa 403.000 MHz Type=RS41-SGP ser=U0230111 Radiosonde
EA4CP-14U02301112022-12-07 01:58:5340.4243-2.4805683306978Clb=-3.2m/s p=419.5hPa t=-27.3C h=8.8% 403.00MHz Type=RS41-SGP Details on http://radiosondy.info
LETO2-14U02301112022-12-07 01:58:4940.4243-2.48106101316992Clb=-3.4m/s p=418.7hPa t=-27.4C h=9.0% 403.00MHz Type=RS41-SGP Radiosonde Tracker +Info: 403MHz@gmail.com
EA4CP-14U02301112022-12-07 01:58:3740.4244-2.4820669317038Clb=-3.4m/s p=415.9hPa t=-27.7C h=10.1% 403.00MHz Type=RS41-SGP batt=2.5V Details on http://radiosondy.info
LETO2-14U02301112022-12-07 01:58:3340.4243-2.4824988377051Clb=-3.4m/s p=415.2hPa t=-27.8C h=10.2% 403.00MHz Type=RS41-SGP Radiosonde Tracker +Info: 403MHz@gmail.com
EA4EKH-11U02301112022-12-07 01:58:2940.4243-2.48311101357070Clb=-3.5m/s t=-28.0C h=9.2% p=414.2hPa 403.000 MHz Type=RS41-SGP ser=U0230111 Radiosonde
LETO2-14U02301112022-12-07 01:58:2740.4244-2.48321106287074Clb=-3.4m/s p=413.9hPa t=-28.0C h=10.6% 403.00MHz Type=RS41-SGP batt=2.6V Radiosonde Tracker +Info: 403MHz@gmail.com
LETO2-14U02301112022-12-07 01:58:1940.4245-2.48385101267103Clb=-3.8m/s p=412.1hPa t=-28.3C h=11.1% 403.00MHz Type=RS41-SGP Radiosonde Tracker +Info: 403MHz@gmail.com
EA4CP-14U02301112022-12-07 01:58:1840.4245-2.483975307107Clb=-3.8m/s p=411.9hPa t=-28.3C h=11.1% 403.00MHz Type=RS41-SGP Details on http://radiosondy.info
EA4CP-14U02301112022-12-07 01:58:0340.4246-2.48532119287166Clb=-3.2m/s p=408.6hPa t=-28.8C h=13.6% 403.00MHz Type=RS41-SGP Details on http://radiosondy.info
EA4EKH-11U02301112022-12-07 01:57:5840.4246-2.4857281247192Clb=-3.4m/s t=-29.0C h=16.9% p=407.3hPa 403.000 MHz Type=RS41-SGP ser=U0230111 Radiosonde
EA4CP-14U02301112022-12-07 01:57:4740.4247-2.48674110307227Clb=-3.2m/s p=405.3hPa t=-29.3C h=23.7% 403.00MHz Type=RS41-SGP batt=2.5V Details on http://radiosondy.info
LETO2-14U02301112022-12-07 01:57:4140.4249-2.48723113227247Clb=-3.4m/s p=404.0hPa t=-29.5C h=25.8% 403.00MHz Type=RS41-SGP TxOff=7h42m Radiosonde Tracker +Info: 403MHz@gmail.com
LETO2-14U02301112022-12-07 01:57:3540.4248-2.4877377357268Clb=-3.4m/s p=402.8hPa t=-29.7C h=31.8% 403.00MHz Type=RS41-SGP batt=2.5V Radiosonde Tracker +Info: 403MHz@gmail.com
EA4CP-14U02301112022-12-07 01:57:3240.4248-2.4880784337281Clb=-3.7m/s p=402.1hPa t=-29.8C h=36.3% 403.00MHz Type=RS41-SGP TxOff=7h42m Details on http://radiosondy.info
LETO2-14U02301112022-12-07 01:57:2940.4248-2.4884596417294Clb=-3.5m/s p=401.4hPa t=-29.9C h=40.3% 403.00MHz Type=RS41-SGP Radiosonde Tracker +Info: 403MHz@gmail.com
EA4EKH-11U02301112022-12-07 01:57:2640.4249-2.48884111377305Clb=-3.2m/s t=-30.0C h=40.9% p=401.0hPa 403.000 MHz Type=RS41-SGP ser=U0230111 Radiosonde
LETO2-14U02301112022-12-07 01:57:2340.425-2.48913116267315Clb=-3.1m/s p=400.3hPa t=-30.1C h=48.4% 403.00MHz Type=RS41-SGP Radiosonde Tracker +Info: 403MHz@gmail.com
EA4CP-14U02301112022-12-07 01:57:1440.425-2.4899376357348Clb=-3.8m/s p=398.4hPa t=-30.3C h=56.7% 403.00MHz Type=RS41-SGP Details on http://radiosondy.info
LETO2-14U02301112022-12-07 01:57:1140.4249-2.490382437360Clb=-3.4m/s p=397.8hPa t=-30.4C h=57.8% 403.00MHz Type=RS41-SGP batt=2.6V Radiosonde Tracker +Info: 403MHz@gmail.com
EA4CP-14U02301112022-12-07 01:56:5940.4251-2.491790437405Clb=-3.5m/s p=395.2hPa t=-30.8C h=62.3% 403.00MHz Type=RS41-SGP batt=2.5V Details on http://radiosondy.info
EA4EKH-11U02301112022-12-07 01:56:5540.425-2.4922577417423Clb=-3.5m/s t=-31.0C h=58.1% p=394.3hPa 403.000 MHz Type=RS41-SGP ser=U0230111 Radiosonde
EA4GBRU02301112022-12-07 01:56:5440.425-2.4922577417423Clb=-3.5m/s t=-31.0C h=58.1% p=394.3hPa 403.001 MHz Type=RS41-SGP ser=U0230111 Radiosonde
LETO2-14U02301112022-12-07 01:56:5340.425-2.4923979467427Clb=-3.8m/s p=394.0hPa t=-31.0C h=63.2% 403.00MHz Type=RS41-SGP Radiosonde Tracker +Info: 403MHz@gmail.com
LETO2-14U02301112022-12-07 01:56:4740.425-2.49331104397450Clb=-3.7m/s p=392.7hPa t=-31.1C h=64.8% 403.00MHz Type=RS41-SGP Radiosonde Tracker +Info: 403MHz@gmail.com
EA4CP-14U02301112022-12-07 01:56:4440.4251-2.49373113397461Clb=-3.4m/s p=392.1hPa t=-31.2C h=65.7% 403.00MHz Type=RS41-SGP Details on http://radiosondy.info
LETO2-14U02301112022-12-07 01:56:3740.4252-2.4944380337488Clb=-3.8m/s p=390.7hPa t=-31.4C h=67.3% 403.00MHz Type=RS41-SGP batt=2.6V Radiosonde Tracker +Info: 403MHz@gmail.com
LETO2-14U02301112022-12-07 01:56:3140.4251-2.4952486487511Clb=-3.4m/s p=389.3hPa t=-31.6C h=67.3% 403.00MHz Type=RS41-SGP TxOff=7h43m Radiosonde Tracker +Info: 403MHz@gmail.com
EA4CP-14U02301112022-12-07 01:56:3040.4251-2.4955795357519Clb=-3.6m/s p=388.9hPa t=-31.7C h=67.9% 403.00MHz Type=RS41-SGP Details on http://radiosondy.info
LETO2-14U02301112022-12-07 01:56:2540.4251-2.49612103337533Clb=-3.3m/s p=388.0hPa t=-31.8C h=68.1% 403.00MHz Type=RS41-SGP Radiosonde Tracker +Info: 403MHz@gmail.com
EA4EKH-11U02301112022-12-07 01:56:2440.4252-2.4962399337537Clb=-3.5m/s t=-31.9C h=62.8% p=388.0hPa 403.000 MHz Type=RS41-SGP ser=U0230111 Radiosonde
EA4GBRU02301112022-12-07 01:56:2340.4252-2.4963499317541Clb=-3.9m/s t=-31.9C h=62.7% p=387.7hPa 403.001 MHz Type=RS41-SGP ser=U0230111 Radiosonde
LETO2-14U02301112022-12-07 01:56:1940.4252-2.4967596317556Clb=-3.9m/s p=386.8hPa t=-31.9C h=67.1% 403.00MHz Type=RS41-SGP batt=2.6V Radiosonde Tracker +Info: 403MHz@gmail.com
EA4CP-14U02301112022-12-07 01:56:1340.4252-2.4974184397585Clb=-4.2m/s p=385.3hPa t=-32.1C h=63.3% 403.00MHz Type=RS41-SGP batt=2.6V Details on http://radiosondy.info
LETO2-14U02301112022-12-07 01:56:1240.4252-2.4974184307585Clb=-4.2m/s p=385.3hPa t=-32.1C h=63.3% 403.00MHz Type=RS41-SGP Radiosonde Tracker +Info: 403MHz@gmail.com
LETO2-14U02301112022-12-07 01:56:0440.425-2.4983280507612Clb=-3.8m/s p=383.6hPa t=-32.2C h=58.6% 403.00MHz Type=RS41-SGP Radiosonde Tracker +Info: 403MHz@gmail.com
LETO2-14U02301112022-12-07 01:55:5840.4251-2.49924104317636Clb=-4.4m/s p=382.3hPa t=-32.2C h=48.0% 403.00MHz Type=RS41-SGP batt=2.5V Radiosonde Tracker +Info: 403MHz@gmail.com
EA4CP-14U02301112022-12-07 01:55:5740.4251-2.49948105317643Clb=-4.2m/s p=382.0hPa t=-32.3C h=47.2% 403.00MHz Type=RS41-SGP Details on http://radiosondy.info
EA4EKH-11U02301112022-12-07 01:55:5340.4251-2.4997794247655Clb=-4.3m/s t=-32.4C h=41.4% p=381.4hPa 403.000 MHz Type=RS41-SGP ser=U0230111 Radiosonde
EA4GBRU02301112022-12-07 01:55:5240.4251-2.4998588227659Clb=-4.3m/s t=-32.4C h=40.6% p=381.1hPa 403.001 MHz Type=RS41-SGP ser=U0230111 Radiosonde
LETO2-14U02301112022-12-07 01:55:4640.425-2.5003468397683Clb=-4.1m/s p=379.9hPa t=-32.6C h=41.6% 403.00MHz Type=RS41-SGP Radiosonde Tracker +Info: 403MHz@gmail.com
EA4CP-14U02301112022-12-07 01:55:4140.4249-2.5011294317704Clb=-4.1m/s p=378.7hPa t=-32.7C h=38.9% 403.00MHz Type=RS41-SGP Details on http://radiosondy.info
LETO2-14U02301112022-12-07 01:55:4040.4249-2.5011294447704Clb=-4.1m/s p=378.7hPa t=-32.7C h=38.9% 403.00MHz Type=RS41-SGP Radiosonde Tracker +Info: 403MHz@gmail.com
EA4CP-14U02301112022-12-07 01:55:2440.425-2.5028872357772Clb=-4.1m/s p=375.1hPa t=-33.3C h=33.2% 403.00MHz Type=RS41-SGP TxOff=7h44m batt=2.5V Details on http://radiosondy.info
EA4GBRU02301112022-12-07 01:55:2140.4249-2.5031375417779Clb=-4.4m/s t=-33.4C h=29.6% p=374.8hPa 403.001 MHz Type=RS41-SGP ser=U0230111 Radiosonde
EA4GBR-10U02301112022-12-07 01:55:1240.425-2.50419107307812Clb=-4.0m/s p=373.1hPa t=-33.7C h=28.4% 403.000MHz Type=RS41-SGP rdzTTGOsonde
EA4CP-14U02301112022-12-07 01:55:0840.425-2.5045785357831Clb=-4.3m/s p=372.0hPa t=-33.9C h=32.2% 403.00MHz Type=RS41-SGP Details on http://radiosondy.info
EA4CP-14U02301112022-12-07 01:54:5140.4249-2.50644110287900Clb=-4.3m/s p=368.4hPa t=-34.5C h=33.8% 403.00MHz Type=RS41-SGP Details on http://radiosondy.info
EA4GBR-10U02301112022-12-07 01:54:5040.4249-2.50644111337900Clb=-4.4m/s p=368.4hPa t=-34.6C h=30.3% 403.000MHz Type=RS41-SGP rdzTTGOsonde
EA4CP-14U02301112022-12-07 01:54:3640.4249-2.5078685287959Clb=-4.1m/s p=365.3hPa t=-35.1C h=36.6% 403.00MHz Type=RS41-SGP batt=2.5V Details on http://radiosondy.info
EA4GBR-10U02301112022-12-07 01:54:2840.425-2.50867110397981Clb=-3.6m/s p=364.0hPa t=-35.3C h=34.6% 403.000MHz Type=RS41-SGP rdzTTGOsonde
EA4EKH-11U02301112022-12-07 01:54:2040.4252-2.5093888198016Clb=-3.9m/s t=-35.7C h=35.4% p=362.3hPa 403.000 MHz Type=RS41-SGP ser=U0230111 Radiosonde
EA4GBRU02301112022-12-07 01:54:1940.4251-2.5095276228022Clb=-3.6m/s t=-35.7C h=35.8% p=362.0hPa 403.001 MHz Type=RS41-SGP ser=U0230111 Radiosonde
EA4CP-14U02301112022-12-07 01:54:1840.4251-2.5095277358022Clb=-3.6m/s p=361.9hPa t=-35.7C h=39.9% 403.00MHz Type=RS41-SGP Details on http://radiosondy.info
EA4GBR-10U02301112022-12-07 01:54:0640.425-2.5107796438062Clb=-4.3m/s p=359.8hPa t=-36.1C h=37.1% 403.000MHz Type=RS41-SGP TxOff=7h46m rdzTTGOsonde
EA4CP-14U02301112022-12-07 01:54:0240.4251-2.51136115318082Clb=-4.7m/s p=358.8hPa t=-36.3C h=41.4% 403.00MHz Type=RS41-SGP Details on http://radiosondy.info
EA4EKH-11U02301112022-12-07 01:53:4940.4252-2.5124381378130Clb=-4.1m/s t=-36.8C h=39.6% p=356.5hPa 403.000 MHz Type=RS41-SGP ser=U0230111 Radiosonde
EA4GBRU02301112022-12-07 01:53:4840.4251-2.5125689418134Clb=-4.1m/s t=-36.8C h=39.9% p=356.1hPa 403.001 MHz Type=RS41-SGP ser=U0230111 Radiosonde
EA4CP-14U02301112022-12-07 01:53:4740.4251-2.5126992338138Clb=-4.2m/s p=355.9hPa t=-36.8C h=44.6% 403.00MHz Type=RS41-SGP batt=2.5V Details on http://radiosondy.info
EA4GBR-10U02301112022-12-07 01:53:4340.4252-2.51309106418149Clb=-3.6m/s p=355.3hPa t=-36.9C h=40.8% 403.000MHz Type=RS41-SGP TxOff=7h46m rdzTTGOsonde
EA4CP-14U02301112022-12-07 01:53:3140.4255-2.5141880378196Clb=-3.4m/s p=353.1hPa t=-37.3C h=49.6% 403.00MHz Type=RS41-SGP Details on http://radiosondy.info
EA4GBR-10U02301112022-12-07 01:53:2240.4255-2.5151899448223Clb=-3.6m/s p=351.7hPa t=-37.6C h=46.0% 403.000MHz Type=RS41-SGP TxOff=7h47m rdzTTGOsonde
EA4EKH-11U02301112022-12-07 01:53:1840.4256-2.51581117338239Clb=-3.1m/s t=-37.7C h=47.7% p=350.9hPa 403.000 MHz Type=RS41-SGP ser=U0230111 Radiosonde
EA4GBRU02301112022-12-07 01:53:1740.4257-2.51599112268245Clb=-3.5m/s t=-37.8C h=48.7% p=350.5hPa 403.001 MHz Type=RS41-SGP ser=U0230111 Radiosonde
EA4CP-14U02301112022-12-07 01:53:1440.4257-2.51614103308252Clb=-3.6m/s p=350.2hPa t=-37.8C h=55.1% 403.00MHz Type=RS41-SGP TxOff=7h46m Details on http://radiosondy.info
EA4CP-14U02301112022-12-07 01:52:5840.4256-2.5178495358309Clb=-3.5m/s p=347.4hPa t=-38.1C h=58.9% 403.00MHz Type=RS41-SGP batt=2.5V Details on http://radiosondy.info
EA4GBR-10U02301112022-12-07 01:52:5340.4257-2.51843110438322Clb=-3.7m/s p=346.7hPa t=-38.3C h=54.1% 403.000MHz Type=RS41-SGP TxOff=7h47m rdzTTGOsonde
EA4EKH-11U02301112022-12-07 01:52:4740.4258-2.519277268349Clb=-3.8m/s t=-38.5C h=54.0% p=345.3hPa 403.000 MHz Type=RS41-SGP ser=U0230111 Radiosonde
EA4GBRU02301112022-12-07 01:52:4640.4258-2.5192980288352Clb=-3.7m/s t=-38.5C h=54.7% p=345.2hPa 403.001 MHz Type=RS41-SGP ser=U0230111 Radiosonde
EA4CP-14U02301112022-12-07 01:52:4240.4257-2.5195877418362Clb=-3.8m/s p=344.7hPa t=-38.6C h=60.4% 403.00MHz Type=RS41-SGP Details on http://radiosondy.info
EA4GBR-10U02301112022-12-07 01:52:3140.4256-2.5209699468397Clb=-3.9m/s p=342.9hPa t=-38.9C h=55.8% 403.000MHz Type=RS41-SGP TxOff=7h48m rdzTTGOsonde
EA4CP-14U02301112022-12-07 01:52:2740.4257-2.5216106338415Clb=-4.0m/s p=342.0hPa t=-39.0C h=62.7% 403.00MHz Type=RS41-SGP Details on http://radiosondy.info
EA4EKH-11U02301112022-12-07 01:52:1640.4256-2.5226171338456Clb=-4.4m/s t=-39.5C h=58.1% p=340.0hPa 403.000 MHz Type=RS41-SGP ser=U0230111 Radiosonde
EA4GBRU02301112022-12-07 01:52:1540.4255-2.5228262358464Clb=-4.4m/s t=-39.5C h=58.7% p=339.5hPa 403.001 MHz Type=RS41-SGP ser=U0230111 Radiosonde
EA4GBR-10U02301112022-12-07 01:52:0940.4254-2.5233176468479Clb=-3.9m/s p=338.8hPa t=-39.7C h=59.6% 403.000MHz Type=RS41-SGP TxOff=7h48m rdzTTGOsonde
EA4CP-14U02301112022-12-07 01:51:5340.4253-2.5253864488546Clb=-4.4m/s p=335.5hPa t=-40.2C h=67.4% 403.00MHz Type=RS41-SGP Details on http://radiosondy.info
EA4GBR-10U02301112022-12-07 01:51:4640.4251-2.5261874508571Clb=-5.1m/s p=334.3hPa t=-40.5C h=62.3% 403.000MHz Type=RS41-SGP TxOff=7h48m rdzTTGOsonde
EA4EKH-11U02301112022-12-07 01:51:4540.425-2.5265178528579Clb=-4.5m/s t=-40.6C h=62.5% p=333.9hPa 403.000 MHz Type=RS41-SGP ser=U0230111 Radiosonde
EA4GBRU02301112022-12-07 01:51:4340.425-2.5268578528587Clb=-4.8m/s t=-40.6C h=62.5% p=333.3hPa 403.001 MHz Type=RS41-SGP ser=U0230111 Radiosonde
EA4CP-14U02301112022-12-07 01:51:3740.4249-2.5278993398613Clb=-4.3m/s p=332.2hPa t=-40.8C h=70.3% 403.00MHz Type=RS41-SGP Details on http://radiosondy.info
EA4GBR-10U02301112022-12-07 01:51:2340.4249-2.5294566418663Clb=-4.4m/s p=329.8hPa t=-41.4C h=66.7% 403.000MHz Type=RS41-SGP TxOff=7h48m rdzTTGOsonde
EA4CP-14U02301112022-12-07 01:51:2140.4248-2.5298874448674Clb=-4.1m/s p=329.2hPa t=-41.4C h=74.3% 403.00MHz Type=RS41-SGP batt=2.5V Details on http://radiosondy.info
EA4EKH-11U02301112022-12-07 01:51:1440.4247-2.5312597468708Clb=-4.7m/s t=-41.8C h=67.2% p=327.8hPa 403.000 MHz Type=RS41-SGP ser=U0230111 Radiosonde
EA4GBRU02301112022-12-07 01:51:1240.4247-2.5313996418711Clb=-4.2m/s t=-41.9C h=67.6% p=327.4hPa 403.001 MHz Type=RS41-SGP ser=U0230111 Radiosonde
EA4CP-14U02301112022-12-07 01:51:0540.4246-2.5321966448740Clb=-4.3m/s p=326.1hPa t=-42.0C h=76.5% 403.00MHz Type=RS41-SGP TxOff=7h48m Details on http://radiosondy.info
EA4GBR-10U02301112022-12-07 01:51:0240.4245-2.532470398750Clb=-4.3m/s p=325.8hPa t=-42.2C h=68.1% 403.000MHz Type=RS41-SGP TxOff=7h48m rdzTTGOsonde
EA4CP-14U02301112022-12-07 01:50:5040.4239-2.5343481448805Clb=-4.4m/s p=323.0hPa t=-42.6C h=75.3% 403.00MHz Type=RS41-SGP Details on http://radiosondy.info
EA4EKH-11U02301112022-12-07 01:50:4340.4239-2.535482338832Clb=-3.6m/s t=-42.9C h=67.2% p=321.8hPa 403.000 MHz Type=RS41-SGP ser=U0230111 Radiosonde
EA4GBR-10U02301112022-12-07 01:50:4240.4239-2.535484358832Clb=-3.6m/s p=321.8hPa t=-42.9C h=67.2% 403.000MHz Type=RS41-SGP TxOff=7h49m rdzTTGOsonde
EA4GBRU02301112022-12-07 01:50:4140.4238-2.5356375338839Clb=-4.1m/s t=-43.0C h=67.5% p=321.4hPa 403.001 MHz Type=RS41-SGP ser=U0230111 Radiosonde
EA4CP-14U02301112022-12-07 01:50:3440.4235-2.5364662548866Clb=-4.0m/s p=320.1hPa t=-43.1C h=74.6% 403.00MHz Type=RS41-SGP batt=2.4V Details on http://radiosondy.info
EA4GBR-10U02301112022-12-07 01:50:2140.4231-2.538586468916Clb=-4.0m/s p=317.9hPa t=-43.6C h=64.7% 403.000MHz Type=RS41-SGP TxOff=7h49m rdzTTGOsonde
EA4EKH-11U02301112022-12-07 01:50:1240.4229-2.5399260418962Clb=-4.4m/s t=-44.0C h=66.6% p=315.6hPa 403.000 MHz Type=RS41-SGP ser=U0230111 Radiosonde
EA4GBRU02301112022-12-07 01:50:1040.4227-2.5401656448970Clb=-4.4m/s t=-44.1C h=67.6% p=315.2hPa 403.001 MHz Type=RS41-SGP ser=U0230111 Radiosonde
EA4CP-14U02301112022-12-07 01:50:0840.4224-2.5409167508991Clb=-4.2m/s p=314.2hPa t=-44.3C h=75.1% 403.00MHz Type=RS41-SGP Details on http://radiosondy.info
EA4GBR-10U02301112022-12-07 01:49:5540.4221-2.5423482469025Clb=-4.1m/s p=312.7hPa t=-44.6C h=64.7% 403.000MHz Type=RS41-SGP TxOff=7h50m rdzTTGOsonde
EA4CP-14U02301112022-12-07 01:49:4940.422-2.5432673489054Clb=-4.6m/s p=311.3hPa t=-44.9C h=72.9% 403.00MHz Type=RS41-SGP Details on http://radiosondy.info
EA4EKH-11U02301112022-12-07 01:49:4140.4214-2.5445555549095Clb=-4.4m/s t=-45.3C h=63.8% p=309.5hPa 403.000 MHz Type=RS41-SGP ser=U0230111 Radiosonde
EA4GBRU02301112022-12-07 01:49:3940.4214-2.5445555549095Clb=-4.4m/s t=-45.3C h=63.8% p=309.5hPa 403.001 MHz Type=RS41-SGP ser=U0230111 Radiosonde
EA4CP-14U02301112022-12-07 01:49:3440.421-2.545469529115Clb=-4.0m/s p=308.4hPa t=-45.4C h=72.0% 403.00MHz Type=RS41-SGP batt=2.4V Details on http://radiosondy.info
EA4GBR-10U02301112022-12-07 01:49:3240.421-2.5455872619120Clb=-4.2m/s p=308.3hPa t=-45.5C h=63.6% 403.000MHz Type=RS41-SGP TxOff=7h50m rdzTTGOsonde
EA4CP-14U02301112022-12-07 01:49:1840.4204-2.547955579183Clb=-4.3m/s p=305.4hPa t=-46.0C h=68.8% 403.00MHz Type=RS41-SGP Details on http://radiosondy.info
EA4GBR-10U02301112022-12-07 01:49:1240.4199-2.5488562639210Clb=-4.4m/s p=304.2hPa t=-46.3C h=60.4% 403.000MHz Type=RS41-SGP rdzTTGOsonde
EA4EKH-11U02301112022-12-07 01:49:1040.4197-2.5494169619222Clb=-4.3m/s t=-46.5C h=60.6% p=303.6hPa 403.000 MHz Type=RS41-SGP ser=U0230111 Radiosonde
EA4GBRU02301112022-12-07 01:49:0840.4197-2.549672619226Clb=-4.0m/s t=-46.5C h=60.6% p=303.5hPa 403.001 MHz Type=RS41-SGP ser=U0230111 Radiosonde
EA4CP-14U02301112022-12-07 01:49:0240.4195-2.5506579489251Clb=-4.2m/s p=302.3hPa t=-46.7C h=67.2% 403.00MHz Type=RS41-SGP Details on http://radiosondy.info
EA4GBR-10U02301112022-12-07 01:48:4840.4188-2.5523856509304Clb=-4.2m/s p=300.0hPa t=-47.2C h=57.7% 403.000MHz Type=RS41-SGP rdzTTGOsonde
EA4CP-14U02301112022-12-07 01:48:4440.4184-2.553156569324Clb=-4.3m/s p=299.0hPa t=-47.3C h=66.9% 403.00MHz Type=RS41-SGP TxOff=7h51m batt=2.4V Details on http://radiosondy.info
EA4EKH-11U02301112022-12-07 01:48:3940.418-2.5541464659349Clb=-3.8m/s t=-47.6C h=59.0% p=297.9hPa 403.000 MHz Type=RS41-SGP ser=U0230111 Radiosonde
EA4GBRU02301112022-12-07 01:48:3740.4179-2.5543465659352Clb=-3.8m/s t=-47.7C h=58.9% p=297.7hPa 403.001 MHz Type=RS41-SGP ser=U0230111 Radiosonde
EA4GBR-10U02301112022-12-07 01:48:2540.4175-2.5564279469399Clb=-4.0m/s p=295.7hPa t=-48.1C h=58.3% 403.000MHz Type=RS41-SGP rdzTTGOsonde
EA4CP-14U02301112022-12-07 01:48:2440.4174-2.556769509406Clb=-4.0m/s p=295.3hPa t=-48.1C h=67.3% 403.00MHz Type=RS41-SGP Details on http://radiosondy.info
EA4EKH-11U02301112022-12-07 01:48:0740.4164-2.5597480599476Clb=-3.7m/s t=-48.7C h=60.7% p=292.1hPa 403.000 MHz Type=RS41-SGP ser=U0230111 Radiosonde
EA4GBRU02301112022-12-07 01:48:0640.4163-2.5599382569480Clb=-3.7m/s t=-48.8C h=61.2% p=292.0hPa 403.001 MHz Type=RS41-SGP ser=U0230111 Radiosonde
EA4GBR-10U02301112022-12-07 01:48:0340.4163-2.5602783509488Clb=-4.2m/s p=291.7hPa t=-48.8C h=61.2% 403.000MHz Type=RS41-SGP rdzTTGOsonde
EA4CP-14U02301112022-12-07 01:47:5440.4159-2.5617259639529Clb=-4.2m/s p=289.8hPa t=-49.1C h=71.1% 403.00MHz Type=RS41-SGP Details on http://radiosondy.info
LETO2-14U02301112022-12-07 01:47:4040.4151-2.5644482509585Clb=-4.2m/s p=287.3hPa t=-49.7C h=72.1% 403.00MHz Type=RS41-SGP TxOff=7h52m batt=2.4V Radiosonde Tracker +Info: 403MHz@gmail.com
EA4CP-14U02301112022-12-07 01:47:3840.415-2.5648183509593Clb=-3.9m/s p=287.0hPa t=-49.7C h=71.9% 403.00MHz Type=RS41-SGP batt=2.4V Details on http://radiosondy.info
EA4GBR-10U02301112022-12-07 01:47:3540.415-2.5651582509601Clb=-3.9m/s p=286.7hPa t=-49.8C h=62.5% 403.000MHz Type=RS41-SGP rdzTTGOsonde
EA4CP-14U02301112022-12-07 01:47:2140.4142-2.567464619662Clb=-4.0m/s p=284.0hPa t=-50.4C h=76.4% 403.00MHz Type=RS41-SGP Details on http://radiosondy.info
EA4GBR-10U02301112022-12-07 01:47:1440.4139-2.5688280619690Clb=-4.0m/s p=283.0hPa t=-50.7C h=67.5% 403.000MHz Type=RS41-SGP rdzTTGOsonde
EA4CP-14U02301112022-12-07 01:47:0640.4137-2.5702583529721Clb=-3.8m/s p=281.5hPa t=-50.9C h=77.2% 403.00MHz Type=RS41-SGP Details on http://radiosondy.info
EA4GBRU02301112022-12-07 01:47:0440.4137-2.5705779469729Clb=-4.1m/s t=-51.0C h=68.3% p=281.1hPa 403.001 MHz Type=RS41-SGP ser=U0230111 Radiosonde
EA4GBR-10U02301112022-12-07 01:46:5440.4132-2.57257569769Clb=-4.3m/s p=279.6hPa t=-51.2C h=67.4% 403.000MHz Type=RS41-SGP rdzTTGOsonde
EA4CP-14U02301112022-12-07 01:46:5040.4128-2.5726960639786Clb=-4.2m/s p=278.7hPa t=-51.4C h=74.6% 403.00MHz Type=RS41-SGP batt=2.4V Details on http://radiosondy.info
EA4EKH-11U02301112022-12-07 01:46:3440.4121-2.5757270469851Clb=-4.1m/s t=-52.0C h=59.8% p=275.9hPa 403.000 MHz Type=RS41-SGP ser=U0230111 Radiosonde
EA4GBR-10U02301112022-12-07 01:46:3340.4121-2.5757271469851Clb=-4.1m/s p=275.9hPa t=-52.0C h=59.8% 403.000MHz Type=RS41-SGP rdzTTGOsonde
EA4CP-14U02301112022-12-07 01:46:1840.4109-2.5784872639917Clb=-4.1m/s p=273.1hPa t=-52.3C h=63.0% 403.00MHz Type=RS41-SGP TxOff=7h53m Details on http://radiosondy.info
LETO2-14U02301112022-12-07 01:46:1340.4107-2.5795780579937Clb=-4.2m/s p=272.3hPa t=-52.3C h=62.9% 403.00MHz Type=RS41-SGP Radiosonde Tracker +Info: 403MHz@gmail.com
EA4EKH-11U02301112022-12-07 01:46:0340.4105-2.5814376489980Clb=-4.0m/s t=-52.7C h=55.2% p=270.5hPa 403.000 MHz Type=RS41-SGP ser=U0230111 Radiosonde
EA4CP-14U02301112022-12-07 01:46:0240.4105-2.5815873659983Clb=-3.6m/s p=270.3hPa t=-52.7C h=64.9% 403.00MHz Type=RS41-SGP batt=2.5V Details on http://radiosondy.info
EA4GBR-10U02301112022-12-07 01:45:4640.4096-2.58454777610045Clb=-4.5m/s p=267.9hPa t=-53.1C h=53.1% 403.000MHz Type=RS41-SGP rdzTTGOsonde
EA4EKH-11U02301112022-12-07 01:45:3240.4092-2.5874665710107Clb=-4.2m/s t=-53.7C h=53.2% p=265.2hPa 403.000 MHz Type=RS41-SGP ser=U0230111 Radiosonde
EA4GBRU02301112022-12-07 01:45:3140.409-2.58799707010119Clb=-4.0m/s t=-53.9C h=53.3% p=264.7hPa 403.001 MHz Type=RS41-SGP ser=U0230111 Radiosonde
EA4GBR-10U02301112022-12-07 01:45:2540.4089-2.58867787410131Clb=-4.1m/s p=264.3hPa t=-53.9C h=53.9% 403.000MHz Type=RS41-SGP rdzTTGOsonde
EA4CP-14U02301112022-12-07 01:45:1740.4087-2.59077895710169Clb=-4.1m/s p=262.6hPa t=-54.2C h=63.8% 403.00MHz Type=RS41-SGP Details on http://radiosondy.info
EA4EKH-11U02301112022-12-07 01:45:0140.4085-2.59364695710236Clb=-4.3m/s t=-54.8C h=51.2% p=259.9hPa 403.000 MHz Type=RS41-SGP ser=U0230111 Radiosonde
EA4GBRU02301112022-12-07 01:45:0040.4084-2.59401706310245Clb=-4.1m/s t=-54.9C h=51.4% p=259.6hPa 403.001 MHz Type=RS41-SGP ser=U0230111 Radiosonde
EA4CP-14U02301112022-12-07 01:44:5740.4083-2.59443766710253Clb=-4.1m/s p=259.2hPa t=-54.9C h=61.4% 403.00MHz Type=RS41-SGP Details on http://radiosondy.info
EA4CP-14U02301112022-12-07 01:44:3940.4083-2.59834985710332Clb=-4.4m/s p=256.0hPa t=-55.6C h=55.5% 403.00MHz Type=RS41-SGP batt=2.4V Details on http://radiosondy.info
EA4EKH-11U02301112022-12-07 01:44:3040.4081-2.60004746110374Clb=-4.4m/s t=-55.9C h=44.6% p=254.4hPa 403.000 MHz Type=RS41-SGP ser=U0230111 Radiosonde
EA4GBRU02301112022-12-07 01:44:2940.4081-2.60024746110378Clb=-4.4m/s t=-56.0C h=44.2% p=254.3hPa 403.001 MHz Type=RS41-SGP ser=U0230111 Radiosonde
EA4CP-14U02301112022-12-07 01:44:2340.4079-2.60132816310401Clb=-4.4m/s p=253.3hPa t=-56.0C h=51.0% 403.00MHz Type=RS41-SGP Details on http://radiosondy.info
EA4GBR-10U02301112022-12-07 01:44:1740.4079-2.60251966910422Clb=-4.2m/s p=252.5hPa t=-56.3C h=41.8% 403.000MHz Type=RS41-SGP rdzTTGOsonde
EA4CP-14U02301112022-12-07 01:44:0740.4079-2.60445756910473Clb=-4.4m/s p=250.4hPa t=-56.4C h=45.3% 403.00MHz Type=RS41-SGP Details on http://radiosondy.info
EA4EKH-11U02301112022-12-07 01:43:5940.4076-2.6061837410508Clb=-4.3m/s t=-56.7C h=37.8% p=249.1hPa 403.000 MHz Type=RS41-SGP ser=U0230111 Radiosonde
EA4GBRU02301112022-12-07 01:43:5740.4075-2.60659877410517Clb=-4.6m/s t=-56.8C h=37.8% p=248.7hPa 403.001 MHz Type=RS41-SGP ser=U0230111 Radiosonde
EA4CP-14U02301112022-12-07 01:43:5140.4076-2.60799966910544Clb=-4.7m/s p=247.7hPa t=-56.8C h=45.0% 403.00MHz Type=RS41-SGP batt=2.4V Details on http://radiosondy.info
EA4GBR-10U02301112022-12-07 01:43:3440.408-2.611551046710619Clb=-4.6m/s p=244.8hPa t=-57.2C h=36.0% 403.000MHz Type=RS41-SGP TxOff=7h56m rdzTTGOsonde
EA4EKH-11U02301112022-12-07 01:43:2840.4082-2.612851075410649Clb=-4.3m/s t=-57.3C h=35.0% p=243.6hPa 403.000 MHz Type=RS41-SGP ser=U0230111 Radiosonde
EA4GBRU02301112022-12-07 01:43:2640.4083-2.613191085410658Clb=-4.3m/s t=-57.4C h=35.1% p=243.2hPa 403.001 MHz Type=RS41-SGP ser=U0230111 Radiosonde
EA4CP-14U02301112022-12-07 01:43:1840.4087-2.61461114810689Clb=-3.8m/s p=242.1hPa t=-57.4C h=43.5% 403.00MHz Type=RS41-SGP Details on http://radiosondy.info
EA4GBR-10U02301112022-12-07 01:43:1340.4089-2.615291155410706Clb=-4.4m/s p=241.4hPa t=-57.4C h=34.2% 403.000MHz Type=RS41-SGP TxOff=7h57m rdzTTGOsonde
EA4CP-14U02301112022-12-07 01:43:0340.4092-2.6168885610753Clb=-4.6m/s p=239.6hPa t=-57.8C h=43.0% 403.00MHz Type=RS41-SGP batt=2.4V Details on http://radiosondy.info
EA4EKH-11U02301112022-12-07 01:42:5740.4093-2.618051015910783Clb=-3.7m/s t=-58.2C h=36.2% p=238.5hPa 403.000 MHz Type=RS41-SGP ser=U0230111 Radiosonde
EA4GBRU02301112022-12-07 01:42:5540.4094-2.618621075910795Clb=-3.7m/s t=-58.3C h=36.3% p=238.1hPa 403.001 MHz Type=RS41-SGP ser=U0230111 Radiosonde
EA4GBR-10U02301112022-12-07 01:42:5240.4094-2.618621096110795Clb=-3.7m/s p=238.1hPa t=-58.3C h=36.3% 403.000MHz Type=RS41-SGP TxOff=7h57m rdzTTGOsonde
EA4CP-14U02301112022-12-07 01:42:4740.4097-2.619731114810819Clb=-3.5m/s p=237.1hPa t=-58.4C h=45.9% 403.00MHz Type=RS41-SGP Details on http://radiosondy.info
EA4GBR-10U02301112022-12-07 01:42:3140.4105-2.621811103510884Clb=-4.2m/s p=234.8hPa t=-59.0C h=38.8% 403.000MHz Type=RS41-SGP TxOff=7h57m rdzTTGOsonde
EA4CP-14U02301112022-12-07 01:42:2640.4105-2.62257885610910Clb=-4.5m/s 403.00MHz Type=RS41-SGP Details on http://radiosondy.info
EA4GBRU02301112022-12-07 01:42:2440.4105-2.62291905410919Clb=-5.0m/s t=-59.4C h=38.7% p=233.5hPa 403.001 MHz Type=RS41-SGP ser=U0230111 Radiosonde
EA4GBR-10U02301112022-12-07 01:42:1140.4109-2.625011165210973Clb=-4.7m/s p=231.4hPa t=-59.9C h=39.1% 403.000MHz Type=RS41-SGP TxOff=7h58m rdzTTGOsonde
EA4CP-14U02301112022-12-07 01:42:1040.411-2.625331144410982Clb=-4.2m/s p=231.0hPa t=-60.0C h=49.8% 403.00MHz Type=RS41-SGP batt=2.5V Details on http://radiosondy.info
EA4EKH-11U02301112022-12-07 01:41:5540.4118-2.627371042811058Clb=-4.9m/s t=-60.7C h=39.9% p=228.2hPa 403.000 MHz Type=RS41-SGP ser=U0230111 Radiosonde
EA4CP-14U02301112022-12-07 01:41:5440.4118-2.627371054311058Clb=-4.8m/s p=228.2hPa t=-60.6C h=49.9% 403.00MHz Type=RS41-SGP Details on http://radiosondy.info
EA4GBRU02301112022-12-07 01:41:5340.4118-2.62746982811063Clb=-5.0m/s t=-60.7C h=39.7% p=228.1hPa 403.001 MHz Type=RS41-SGP ser=U0230111 Radiosonde
EA4GBR-10U02301112022-12-07 01:41:5040.4119-2.62766903111073Clb=-5.0m/s p=227.8hPa t=-60.8C h=39.5% 403.000MHz Type=RS41-SGP TxOff=7h58m rdzTTGOsonde
EA4CP-14U02301112022-12-07 01:41:3840.412-2.629581183111133Clb=-4.6m/s p=225.5hPa t=-61.4C h=48.0% 403.00MHz Type=RS41-SGP Details on http://radiosondy.info
EA4GBR-10U02301112022-12-07 01:41:2940.4124-2.63041112611168Clb=-4.4m/s p=224.3hPa t=-61.7C h=38.8% 403.000MHz Type=RS41-SGP TxOff=7h59m rdzTTGOsonde
EA4EKH-11U02301112022-12-07 01:41:2440.4124-2.63099753011201Clb=-5.0m/s t=-62.0C h=35.2% p=223.1hPa 403.000 MHz Type=RS41-SGP ser=U0230111 Radiosonde
EA4GBRU02301112022-12-07 01:41:2240.4123-2.63109733311206Clb=-4.9m/s t=-62.1C h=34.9% p=222.9hPa 403.001 MHz Type=RS41-SGP ser=U0230111 Radiosonde
EA4CP-14U02301112022-12-07 01:41:0640.4124-2.63321033111280Clb=-4.8m/s p=220.2hPa t=-62.5C h=42.3% 403.00MHz Type=RS41-SGP Details on http://radiosondy.info
EA4GBR-10U02301112022-12-07 01:40:5940.4123-2.6337673011307Clb=-4.8m/s p=219.2hPa t=-62.6C h=31.6% 403.000MHz Type=RS41-SGP TxOff=7h59m rdzTTGOsonde
EA4EKH-11U02301112022-12-07 01:40:5340.412-2.63452654111346Clb=-5.1m/s t=-62.7C h=30.0% p=217.9hPa 403.000 MHz Type=RS41-SGP ser=U0230111 Radiosonde
EA4GBRU02301112022-12-07 01:40:5140.4119-2.63464634411351Clb=-4.4m/s t=-62.7C h=29.8% p=217.8hPa 403.001 MHz Type=RS41-SGP ser=U0230111 Radiosonde
EA4CP-14U02301112022-12-07 01:40:5040.4119-2.63478655711356Clb=-4.5m/s p=217.6hPa t=-62.7C h=39.0% 403.00MHz Type=RS41-SGP Details on http://radiosondy.info
EA4GBR-10U02301112022-12-07 01:40:3940.4114-2.63648766111403Clb=-5.4m/s p=215.8hPa t=-61.9C h=25.5% 403.000MHz Type=RS41-SGP TxOff=7h59m rdzTTGOsonde
EA4CP-14U02301112022-12-07 01:40:3440.4113-2.63772924811434Clb=-5.7m/s p=214.7hPa t=-61.6C h=31.4% 403.00MHz Type=RS41-SGP batt=2.4V Details on http://radiosondy.info
EA4EKH-11U02301112022-12-07 01:40:2240.4112-2.63967695011498Clb=-4.7m/s t=-61.6C h=22.5% p=212.7hPa 403.000 MHz Type=RS41-SGP ser=U0230111 Radiosonde
EA4GBRU02301112022-12-07 01:40:2040.4112-2.63983685211503Clb=-5.1m/s t=-61.6C h=22.2% p=212.5hPa 403.001 MHz Type=RS41-SGP ser=U0230111 Radiosonde
EA4CP-14U02301112022-12-07 01:40:1840.4111-2.64017726711512Clb=-4.8m/s p=212.1hPa t=-61.5C h=29.7% 403.00MHz Type=RS41-SGP Details on http://radiosondy.info
EA4CP-14U02301112022-12-07 01:40:0240.4107-2.64365936111588Clb=-5.9m/s p=209.4hPa t=-61.2C h=26.9% 403.00MHz Type=RS41-SGP Details on http://radiosondy.info
EA4GBR-10U02301112022-12-07 01:39:5740.4107-2.644581006711609Clb=-5.2m/s p=208.9hPa t=-61.2C h=19.6% 403.000MHz Type=RS41-SGP TxOff=7h59m rdzTTGOsonde
EA4EKH-11U02301112022-12-07 01:39:5140.4109-2.64615834611653Clb=-5.1m/s t=-61.4C h=19.5% p=207.4hPa 403.000 MHz Type=RS41-SGP ser=U0230111 Radiosonde
EA4GBRU02301112022-12-07 01:39:4940.4109-2.64615834611653Clb=-5.1m/s t=-61.4C h=19.5% p=207.4hPa 403.001 MHz Type=RS41-SGP ser=U0230111 Radiosonde
EA4CP-14U02301112022-12-07 01:39:4640.4108-2.64663766511668Clb=-5.2m/s p=206.8hPa t=-61.5C h=26.7% 403.00MHz Type=RS41-SGP TxOff=8h00m batt=2.5V Details on http://radiosondy.info
EA4GBR-10U02301112022-12-07 01:39:3640.4106-2.64866917411713Clb=-5.2m/s p=205.4hPa t=-61.7C h=19.2% 403.000MHz Type=RS41-SGP TxOff=8h0m rdzTTGOsonde
EA4CP-14U02301112022-12-07 01:39:3040.4107-2.650081005611746Clb=-4.6m/s p=204.4hPa t=-61.7C h=25.4% 403.00MHz Type=RS41-SGP Details on http://radiosondy.info
EA4EKH-11U02301112022-12-07 01:39:2040.4106-2.65209756311803Clb=-5.1m/s t=-61.9C h=17.4% p=202.5hPa 403.000 MHz Type=RS41-SGP ser=U0230111 Radiosonde
EA4GBRU02301112022-12-07 01:39:1840.4106-2.65209756311803Clb=-5.1m/s t=-61.9C h=17.4% p=202.5hPa 403.001 MHz Type=RS41-SGP ser=U0230111 Radiosonde
EA4GBR-10U02301112022-12-07 01:39:1540.4105-2.65251786911813Clb=-5.0m/s p=202.1hPa t=-62.0C h=17.4% 403.000MHz Type=RS41-SGP TxOff=8h0m rdzTTGOsonde
EA4CP-14U02301112022-12-07 01:39:1440.4105-2.65296847411823Clb=-4.9m/s p=201.8hPa t=-61.9C h=24.1% 403.00MHz Type=RS41-SGP Details on http://radiosondy.info
EA4CP-14U02301112022-12-07 01:38:5840.4103-2.65689926711900Clb=-5.3m/s p=199.3hPa t=-61.6C h=21.0% 403.00MHz Type=RS41-SGP batt=2.4V Details on http://radiosondy.info
EA4GBR-10U02301112022-12-07 01:38:5440.4103-2.657661027611916Clb=-4.9m/s p=198.8hPa t=-61.4C h=13.8% 403.000MHz Type=RS41-SGP rdzTTGOsonde
EA4EKH-11U02301112022-12-07 01:38:4840.4106-2.659131025611950Clb=-4.6m/s t=-61.2C h=12.7% p=197.8hPa 403.000 MHz Type=RS41-SGP ser=U0230111 Radiosonde
EA4GBRU02301112022-12-07 01:38:4740.4106-2.65948955211959Clb=-4.5m/s t=-61.1C h=12.5% p=197.5hPa 403.001 MHz Type=RS41-SGP ser=U0230111 Radiosonde
EA4CP-14U02301112022-12-07 01:38:4340.4106-2.66001867211973Clb=-4.6m/s p=197.0hPa t=-60.7C h=17.5% 403.00MHz Type=RS41-SGP Details on http://radiosondy.info
EA4GBR-10U02301112022-12-07 01:38:3340.4105-2.66206947812017Clb=-4.8m/s p=195.6hPa t=-61.2C h=11.8% 403.000MHz Type=RS41-SGP rdzTTGOsonde
EA4CP-14U02301112022-12-07 01:38:2740.4107-2.663751047412051Clb=-4.8m/s p=194.6hPa t=-61.3C h=17.0% 403.00MHz Type=RS41-SGP Details on http://radiosondy.info
EA4EKH-11U02301112022-12-07 01:38:1740.4112-2.66611047212100Clb=-4.8m/s t=-61.1C h=9.9% p=193.1hPa 403.000 MHz Type=RS41-SGP ser=U0230111 Radiosonde
EA4GBRU02301112022-12-07 01:38:1640.4114-2.667221086912125Clb=-4.6m/s t=-60.9C h=9.3% p=192.3hPa 403.001 MHz Type=RS41-SGP ser=U0230111 Radiosonde
EA4CP-14U02301112022-12-07 01:38:1140.4115-2.667431106512130Clb=-4.4m/s p=192.1hPa t=-60.8C h=14.6% 403.00MHz Type=RS41-SGP batt=2.4V Details on http://radiosondy.info
EA4GBR-10U02301112022-12-07 01:38:1040.4115-2.667431116912130Clb=-4.5m/s p=192.2hPa t=-60.9C h=9.3% 403.000MHz Type=RS41-SGP rdzTTGOsonde
EA4CP-14U02301112022-12-07 01:37:5440.4125-2.670771164812213Clb=-5.0m/s p=189.5hPa t=-60.1C h=12.3% 403.00MHz Type=RS41-SGP Details on http://radiosondy.info
EA4GBR-10U02301112022-12-07 01:37:4940.4128-2.671371094612233Clb=-4.5m/s p=189.0hPa t=-60.2C h=7.4% 403.000MHz Type=RS41-SGP rdzTTGOsonde
EA4EKH-11U02301112022-12-07 01:37:4640.4129-2.671951014312253Clb=-4.7m/s t=-60.2C h=7.1% p=188.4hPa 403.000 MHz Type=RS41-SGP ser=U0230111 Radiosonde
EA4GBRU02301112022-12-07 01:37:4540.4129-2.67223974412263Clb=-4.9m/s t=-60.2C h=7.0% p=188.0hPa 403.001 MHz Type=RS41-SGP ser=U0230111 Radiosonde
EA4CP-14U02301112022-12-07 01:37:3840.413-2.67313914412295Clb=-4.6m/s p=187.1hPa t=-60.2C h=11.2% 403.00MHz Type=RS41-SGP Details on http://radiosondy.info
EA4GBR-10U02301112022-12-07 01:37:2740.4129-2.67463854312346Clb=-5.1m/s p=185.6hPa t=-60.1C h=6.1% 403.000MHz Type=RS41-SGP rdzTTGOsonde
EA4CP-14U02301112022-12-07 01:37:2240.4128-2.67546804312377Clb=-4.9m/s p=184.6hPa t=-60.0C h=10.5% 403.00MHz Type=RS41-SGP TxOff=8h02m batt=2.4V Details on http://radiosondy.info
EA4EKH-11U02301112022-12-07 01:37:1540.4127-2.67639743712411Clb=-4.7m/s t=-58.6C h=4.9% p=183.7hPa 403.000 MHz Type=RS41-SGP ser=U0230111 Radiosonde
EA4GBRU02301112022-12-07 01:37:1440.4126-2.67664654412422Clb=-4.6m/s t=-58.5C h=4.9% p=183.4hPa 403.001 MHz Type=RS41-SGP ser=U0230111 Radiosonde
EA4CP-14U02301112022-12-07 01:37:0740.4123-2.67751655912453Clb=-4.7m/s p=182.4hPa t=-58.3C h=8.7% 403.00MHz Type=RS41-SGP Details on http://radiosondy.info
EA4CP-14U02301112022-12-07 01:36:5140.4119-2.68055854312532Clb=-4.8m/s p=180.1hPa t=-58.5C h=8.9% 403.00MHz Type=RS41-SGP Details on http://radiosondy.info
EA4GBR-10U02301112022-12-07 01:36:4740.4118-2.68094743712548Clb=-5.2m/s p=179.7hPa t=-58.5C h=4.8% 403.000MHz Type=RS41-SGP TxOff=8h3m rdzTTGOsonde
EA4EKH-11U02301112022-12-07 01:36:4440.4117-2.68141613912568Clb=-5.2m/s t=-58.6C h=4.8% p=179.1hPa 403.000 MHz Type=RS41-SGP ser=U0230111 Radiosonde
EA4GBRU02301112022-12-07 01:36:4340.4116-2.68164564312578Clb=-5.2m/s t=-58.7C h=4.7% p=178.8hPa 403.001 MHz Type=RS41-SGP ser=U0230111 Radiosonde
EA4CP-14U02301112022-12-07 01:36:3640.4111-2.68249576312611Clb=-5.7m/s p=177.9hPa t=-58.7C h=8.5% 403.00MHz Type=RS41-SGP batt=2.4V Details on http://radiosondy.info
EA4GBR-10U02301112022-12-07 01:36:2540.4106-2.68451846112664Clb=-4.7m/s p=176.5hPa t=-58.6C h=4.3% 403.000MHz Type=RS41-SGP rdzTTGOsonde
EA4CP-14U02301112022-12-07 01:36:2040.4105-2.68555825712696Clb=-5.0m/s p=175.6hPa t=-58.8C h=8.0% 403.00MHz Type=RS41-SGP Details on http://radiosondy.info
EA4EKH-11U02301112022-12-07 01:36:1340.4101-2.68651555712732Clb=-4.8m/s t=-59.0C h=4.1% p=174.6hPa 403.000 MHz Type=RS41-SGP ser=U0230111 Radiosonde
EA4GBRU02301112022-12-07 01:36:1240.41-2.68685556312742Clb=-5.3m/s t=-59.1C h=4.0% p=174.3hPa 403.001 MHz Type=RS41-SGP ser=U0230111 Radiosonde
EA4GBR-10U02301112022-12-07 01:36:0440.4095-2.68811777212774Clb=-4.7m/s p=173.4hPa t=-59.3C h=4.1% 403.000MHz Type=RS41-SGP rdzTTGOsonde
EA4CP-14U02301112022-12-07 01:35:4840.4092-2.69145817212862Clb=-5.0m/s p=171.0hPa t=-59.0C h=7.6% 403.00MHz Type=RS41-SGP batt=2.4V Details on http://radiosondy.info
EA4GBR-10U02301112022-12-07 01:35:4340.4091-2.69235797012883Clb=-5.0m/s p=170.4hPa t=-58.6C h=3.5% 403.000MHz Type=RS41-SGP rdzTTGOsonde
EA4EKH-11U02301112022-12-07 01:35:4240.409-2.6928807212894Clb=-5.1m/s t=-58.4C h=3.4% p=170.2hPa 403.000 MHz Type=RS41-SGP ser=U0230111 Radiosonde
EA4GBRU02301112022-12-07 01:35:4040.409-2.69327807212905Clb=-5.3m/s t=-58.1C h=3.4% p=169.9hPa 403.001 MHz Type=RS41-SGP ser=U0230111 Radiosonde
EA4CP-14U02301112022-12-07 01:35:3340.4087-2.69492826912943Clb=-5.0m/s p=168.8hPa t=-57.9C h=6.7% 403.00MHz Type=RS41-SGP Details on http://radiosondy.info
EA4GBR-10U02301112022-12-07 01:35:2340.4087-2.69718966712993Clb=-4.8m/s p=167.5hPa t=-58.1C h=3.2% 403.000MHz Type=RS41-SGP rdzTTGOsonde
EA4CP-14U02301112022-12-07 01:35:1840.4087-2.69827797213026Clb=-5.4m/s p=166.6hPa t=-58.0C h=6.7% 403.00MHz Type=RS41-SGP Details on http://radiosondy.info
EA4EKH-11U02301112022-12-07 01:35:1140.4083-2.6997777813063Clb=-4.8m/s t=-57.8C h=3.0% p=165.7hPa 403.000 MHz Type=RS41-SGP ser=U0230111 Radiosonde
EA4GBRU02301112022-12-07 01:35:0940.4083-2.70022838013073Clb=-4.9m/s t=-57.7C h=3.0% p=165.4hPa 403.001 MHz Type=RS41-SGP ser=U0230111 Radiosonde
EA4CP-14U02301112022-12-07 01:35:0340.4083-2.70175945613104Clb=-5.3m/s p=164.5hPa t=-57.6C h=6.3% 403.00MHz Type=RS41-SGP TxOff=8h04m batt=2.4V Details on http://radiosondy.info
EA4GBR-10U02301112022-12-07 01:35:0240.4083-2.70175957213105Clb=-5.4m/s p=164.6hPa t=-57.7C h=2.9% 403.000MHz Type=RS41-SGP rdzTTGOsonde
EA4CP-14U02301112022-12-07 01:34:4740.4083-2.70453756113193Clb=-5.4m/s p=162.2hPa t=-58.1C h=6.5% 403.00MHz Type=RS41-SGP Details on http://radiosondy.info
EA4GBR-10U02301112022-12-07 01:34:4140.4081-2.70531685913221Clb=-5.1m/s p=161.5hPa t=-58.4C h=3.1% 403.000MHz Type=RS41-SGP rdzTTGOsonde
EA4EKH-11U02301112022-12-07 01:34:4040.408-2.70568686313231Clb=-5.5m/s t=-58.5C h=3.1% p=161.2hPa 403.000 MHz Type=RS41-SGP ser=U0230111 Radiosonde
EA4GBRU02301112022-12-07 01:34:3840.4079-2.70608696713243Clb=-5.8m/s t=-58.5C h=3.1% p=161.0hPa 403.001 MHz Type=RS41-SGP ser=U0230111 Radiosonde
EA4CP-14U02301112022-12-07 01:34:3140.4076-2.70773866513283Clb=-5.6m/s p=159.9hPa t=-58.3C h=6.6% 403.00MHz Type=RS41-SGP Details on http://radiosondy.info
EA4GBR-10U02301112022-12-07 01:34:2040.4077-2.710091025913341Clb=-6.0m/s p=158.5hPa t=-58.5C h=2.9% 403.000MHz Type=RS41-SGP rdzTTGOsonde
EA4CP-14U02301112022-12-07 01:34:1540.4077-2.71108787213376Clb=-5.3m/s p=157.6hPa t=-58.8C h=6.5% 403.00MHz Type=RS41-SGP batt=2.5V Details on http://radiosondy.info
EA4GBRU02301112022-12-07 01:34:0740.4074-2.71279838013422Clb=-5.9m/s t=-59.1C h=3.1% p=156.5hPa 403.001 MHz Type=RS41-SGP ser=U0230111 Radiosonde
EA4GBR-10U02301112022-12-07 01:33:5940.4075-2.714661038013464Clb=-6.3m/s p=155.5hPa t=-59.4C h=3.0% 403.000MHz Type=RS41-SGP rdzTTGOsonde
EA4CP-14U02301112022-12-07 01:33:4340.4077-2.71788767413565Clb=-6.0m/s p=153.0hPa t=-59.6C h=6.6% 403.00MHz Type=RS41-SGP Details on http://radiosondy.info
EA4EKH-11U02301112022-12-07 01:33:3840.4074-2.71929828113602Clb=-5.8m/s t=-59.9C h=2.9% p=152.0hPa 403.000 MHz Type=RS41-SGP ser=U0230111 Radiosonde
EA4GBR-10U02301112022-12-07 01:33:3640.4074-2.71929848113603Clb=-5.8m/s p=152.0hPa t=-59.9C h=2.9% 403.000MHz Type=RS41-SGP rdzTTGOsonde
EA1JAY-16U02301112022-12-07 01:33:3340.4074-2.7201948113620Clb=-5.5m/s p=151.7hPa t=-60.1C h=3.2% 403.000MHz Type=RS41-SGP rdzTTGOsonde
EA4CP-14U02301112022-12-07 01:33:2740.4076-2.721691025213661Clb=-5.8m/s p=150.6hPa t=-59.7C h=7.1% 403.00MHz Type=RS41-SGP batt=2.4V Details on http://radiosondy.info
EA4GBR-10U02301112022-12-07 01:33:1440.4076-2.72364745413732Clb=-6.1m/s p=149.0hPa t=-59.2C h=2.9% 403.000MHz Type=RS41-SGP rdzTTGOsonde
EA4CP-14U02301112022-12-07 01:33:1340.4074-2.72419747213750Clb=-6.0m/s p=148.5hPa t=-59.1C h=6.5% 403.00MHz Type=RS41-SGP Details on http://radiosondy.info
EA1JAY-16U02301112022-12-07 01:33:1140.4074-2.72419746313750Clb=-6.1m/s p=148.6hPa t=-59.1C h=2.8% 403.000MHz Type=RS41-SGP rdzTTGOsonde
EA4EKH-11U02301112022-12-07 01:33:0740.4073-2.72556897413784Clb=-6.1m/s t=-58.9C h=2.9% p=147.7hPa 403.000 MHz Type=RS41-SGP ser=U0230111 Radiosonde
EA4GBRU02301112022-12-07 01:33:0540.4073-2.7258907413790Clb=-6.0m/s t=-58.9C h=2.9% p=147.6hPa 403.001 MHz Type=RS41-SGP ser=U0230111 Radiosonde
EA4CP-14U02301112022-12-07 01:32:5640.4076-2.727851125613847Clb=-6.3m/s p=146.2hPa t=-58.7C h=6.2% 403.00MHz Type=RS41-SGP Details on http://radiosondy.info
EA4GBR-10U02301112022-12-07 01:32:5440.4076-2.728031135413854Clb=-6.1m/s p=146.1hPa t=-58.7C h=2.6% 403.000MHz Type=RS41-SGP TxOff=8h7m rdzTTGOsonde
EA1JAY-16U02301112022-12-07 01:32:5040.4078-2.7286954313878Clb=-6.0m/s p=145.5hPa t=-58.5C h=2.6% 403.000MHz Type=RS41-SGP TxOff=8h7m rdzTTGOsonde
EA4CP-14U02301112022-12-07 01:32:4040.4076-2.73075945613945Clb=-5.5m/s p=143.9hPa t=-58.5C h=6.2% 403.00MHz Type=RS41-SGP TxOff=8h07m batt=2.4V Details on http://radiosondy.info
EA4EKH-11U02301112022-12-07 01:32:3640.4077-2.731651096713967Clb=-5.9m/s t=-58.6C h=2.5% p=143.5hPa 403.000 MHz Type=RS41-SGP ser=U0230111 Radiosonde
EA4GBR-10U02301112022-12-07 01:32:3440.4078-2.731851126513974Clb=-6.0m/s p=143.4hPa t=-58.6C h=2.7% 403.000MHz Type=RS41-SGP TxOff=8h7m rdzTTGOsonde
EA1JAY-16U02301112022-12-07 01:32:3040.408-2.732541175013999Clb=-5.9m/s p=142.8hPa t=-58.5C h=2.7% 403.000MHz Type=RS41-SGP TxOff=8h7m rdzTTGOsonde
EA4CP-14U02301112022-12-07 01:32:2540.4082-2.73327954814035Clb=-6.1m/s p=141.8hPa t=-58.7C h=6.0% 403.00MHz Type=RS41-SGP Details on http://radiosondy.info
EA4GBR-10U02301112022-12-07 01:32:1540.408-2.7347875914096Clb=-6.0m/s p=140.6hPa t=-59.0C h=2.7% 403.000MHz Type=RS41-SGP TxOff=8h7m rdzTTGOsonde
EA1JAY-16U02301112022-12-07 01:32:1040.408-2.735481005914120Clb=-5.8m/s p=140.0hPa t=-59.1C h=2.6% 403.000MHz Type=RS41-SGP TxOff=8h8m rdzTTGOsonde
EA4CP-14U02301112022-12-07 01:32:0940.4081-2.735851063714132Clb=-6.1m/s p=139.7hPa t=-59.1C h=6.2% 403.00MHz Type=RS41-SGP Details on http://radiosondy.info
EA4EKH-11U02301112022-12-07 01:32:0540.4083-2.736621164114163Clb=-6.3m/s t=-59.4C h=2.6% p=139.1hPa 403.000 MHz Type=RS41-SGP ser=U0230111 Radiosonde
EA4GBRU02301112022-12-07 01:32:0340.4084-2.736731163714169Clb=-6.2m/s t=-59.4C h=2.6% p=139.0hPa 403.001 MHz Type=RS41-SGP ser=U0230111 Radiosonde
EA4GBR-10U02301112022-12-07 01:31:5340.4084-2.73753732814222Clb=-6.1m/s p=137.8hPa t=-59.8C h=2.7% 403.000MHz Type=RS41-SGP rdzTTGOsonde
EA1JAY-16U02301112022-12-07 01:31:5040.4083-2.7378673114239Clb=-5.9m/s p=137.4hPa t=-59.9C h=2.9% 403.000MHz Type=RS41-SGP TxOff=8h8m rdzTTGOsonde
EA4CP-14U02301112022-12-07 01:31:3740.4077-2.73925605414323Clb=-6.5m/s p=135.5hPa t=-60.3C h=6.6% 403.00MHz Type=RS41-SGP Details on http://radiosondy.info
EA4EKH-11U02301112022-12-07 01:31:3440.4074-2.73992705914348Clb=-6.5m/s t=-60.4C h=2.9% p=135.1hPa 403.000 MHz Type=RS41-SGP ser=U0230111 Radiosonde
EA4GBR-10U02301112022-12-07 01:31:3240.4074-2.73992725914349Clb=-6.5m/s p=135.0hPa t=-60.4C h=2.9% 403.000MHz Type=RS41-SGP rdzTTGOsonde
EA1JAY-16U02301112022-12-07 01:31:2940.4073-2.74066875614373Clb=-5.7m/s p=134.7hPa t=-60.5C h=2.9% 403.000MHz Type=RS41-SGP TxOff=8h8m rdzTTGOsonde
LETO2-14U02301112022-12-07 01:31:2540.4073-2.74133924814395Clb=-5.7m/s p=134.0hPa t=-60.7C h=7.1% 403.00MHz Type=RS41-SGP Radiosonde Tracker +Info: 403MHz@gmail.com
EA4CP-14U02301112022-12-07 01:31:2140.4074-2.74195973714419Clb=-5.8m/s p=133.4hPa t=-60.9C h=7.2% 403.00MHz Type=RS41-SGP Details on http://radiosondy.info
LETO2-14U02301112022-12-07 01:31:1940.4074-2.74225993514432Clb=-6.2m/s p=133.2hPa t=-60.9C h=7.1% 403.00MHz Type=RS41-SGP TxOff=8h08m batt=2.4V Radiosonde Tracker +Info: 403MHz@gmail.com
EA4GBR-10U02301112022-12-07 01:31:0940.4075-2.74326682814488Clb=-6.0m/s p=132.0hPa t=-61.0C h=3.1% 403.000MHz Type=RS41-SGP TxOff=8h9m rdzTTGOsonde
EA1JAY-16U02301112022-12-07 01:31:0840.4074-2.74334613014494Clb=-5.9m/s p=131.9hPa t=-61.0C h=3.1% 403.000MHz Type=RS41-SGP TxOff=8h9m rdzTTGOsonde
EA4CP-14U02301112022-12-07 01:31:0540.4072-2.74373545614519Clb=-5.8m/s p=131.3hPa t=-61.0C h=7.4% 403.00MHz Type=RS41-SGP batt=2.5V Details on http://radiosondy.info
EA4EKH-11U02301112022-12-07 01:31:0340.407-2.74412585014537Clb=-6.1m/s t=-60.9C h=3.1% p=131.0hPa 403.000 MHz Type=RS41-SGP ser=U0230111 Radiosonde
EA4GBRU02301112022-12-07 01:31:0140.4069-2.74427605214543Clb=-6.2m/s t=-60.9C h=3.1% p=-1.0hPa 403.001 MHz Type=RS41 ser=U0230111 Radiosonde
EA4CP-14U02301112022-12-07 01:30:4940.4065-2.74649983714619Clb=-6.4m/s p=129.3hPa t=-60.9C h=7.1% 403.00MHz Type=RS41-SGP Details on http://radiosondy.info
EA1JAY-16U02301112022-12-07 01:30:4840.4065-2.74649985214619Clb=-6.4m/s p=129.3hPa t=-61.0C h=3.1% 403.000MHz Type=RS41-SGP TxOff=8h9m rdzTTGOsonde
EA4GBR-10U02301112022-12-07 01:30:4740.4066-2.746651004614626Clb=-6.2m/s p=129.2hPa t=-61.0C h=3.1% 403.000MHz Type=RS41-SGP TxOff=8h9m rdzTTGOsonde
EA4CP-14U02301112022-12-07 01:30:3340.4061-2.74833635614720Clb=-6.4m/s p=127.2hPa t=-61.2C h=7.4% 403.00MHz Type=RS41-SGP Details on http://radiosondy.info
EA4EKH-11U02301112022-12-07 01:30:3240.406-2.74888726314740Clb=-6.8m/s t=-61.3C h=3.1% p=126.8hPa 403.000 MHz Type=RS41-SGP ser=U0230111 Radiosonde
EA4GBRU02301112022-12-07 01:30:3040.4059-2.74909756314746Clb=-6.7m/s t=-273.0C h=-1.0% p=-1.0hPa 403.001 MHz Type=RS41 ser=U0230111 Radiosonde
EA1JAY-16U02301112022-12-07 01:30:2840.4059-2.74908766514747Clb=-6.7m/s p=126.7hPa t=-61.3C h=3.1% 403.000MHz Type=RS41-SGP TxOff=8h10m rdzTTGOsonde
EA4GBR-10U02301112022-12-07 01:30:2440.4058-2.74992906114772Clb=-6.3m/s p=126.1hPa t=-61.4C h=3.2% 403.000MHz Type=RS41-SGP TxOff=8h10m rdzTTGOsonde
EA4CP-14U02301112022-12-07 01:30:1740.4059-2.75113873914822Clb=-6.5m/s p=125.1hPa t=-61.7C h=7.6% 403.00MHz Type=RS41-SGP TxOff=8h09m batt=2.5V Details on http://radiosondy.info
EA1JAY-16U02301112022-12-07 01:30:0840.4056-2.75187524114874Clb=-6.9m/s p=124.1hPa t=-61.9C h=3.3% 403.000MHz Type=RS41-SGP TxOff=8h10m rdzTTGOsonde
EA4GBR-10U02301112022-12-07 01:30:0340.4052-2.75273686114914Clb=-6.6m/s p=123.3hPa t=-62.0C h=3.3% 403.000MHz Type=RS41-SGP TxOff=8h10m rdzTTGOsonde
EA4CP-14U02301112022-12-07 01:30:0140.4051-2.75312774614926Clb=-6.4m/s p=123.0hPa t=-62.0C h=7.6% 403.00MHz Type=RS41-SGP Details on http://radiosondy.info
EA1JAY-16U02301112022-12-07 01:29:4740.4051-2.75503842415013Clb=-6.6m/s p=121.4hPa t=-62.6C h=3.4% 403.000MHz Type=RS41-SGP TxOff=8h10m rdzTTGOsonde
EA4CP-14U02301112022-12-07 01:29:4640.4051-2.75519644815025Clb=-6.4m/s p=121.1hPa t=-62.5C h=7.9% 403.00MHz Type=RS41-SGP Details on http://radiosondy.info
EA4GBR-10U02301112022-12-07 01:29:4140.4048-2.75566534415057Clb=-6.6m/s p=120.5hPa t=-62.5C h=3.4% 403.000MHz Type=RS41-SGP rdzTTGOsonde
EA4CP-14U02301112022-12-07 01:29:3040.4041-2.75747755615131Clb=-6.7m/s p=119.0hPa t=-62.5C h=7.8% 403.00MHz Type=RS41-SGP batt=2.5V Details on http://radiosondy.info
EA4EKH-11U02301112022-12-07 01:29:2940.404-2.75769776715138Clb=-6.6m/s t=-62.6C h=3.4% p=118.9hPa 403.000 MHz Type=RS41-SGP ser=U0230111 Radiosonde
EA1JAY-16U02301112022-12-07 01:29:2340.404-2.75876946315172Clb=-7.0m/s p=118.3hPa t=-62.8C h=3.2% 403.000MHz Type=RS41-SGP TxOff=8h11m rdzTTGOsonde
EA4GBR-10U02301112022-12-07 01:29:1940.404-2.75964974315206Clb=-6.7m/s p=117.6hPa t=-62.7C h=3.3% 403.000MHz Type=RS41-SGP rdzTTGOsonde
EA4CP-14U02301112022-12-07 01:29:1440.404-2.76024666115238Clb=-6.4m/s p=117.0hPa t=-62.8C h=8.1% 403.00MHz Type=RS41-SGP Details on http://radiosondy.info
EA1JAY-16U02301112022-12-07 01:29:0340.4033-2.76197767215304Clb=-6.3m/s p=115.8hPa t=-62.9C h=3.5% 403.000MHz Type=RS41-SGP TxOff=8h11m rdzTTGOsonde
EA4EKH-11U02301112022-12-07 01:28:5840.4032-2.76338867215341Clb=-6.5m/s t=-63.1C h=3.5% p=115.1hPa 403.000 MHz Type=RS41-SGP ser=U0230111 Radiosonde
EA4CP-14U02301112022-12-07 01:28:4340.4033-2.76661965915439Clb=-6.4m/s p=113.2hPa t=-62.7C h=7.9% 403.00MHz Type=RS41-SGP batt=2.5V Details on http://radiosondy.info
EA1JAY-16U02301112022-12-07 01:28:3940.4033-2.76725996515459Clb=-6.7m/s p=112.9hPa t=-62.7C h=3.4% 403.000MHz Type=RS41-SGP rdzTTGOsonde
LETO2-14U02301112022-12-07 01:28:3340.4035-2.768551045215504Clb=-6.2m/s p=112.0hPa t=-62.5C h=7.9% 403.00MHz Type=RS41-SGP Radiosonde Tracker +Info: 403MHz@gmail.com
EA4CP-14U02301112022-12-07 01:28:2840.4037-2.769341113715538Clb=-6.7m/s p=111.4hPa t=-62.5C h=7.9% 403.00MHz Type=RS41-SGP Details on http://radiosondy.info
EA4EKH-11U02301112022-12-07 01:28:2740.4038-2.769491115015544Clb=-6.8m/s t=-62.6C h=3.4% p=111.3hPa 403.000 MHz Type=RS41-SGP ser=U0230111 Radiosonde
LETO2-14U02301112022-12-07 01:28:2440.4039-2.769921163515565Clb=-6.7m/s p=110.9hPa t=-62.5C h=8.0% 403.00MHz Type=RS41-SGP batt=2.4V Radiosonde Tracker +Info: 403MHz@gmail.com
EA1JAY-16U02301112022-12-07 01:28:1840.4041-2.770461082815600Clb=-6.7m/s p=110.4hPa t=-62.8C h=3.4% 403.000MHz Type=RS41-SGP rdzTTGOsonde
LETO2-14U02301112022-12-07 01:28:1440.404-2.77088683515634Clb=-6.6m/s p=109.7hPa t=-62.4C h=7.7% 403.00MHz Type=RS41-SGP Radiosonde Tracker +Info: 403MHz@gmail.com
EA4CP-14U02301112022-12-07 01:28:1240.404-2.77112714815647Clb=-6.6m/s p=109.5hPa t=-62.5C h=7.9% 403.00MHz Type=RS41-SGP Details on http://radiosondy.info
LETO2-14U02301112022-12-07 01:28:0640.4039-2.772171005015686Clb=-6.8m/s p=108.8hPa t=-62.0C h=7.5% 403.00MHz Type=RS41-SGP Radiosonde Tracker +Info: 403MHz@gmail.com
EA1JAY-16U02301112022-12-07 01:27:5740.4043-2.773271323315739Clb=-6.4m/s p=107.9hPa t=-62.4C h=3.2% 403.000MHz Type=RS41-SGP TxOff=8h12m rdzTTGOsonde
EA4EKH-11U02301112022-12-07 01:27:5640.4044-2.773411332415752Clb=-6.2m/s t=-62.4C h=3.2% p=107.7hPa 403.000 MHz Type=RS41-SGP ser=U0230111 Radiosonde
EA4CP-14U02301112022-12-07 01:27:4040.4043-2.77414453915857Clb=-6.9m/s p=105.8hPa t=-63.3C h=8.3% 403.00MHz Type=RS41-SGP Details on http://radiosondy.info
EA1JAY-16U02301112022-12-07 01:27:3540.4041-2.77435373015884Clb=-7.0m/s p=105.4hPa t=-63.2C h=3.5% 403.000MHz Type=RS41-SGP TxOff=8h12m rdzTTGOsonde
EA4EKH-11U02301112022-12-07 01:27:2540.4034-2.7756754815961Clb=-6.9m/s t=-63.0C h=3.3% p=104.1hPa 403.000 MHz Type=RS41-SGP ser=U0230111 Radiosonde
EA4CP-14U02301112022-12-07 01:27:2440.4034-2.77575823015968Clb=-6.4m/s p=103.9hPa t=-63.0C h=7.8% 403.00MHz Type=RS41-SGP Details on http://radiosondy.info
EA1JAY-16U02301112022-12-07 01:27:1540.4034-2.77662881916022Clb=-7.0m/s p=103.1hPa t=-63.4C h=3.4% 403.000MHz Type=RS41-SGP TxOff=8h12m rdzTTGOsonde
EA4CP-14U02301112022-12-07 01:27:0840.403-2.77709415916076Clb=-6.6m/s p=102.1hPa t=-63.5C h=8.2% 403.00MHz Type=RS41-SGP batt=2.6V Details on http://radiosondy.info
EA1JAY-16U02301112022-12-07 01:26:5440.4021-2.77921806516164Clb=-7.0m/s p=100.7hPa t=-63.8C h=3.5% 403.000MHz Type=RS41-SGP TxOff=8h13m rdzTTGOsonde
EA4CP-14U02301112022-12-07 01:26:5240.402-2.77985846916185Clb=-6.8m/s p=100.3hPa t=-63.7C h=8.4% 403.00MHz Type=RS41-SGP Details on http://radiosondy.info
EA4CP-14U02301112022-12-07 01:26:3640.4021-2.783431016916298Clb=-7.0m/s p=98.5hPa t=-63.7C h=8.3% 403.00MHz Type=RS41-SGP Details on http://radiosondy.info
EA1JAY-16U02301112022-12-07 01:26:3440.4022-2.783661037016305Clb=-7.1m/s p=98.5hPa t=-63.7C h=3.4% 403.000MHz Type=RS41-SGP TxOff=8h13m rdzTTGOsonde
EA4EKH-11U02301112022-12-07 01:26:2340.4029-2.786221226716391Clb=-7.7m/s t=-63.5C h=3.4% p=97.1hPa 403.000 MHz Type=RS41-SGP ser=U0230111 Radiosonde
EA4CP-14U02301112022-12-07 01:26:2040.4032-2.78671334316415Clb=-7.8m/s p=96.7hPa t=-63.2C h=8.2% 403.00MHz Type=RS41-SGP batt=2.6V Details on http://radiosondy.info
EA1JAY-16U02301112022-12-07 01:26:1340.4036-2.787271262816459Clb=-7.7m/s p=96.0hPa t=-63.2C h=3.3% 403.000MHz Type=RS41-SGP TxOff=8h14m rdzTTGOsonde
EA4CP-14U02301112022-12-07 01:26:0540.4038-2.788471094116528Clb=-7.2m/s p=94.9hPa t=-63.1C h=8.0% 403.00MHz Type=RS41-SGP Details on http://radiosondy.info
EA1JAY-16U02301112022-12-07 01:25:5240.4047-2.789661531716618Clb=-7.6m/s p=93.6hPa t=-62.7C h=3.2% 403.000MHz Type=RS41-SGP TxOff=8h14m rdzTTGOsonde
EA4CP-14U02301112022-12-07 01:25:4940.4047-2.78982704416649Clb=-7.7m/s p=93.1hPa t=-62.9C h=7.8% 403.00MHz Type=RS41-SGP Details on http://radiosondy.info
EA4CP-14U02301112022-12-07 01:25:3340.4051-2.791921383116770Clb=-7.7m/s p=91.3hPa t=-63.4C h=8.1% 403.00MHz Type=RS41-SGP TxOff=8h14m batt=2.5V Details on http://radiosondy.info
EA1JAY-16U02301112022-12-07 01:25:3240.4051-2.791921392416770Clb=-7.7m/s p=91.3hPa t=-63.5C h=3.3% 403.000MHz Type=RS41-SGP TxOff=8h14m rdzTTGOsonde
EA4EKH-11U02301112022-12-07 01:25:2140.4048-2.79296715216868Clb=-7.1m/s t=-63.6C h=3.1% p=89.8hPa 403.000 MHz Type=RS41-SGP ser=U0230111 Radiosonde
EA4CP-14U02301112022-12-07 01:25:1740.4047-2.7935883716891Clb=-7.4m/s p=89.4hPa t=-63.8C h=7.9% 403.00MHz Type=RS41-SGP Details on http://radiosondy.info
EA1JAY-16U02301112022-12-07 01:25:1240.4048-2.794241085416922Clb=-8.0m/s p=89.1hPa t=-63.9C h=3.3% 403.000MHz Type=RS41-SGP TxOff=8h15m rdzTTGOsonde
LETO2-14U02301112022-12-07 01:25:0540.4051-2.795051142816983Clb=-7.4m/s p=88.1hPa t=-64.2C h=8.7% 403.00MHz Type=RS41-SGP Radiosonde Tracker +Info: 403MHz@gmail.com
EA4CP-14U02301112022-12-07 01:25:0140.4051-2.79523424617013Clb=-7.8m/s p=87.7hPa t=-64.2C h=8.1% 403.00MHz Type=RS41-SGP Details on http://radiosondy.info
EA1JAY-16U02301112022-12-07 01:24:5140.4046-2.7964885617085Clb=-7.2m/s p=86.7hPa t=-64.0C h=3.4% 403.000MHz Type=RS41-SGP TxOff=8h15m rdzTTGOsonde
EA4EKH-11U02301112022-12-07 01:24:5040.4046-2.796881084317108Clb=-7.5m/s t=-64.0C h=3.3% p=86.4hPa 403.000 MHz Type=RS41-SGP ser=U0230111 Radiosonde
EA4CP-14U02301112022-12-07 01:24:4640.4047-2.797191232217130Clb=-7.7m/s p=86.1hPa t=-64.0C h=8.1% 403.00MHz Type=RS41-SGP batt=2.5V Details on http://radiosondy.info
EA1JAY-16U02301112022-12-07 01:24:3140.4043-2.79791624617245Clb=-7.9m/s p=84.5hPa t=-64.0C h=3.3% 403.000MHz Type=RS41-SGP rdzTTGOsonde
EA4EKH-11U02301112022-12-07 01:24:1940.4047-2.799741331317356Clb=-7.6m/s t=-64.1C h=3.3% p=83.0hPa 403.000 MHz Type=RS41-SGP ser=U0230111 Radiosonde
EA4CP-14U02301112022-12-07 01:24:1440.4047-2.79983534317379Clb=-7.9m/s p=82.6hPa t=-63.8C h=8.1% 403.00MHz Type=RS41-SGP Details on http://radiosondy.info
EA1JAY-16U02301112022-12-07 01:24:0940.4045-2.80008523917411Clb=-8.1m/s p=82.2hPa t=-63.2C h=2.9% 403.000MHz Type=RS41-SGP rdzTTGOsonde
EA4CP-14U02301112022-12-07 01:23:5940.4043-2.801781133117498Clb=-7.3m/s p=81.1hPa t=-63.7C h=7.8% 403.00MHz Type=RS41-SGP batt=2.6V Details on http://radiosondy.info
EA1JAY-16U02301112022-12-07 01:23:4840.4044-2.8023182417577Clb=-8.0m/s p=80.1hPa t=-63.7C h=3.0% 403.000MHz Type=RS41-SGP rdzTTGOsonde
EA4CP-14U02301112022-12-07 01:23:4140.4036-2.80285474417642Clb=-8.1m/s p=79.1hPa t=-63.8C h=7.8% 403.00MHz Type=RS41-SGP Details on http://radiosondy.info
EA1JAY-16U02301112022-12-07 01:23:2740.4033-2.80474941717749Clb=-8.3m/s p=77.8hPa t=-63.9C h=2.9% 403.000MHz Type=RS41-SGP TxOff=8h16m rdzTTGOsonde
EA4CP-14U02301112022-12-07 01:23:2540.4032-2.80486284817773Clb=-7.9m/s p=77.5hPa t=-63.9C h=8.0% 403.00MHz Type=RS41-SGP Details on http://radiosondy.info
EA4EKH-11U02301112022-12-07 01:23:1740.4024-2.80577656317846Clb=-8.1m/s t=-63.8C h=3.1% p=76.7hPa 403.000 MHz Type=RS41-SGP ser=U0230111 Radiosonde
EA4CP-14U02301112022-12-07 01:23:1040.4023-2.806961043517897Clb=-8.6m/s p=76.0hPa t=-63.3C h=7.6% 403.00MHz Type=RS41-SGP TxOff=8h16m batt=2.6V Details on http://radiosondy.info
EA1JAY-16U02301112022-12-07 01:23:0740.4025-2.80741264117923Clb=-8.6m/s p=75.7hPa t=-63.4C h=2.7% 403.000MHz Type=RS41-SGP TxOff=8h16m rdzTTGOsonde
LETO2-14U02301112022-12-07 01:23:0340.4027-2.807681261517957Clb=-8.5m/s p=75.2hPa t=-63.2C h=7.3% 403.00MHz Type=RS41-SGP Radiosonde Tracker +Info: 403MHz@gmail.com
EA4CP-14U02301112022-12-07 01:22:5440.4024-2.8085765218033Clb=-8.7m/s p=74.3hPa t=-63.2C h=7.4% 403.00MHz Type=RS41-SGP Details on http://radiosondy.info
LETO2-14U02301112022-12-07 01:22:4940.4024-2.809481105918075Clb=-8.4m/s p=73.8hPa t=-63.4C h=7.4% 403.00MHz Type=RS41-SGP TxOff=8h17m batt=2.5V Radiosonde Tracker +Info: 403MHz@gmail.com
EA4EKH-11U02301112022-12-07 01:22:4640.4027-2.810151335418109Clb=-8.4m/s t=-63.3C h=2.7% p=73.5hPa 403.000 MHz Type=RS41-SGP ser=U0230111 Radiosonde
LETO2-14U02301112022-12-07 01:22:4340.4029-2.810361472418126Clb=-9.0m/s p=73.2hPa t=-63.2C h=7.3% 403.00MHz Type=RS41-SGP Radiosonde Tracker +Info: 403MHz@gmail.com
EA4CP-14U02301112022-12-07 01:22:3840.4032-2.810531783918169Clb=-8.3m/s p=72.7hPa t=-63.3C h=7.1% 403.00MHz Type=RS41-SGP Details on http://radiosondy.info
EA1JAY-16U02301112022-12-07 01:22:2640.4032-2.811641165418273Clb=-8.7m/s p=71.5hPa t=-64.2C h=2.8% 403.000MHz Type=RS41-SGP TxOff=8h17m rdzTTGOsonde
EA4CP-14U02301112022-12-07 01:22:2040.4037-2.812211692618325Clb=-8.4m/s p=70.9hPa t=-64.7C h=7.9% 403.00MHz Type=RS41-SGP batt=2.5V Details on http://radiosondy.info
EA4EKH-11U02301112022-12-07 01:22:1540.4038-2.8121272018395Clb=-9.5m/s t=-64.8C h=2.7% p=70.1hPa 403.000 MHz Type=RS41-SGP ser=U0230111 Radiosonde
EA1JAY-16U02301112022-12-07 01:22:0540.4035-2.81261814618450Clb=-8.7m/s p=69.5hPa t=-65.2C h=2.7% 403.000MHz Type=RS41-SGP TxOff=8h17m rdzTTGOsonde
EA4CP-14U02301112022-12-07 01:22:0440.4035-2.812921013018468Clb=-8.9m/s p=69.2hPa t=-65.2C h=7.8% 403.00MHz Type=RS41-SGP Details on http://radiosondy.info
EA4CP-14U02301112022-12-07 01:21:4840.4033-2.8138524818610Clb=-9.6m/s p=67.7hPa t=-65.0C h=8.1% 403.00MHz Type=RS41-SGP Details on http://radiosondy.info
EA1JAY-16U02301112022-12-07 01:21:4440.4031-2.8143776118639Clb=-9.0m/s p=67.3hPa t=-64.9C h=2.8% 403.000MHz Type=RS41-SGP rdzTTGOsonde
LETO2-14U02301112022-12-07 01:21:4040.4032-2.815231155218684Clb=-9.3m/s p=66.8hPa t=-64.6C h=7.8% 403.00MHz Type=RS41-SGP Radiosonde Tracker +Info: 403MHz@gmail.com
LETO2-14U02301112022-12-07 01:21:3440.4036-2.81571161918742Clb=-9.5m/s p=66.1hPa t=-64.5C h=7.9% 403.00MHz Type=RS41-SGP batt=2.5V Radiosonde Tracker +Info: 403MHz@gmail.com
EA4CP-14U02301112022-12-07 01:21:3340.4036-2.815721654118751Clb=-9.0m/s p=66.0hPa t=-64.4C h=7.9% 403.00MHz Type=RS41-SGP batt=2.6V Details on http://radiosondy.info
EA1JAY-16U02301112022-12-07 01:21:2340.4033-2.81655895918835Clb=-9.8m/s p=65.3hPa t=-63.8C h=2.5% 403.000MHz Type=RS41-SGP rdzTTGOsonde
LETO2-14U02301112022-12-07 01:21:2040.4034-2.81731244618872Clb=-9.5m/s p=64.8hPa t=-63.4C h=7.3% 403.00MHz Type=RS41-SGP Radiosonde Tracker +Info: 403MHz@gmail.com
EA4CP-14U02301112022-12-07 01:21:1740.4037-2.817661463118902Clb=-10.1m/s p=64.5hPa t=-63.2C h=7.2% 403.00MHz Type=RS41-SGP Details on http://radiosondy.info
LETO2-14U02301112022-12-07 01:21:1440.4039-2.817771683318931Clb=-9.3m/s p=64.2hPa t=-63.1C h=7.0% 403.00MHz Type=RS41-SGP Radiosonde Tracker +Info: 403MHz@gmail.com
EA4EKH-11U02301112022-12-07 01:21:1340.4039-2.8177823418949Clb=-9.6m/s t=-63.1C h=2.4% p=64.1hPa 403.000 MHz Type=RS41-SGP ser=U0230111 Radiosonde
EA1JAY-16U02301112022-12-07 01:21:0340.4037-2.818651025219033Clb=-9.1m/s p=63.2hPa t=-62.7C h=2.3% 403.000MHz Type=RS41-SGP TxOff=8h19m rdzTTGOsonde
EA4CP-14U02301112022-12-07 01:21:0140.4037-2.818971213019051Clb=-9.1m/s p=63.0hPa t=-62.6C h=6.7% 403.00MHz Type=RS41-SGP Details on http://radiosondy.info
EA4CP-14U02301112022-12-07 01:20:4640.4044-2.81946544619191Clb=-9.2m/s p=61.5hPa t=-63.1C h=7.0% 403.00MHz Type=RS41-SGP TxOff=8h19m batt=2.5V Details on http://radiosondy.info
EA4EKH-11U02301112022-12-07 01:20:4240.4042-2.82013965219237Clb=-9.1m/s t=-63.0C h=2.3% p=61.1hPa 403.000 MHz Type=RS41-SGP ser=U0230111 Radiosonde
EA4CP-14U02301112022-12-07 01:20:2940.4052-2.821042313019352Clb=-9.8m/s p=59.9hPa t=-62.9C h=6.8% 403.00MHz Type=RS41-SGP Details on http://radiosondy.info
EA1JAY-16U02301112022-12-07 01:20:2240.405-2.82093432619408Clb=-9.5m/s p=59.5hPa t=-62.8C h=2.2% 403.000MHz Type=RS41-SGP TxOff=8h19m rdzTTGOsonde
EA4CP-14U02301112022-12-07 01:20:1440.4053-2.82181653319494Clb=-9.8m/s p=58.5hPa t=-63.4C h=7.1% 403.00MHz Type=RS41-SGP Details on http://radiosondy.info
EA4EKH-11U02301112022-12-07 01:20:1040.4055-2.821722421919534Clb=-9.5m/s t=-63.6C h=2.5% p=58.3hPa 403.000 MHz Type=RS41-SGP ser=U0230111 Radiosonde
EA4GBRU02301112022-12-07 01:20:0840.4055-2.82163071919553Clb=-9.6m/s t=-63.5C h=2.4% p=58.1hPa 403.001 MHz Type=RS41-SGP ser=U0230111 Radiosonde
EA1JAY-16U02301112022-12-07 01:20:0240.4051-2.82172474419611Clb=-9.6m/s p=57.6hPa t=-62.8C h=2.3% 403.000MHz Type=RS41-SGP TxOff=8h20m rdzTTGOsonde
EA4CP-14U02301112022-12-07 01:19:5840.4049-2.82232843319650Clb=-10.0m/s p=57.1hPa t=-62.7C h=6.9% 403.00MHz Type=RS41-SGP batt=2.5V Details on http://radiosondy.info
EA4CP-14U02301112022-12-07 01:19:4240.4049-2.82343455419809Clb=-10.0m/s p=55.7hPa t=-61.9C h=6.5% 403.00MHz Type=RS41-SGP Details on http://radiosondy.info
EA1JAY-16U02301112022-12-07 01:19:4140.4049-2.82343455019809Clb=-10.0m/s p=55.7hPa t=-61.9C h=2.1% 403.000MHz Type=RS41-SGP TxOff=8h20m rdzTTGOsonde
EA4EKH-11U02301112022-12-07 01:19:3940.4047-2.824691076119880Clb=-10.4m/s t=-62.1C h=2.0% p=55.1hPa 403.000 MHz Type=RS41-SGP ser=U0230111 Radiosonde
EA4GBRU02301112022-12-07 01:19:3740.4052-2.825351564119932Clb=-10.8m/s t=-62.4C h=2.0% p=54.6hPa 403.001 MHz Type=RS41-SGP ser=U0230111 Radiosonde
EA4CP-14U02301112022-12-07 01:19:2740.4054-2.825411853919963Clb=-10.4m/s p=54.3hPa t=-62.4C h=6.5% 403.00MHz Type=RS41-SGP Details on http://radiosondy.info
EA1JAY-16U02301112022-12-07 01:19:2040.4053-2.82564714120025Clb=-10.4m/s p=53.8hPa t=-62.3C h=2.1% 403.000MHz Type=RS41-SGP TxOff=8h21m rdzTTGOsonde
EA4CP-14U02301112022-12-07 01:19:1140.4059-2.827021733120128Clb=-10.3m/s p=52.9hPa t=-62.1C h=6.6% 403.00MHz Type=RS41-SGP batt=2.6V Details on http://radiosondy.info
EA4EKH-11U02301112022-12-07 01:19:0840.4062-2.826972083120160Clb=-10.7m/s t=-62.3C h=2.0% p=52.6hPa 403.000 MHz Type=RS41-SGP ser=U0230111 Radiosonde
EA4GBRU02301112022-12-07 01:19:0640.4063-2.826743091320201Clb=-10.8m/s t=-62.5C h=2.0% p=52.3hPa 403.001 MHz Type=RS41-SGP ser=U0230111 Radiosonde
EA1JAY-16U02301112022-12-07 01:18:5940.4062-2.82683653020244Clb=-10.0m/s p=51.9hPa t=-62.4C h=2.1% 403.000MHz Type=RS41-SGP TxOff=8h21m rdzTTGOsonde
EA4CP-14U02301112022-12-07 01:18:5540.4063-2.827451283320297Clb=-11.5m/s p=51.4hPa t=-62.4C h=6.4% 403.00MHz Type=RS41-SGP Details on http://radiosondy.info
LETO2-14U02301112022-12-07 01:18:5240.4066-2.827721646720331Clb=-10.4m/s p=51.1hPa t=-62.4C h=6.4% 403.00MHz Type=RS41-SGP batt=2.6V Radiosonde Tracker +Info: 403MHz@gmail.com
EA1JAY-16U02301112022-12-07 01:18:3840.4068-2.8276753920465Clb=-10.7m/s p=50.1hPa t=-63.1C h=2.1% 403.000MHz Type=RS41-SGP TxOff=8h21m rdzTTGOsonde
EA4EKH-11U02301112022-12-07 01:18:3740.4068-2.82787974620487Clb=-10.8m/s t=-63.2C h=2.1% p=50.0hPa 403.000 MHz Type=RS41-SGP ser=U0230111 Radiosonde
EA4GBRU02301112022-12-07 01:18:3540.4079-2.828762023920604Clb=-10.4m/s t=-63.2C h=2.1% p=49.0hPa 403.001 MHz Type=RS41-SGP ser=U0230111 Radiosonde
EA4CP-14U02301112022-12-07 01:18:2340.408-2.828562523720635Clb=-10.4m/s p=48.7hPa t=-63.1C h=7.0% 403.00MHz Type=RS41-SGP TxOff=8h21m batt=2.5V Details on http://radiosondy.info
EA1JAY-16U02301112022-12-07 01:18:1840.4079-2.82845182620677Clb=-10.5m/s p=48.4hPa t=-63.3C h=2.2% 403.000MHz Type=RS41-SGP TxOff=8h22m rdzTTGOsonde
EA4CP-14U02301112022-12-07 01:18:0840.4081-2.829661723520793Clb=-11.1m/s p=47.4hPa t=-62.6C h=7.0% 403.00MHz Type=RS41-SGP Details on http://radiosondy.info
EA4EKH-11U02301112022-12-07 01:18:0640.4083-2.829632003920816Clb=-11.3m/s t=-62.4C h=2.1% p=47.3hPa 403.000 MHz Type=RS41-SGP ser=U0230111 Radiosonde
EA4GBRU02301112022-12-07 01:18:0440.4085-2.82952352820837Clb=-10.7m/s t=-62.3C h=2.0% p=47.2hPa 403.001 MHz Type=RS41-SGP ser=U0230111 Radiosonde
EA1JAY-16U02301112022-12-07 01:17:5840.4084-2.82936373020887Clb=-11.3m/s p=46.8hPa t=-62.0C h=2.0% 403.000MHz Type=RS41-SGP TxOff=8h22m rdzTTGOsonde
EA4CP-14U02301112022-12-07 01:17:5340.4083-2.830191234320950Clb=-10.5m/s p=46.2hPa t=-61.4C h=6.2% 403.00MHz Type=RS41-SGP Details on http://radiosondy.info
EA4CP-14U02301112022-12-07 01:17:3840.4088-2.83011564121116Clb=-12.3m/s p=45.0hPa t=-61.9C h=6.1% 403.00MHz Type=RS41-SGP batt=2.5V Details on http://radiosondy.info
EA1JAY-16U02301112022-12-07 01:17:3740.4088-2.83011563921116Clb=-12.3m/s p=45.1hPa t=-61.9C h=1.9% 403.000MHz Type=RS41-SGP TxOff=8h22m rdzTTGOsonde
EA4EKH-11U02301112022-12-07 01:17:3540.4089-2.830811274821172Clb=-11.5m/s t=-62.4C h=1.9% p=44.7hPa 403.000 MHz Type=RS41-SGP ser=U0230111 Radiosonde
EA4GBRU02301112022-12-07 01:17:3340.4089-2.830811274821172Clb=-11.5m/s t=-62.4C h=1.9% p=44.7hPa 403.001 MHz Type=RS41-SGP ser=U0230111 Radiosonde
EA4CP-14U02301112022-12-07 01:17:2240.4093-2.830493484421295Clb=-12.4m/s p=43.7hPa t=-62.7C h=6.6% 403.00MHz Type=RS41-SGP Details on http://radiosondy.info
EA1JAY-16U02301112022-12-07 01:17:1640.409-2.83086755021352Clb=-11.9m/s p=43.3hPa t=-62.7C h=2.0% 403.000MHz Type=RS41-SGP TxOff=8h22m rdzTTGOsonde
EA4CP-14U02301112022-12-07 01:17:0740.4096-2.831612374321467Clb=-13.1m/s p=42.5hPa t=-62.6C h=6.5% 403.00MHz Type=RS41-SGP Details on http://radiosondy.info
EA4EKH-11U02301112022-12-07 01:17:0440.4094-2.8313393521527Clb=-12.7m/s t=-63.1C h=2.1% p=42.2hPa 403.000 MHz Type=RS41-SGP ser=U0230111 Radiosonde
EA1JAY-16U02301112022-12-07 01:16:5640.4092-2.83188955021588Clb=-12.5m/s p=41.8hPa t=-63.2C h=2.1% 403.000MHz Type=RS41-SGP TxOff=8h22m rdzTTGOsonde
EA4CP-14U02301112022-12-07 01:16:5240.4096-2.832481733721649Clb=-12.8m/s p=41.3hPa t=-63.0C h=6.7% 403.00MHz Type=RS41-SGP batt=2.6V Details on http://radiosondy.info
EA4GBR-10U02301112022-12-07 01:16:4840.4099-2.832272403721698Clb=-13.0m/s p=41.0hPa t=-62.8C h=2.0% 403.000MHz Type=RS41-SGP TxOff=8h23m rdzTTGOsonde
EA1JAY-16U02301112022-12-07 01:16:3740.4097-2.832461275021835Clb=-13.0m/s p=40.2hPa t=-63.4C h=2.1% 403.000MHz Type=RS41-SGP TxOff=8h23m rdzTTGOsonde
EA4CP-14U02301112022-12-07 01:16:3640.4098-2.832581404421847Clb=-13.6m/s p=40.0hPa t=-63.5C h=6.9% 403.00MHz Type=RS41-SGP Details on http://radiosondy.info
EA4EKH-11U02301112022-12-07 01:16:3440.4102-2.832761815421885Clb=-12.9m/s t=-63.5C h=2.1% p=39.9hPa 403.000 MHz Type=RS41-SGP ser=U0230111 Radiosonde
EA4GBRU02301112022-12-07 01:16:3240.4104-2.832682094821910Clb=-13.5m/s t=-63.3C h=2.0% p=39.6hPa 403.001 MHz Type=RS41-SGP ser=U0230111 Radiosonde
EA4GBR-10U02301112022-12-07 01:16:2640.4105-2.832193232821974Clb=-13.8m/s p=39.2hPa t=-63.2C h=2.1% 403.000MHz Type=RS41-SGP TxOff=8h23m rdzTTGOsonde
EA4CP-14U02301112022-12-07 01:16:2040.4102-2.83261884422052Clb=-13.5m/s p=38.7hPa t=-63.4C h=6.9% 403.00MHz Type=RS41-SGP Details on http://radiosondy.info
EA1JAY-16U02301112022-12-07 01:16:1540.4104-2.833241465622102Clb=-13.3m/s p=38.5hPa t=-62.7C h=2.0% 403.000MHz Type=RS41-SGP TxOff=8h23m rdzTTGOsonde
EA4CP-14U02301112022-12-07 01:16:0440.4109-2.83295475222260Clb=-13.9m/s p=37.4hPa t=-62.9C h=6.4% 403.00MHz Type=RS41-SGP TxOff=8h23m batt=2.6V Details on http://radiosondy.info
EA4GBR-10U02301112022-12-07 01:16:0340.4108-2.83306693922274Clb=-14.2m/s p=37.4hPa t=-63.1C h=2.0% 403.000MHz Type=RS41-SGP rdzTTGOsonde
EA4GBRU02301112022-12-07 01:16:0140.4109-2.83351205422312Clb=-13.7m/s t=-63.0C h=1.9% p=37.2hPa 403.001 MHz Type=RS41-SGP ser=U0230111 Radiosonde
EA1JAY-16U02301112022-12-07 01:15:5440.4115-2.833841946322379Clb=-14.0m/s p=36.7hPa t=-63.4C h=1.9% 403.000MHz Type=RS41-SGP rdzTTGOsonde
EA4CP-14U02301112022-12-07 01:15:5040.4119-2.83313274322472Clb=-14.5m/s p=36.2hPa t=-63.8C h=7.1% 403.00MHz Type=RS41-SGP Details on http://radiosondy.info
EA4GBR-10U02301112022-12-07 01:15:4540.4119-2.833621225722553Clb=-13.4m/s p=35.7hPa t=-63.4C h=2.1% 403.000MHz Type=RS41-SGP rdzTTGOsonde
EA1JAY-16U02301112022-12-07 01:15:3940.4127-2.833942194122647Clb=-14.0m/s p=35.2hPa t=-63.3C h=2.0% 403.000MHz Type=RS41-SGP rdzTTGOsonde
EA4CP-14U02301112022-12-07 01:15:3740.4128-2.833713065422687Clb=-14.0m/s p=34.9hPa t=-63.3C h=7.3% 403.00MHz Type=RS41-SGP Details on http://radiosondy.info
EA4GBRU02301112022-12-07 01:15:3440.4126-2.83386684422740Clb=-14.0m/s t=-62.9C h=2.0% p=34.7hPa 403.001 MHz Type=RS41-SGP ser=U0230111 Radiosonde
EA4GBR-10U02301112022-12-07 01:15:2840.4129-2.834941457622821Clb=-15.0m/s p=34.2hPa t=-62.1C h=1.9% 403.000MHz Type=RS41-SGP rdzTTGOsonde
EA4CP-14U02301112022-12-07 01:15:2440.4138-2.835042175022903Clb=-14.1m/s p=33.7hPa t=-61.7C h=6.5% 403.00MHz Type=RS41-SGP batt=2.6V Details on http://radiosondy.info
EA1JAY-16U02301112022-12-07 01:15:2140.4139-2.834863331122945Clb=-14.3m/s p=33.5hPa t=-61.2C h=1.8% 403.000MHz Type=RS41-SGP TxOff=8h25m rdzTTGOsonde
EA4CP-14U02301112022-12-07 01:15:1140.4148-2.836092054623125Clb=-15.0m/s p=32.5hPa t=-61.0C h=5.9% 403.00MHz Type=RS41-SGP Details on http://radiosondy.info
EA4GBRU02301112022-12-07 01:15:0840.4151-2.835752563723168Clb=-15.3m/s t=-61.2C h=1.7% p=32.3hPa 403.001 MHz Type=RS41-SGP ser=U0230111 Radiosonde
EA1JAY-16U02301112022-12-07 01:15:0440.415-2.83554372223226Clb=-14.5m/s p=32.1hPa t=-61.3C h=1.8% 403.000MHz Type=RS41-SGP TxOff=8h25m rdzTTGOsonde
EA4CP-14U02301112022-12-07 01:14:5740.4156-2.83651864623353Clb=-14.8m/s p=31.3hPa t=-61.0C h=5.9% 403.00MHz Type=RS41-SGP Details on http://radiosondy.info
EA4GBR-10U02301112022-12-07 01:14:5240.416-2.836112574623410Clb=-15.8m/s p=31.1hPa t=-61.0C h=1.6% 403.000MHz Type=RS41-SGP rdzTTGOsonde
EA1JAY-16U02301112022-12-07 01:14:4740.4156-2.83595914323530Clb=-15.2m/s p=30.5hPa t=-61.2C h=1.6% 403.000MHz Type=RS41-SGP TxOff=8h25m rdzTTGOsonde
EA4EKH-11U02301112022-12-07 01:14:4440.4159-2.836411645423588Clb=-15.6m/s t=-61.2C h=1.6% p=30.2hPa 403.000 MHz Type=RS41-SGP ser=U0230111 Radiosonde
EA4CP-14U02301112022-12-07 01:14:4340.4159-2.836411654823588Clb=-15.6m/s p=30.1hPa t=-61.1C h=5.9% 403.00MHz Type=RS41-SGP batt=2.5V Details on http://radiosondy.info
EA4GBRU02301112022-12-07 01:14:4240.4162-2.836421935623617Clb=-15.1m/s t=-61.2C h=1.6% p=30.1hPa 403.001 MHz Type=RS41-SGP ser=U0230111 Radiosonde
EA4GBR-10U02301112022-12-07 01:14:3540.4164-2.835683463523724Clb=-15.2m/s p=29.6hPa t=-61.4C h=1.8% 403.000MHz Type=RS41-SGP rdzTTGOsonde
EA4CP-14U02301112022-12-07 01:14:3240.4161-2.836311184823817Clb=-15.3m/s p=29.1hPa t=-61.6C h=6.4% 403.00MHz Type=RS41-SGP Details on http://radiosondy.info
EA1JAY-16U02301112022-12-07 01:14:3040.4163-2.836581525923846Clb=-15.6m/s p=29.0hPa t=-61.6C h=1.8% 403.000MHz Type=RS41-SGP rdzTTGOsonde
EA4CP-14U02301112022-12-07 01:14:1940.4168-2.83629925624048Clb=-17.3m/s p=28.0hPa t=-60.6C h=5.9% 403.00MHz Type=RS41-SGP Details on http://radiosondy.info
EA4GBR-10U02301112022-12-07 01:14:1840.4168-2.83629924824048Clb=-17.3m/s p=28.0hPa t=-60.7C h=1.7% 403.000MHz Type=RS41-SGP rdzTTGOsonde
EA4GBRU02301112022-12-07 01:14:1640.417-2.836781376324094Clb=-16.1m/s t=-60.6C h=1.6% p=27.9hPa 403.001 MHz Type=RS41-SGP ser=U0230111 Radiosonde
EA1JAY-16U02301112022-12-07 01:14:1240.4176-2.836962016124157Clb=-16.9m/s p=27.6hPa t=-60.4C h=1.6% 403.000MHz Type=RS41-SGP rdzTTGOsonde
EA4CP-14U02301112022-12-07 01:14:0640.4176-2.8361364824283Clb=-16.6m/s p=26.9hPa t=-60.6C h=6.0% 403.00MHz Type=RS41-SGP TxOff=8h26m batt=2.6V Details on http://radiosondy.info
EA4GBR-10U02301112022-12-07 01:13:5740.4177-2.836991724824409Clb=-16.7m/s p=26.5hPa t=-60.1C h=1.6% 403.000MHz Type=RS41-SGP rdzTTGOsonde
EA4CP-14U02301112022-12-07 01:13:5140.418-2.836253205224521Clb=-16.8m/s p=26.0hPa t=-60.0C h=5.6% 403.00MHz Type=RS41-SGP Details on http://radiosondy.info
EA4EKH-11U02301112022-12-07 01:13:5040.4177-2.8361425224554Clb=-16.7m/s t=-60.0C h=1.5% p=25.9hPa 403.000 MHz Type=RS41-SGP ser=U0230111 Radiosonde
EA4GBR-10U02301112022-12-07 01:13:3740.4181-2.836962534324763Clb=-17.4m/s p=25.0hPa t=-60.3C h=1.6% 403.000MHz Type=RS41-SGP rdzTTGOsonde
EA1JAY-16U02301112022-12-07 01:13:3340.4178-2.83655134824846Clb=-17.8m/s p=24.7hPa t=-60.2C h=1.5% 403.000MHz Type=RS41-SGP TxOff=8h27m rdzTTGOsonde
EA4CP-14U02301112022-12-07 01:13:2140.4184-2.837522305625041Clb=-17.3m/s p=23.9hPa t=-61.3C h=6.1% 403.00MHz Type=RS41-SGP batt=2.5V Details on http://radiosondy.info
EA4GBR-10U02301112022-12-07 01:13:1640.4183-2.83721263725128Clb=-18.2m/s p=23.6hPa t=-61.0C h=1.7% 403.000MHz Type=RS41-SGP rdzTTGOsonde
EA1JAY-16U02301112022-12-07 01:13:1340.4181-2.83762806925177Clb=-16.9m/s p=23.4hPa t=-60.9C h=1.6% 403.000MHz Type=RS41-SGP TxOff=8h27m rdzTTGOsonde
EA4CP-14U02301112022-12-07 01:13:0740.4188-2.838911845725312Clb=-17.3m/s p=22.9hPa t=-61.7C h=6.2% 403.00MHz Type=RS41-SGP Details on http://radiosondy.info
EA4GBR-10U02301112022-12-07 01:12:5640.4183-2.83963988025501Clb=-17.0m/s p=22.2hPa t=-61.1C h=1.6% 403.000MHz Type=RS41-SGP TxOff=8h28m rdzTTGOsonde
EA1JAY-16U02301112022-12-07 01:12:5440.4183-2.839881118125517Clb=-17.7m/s p=22.1hPa t=-61.1C h=1.6% 403.000MHz Type=RS41-SGP TxOff=8h28m rdzTTGOsonde
EA4EKH-11U02301112022-12-07 01:12:5140.4188-2.840531676525584Clb=-17.6m/s t=-61.5C h=1.6% p=21.9hPa 403.000 MHz Type=RS41-SGP ser=U0230111 Radiosonde
EA4CP-14U02301112022-12-07 01:12:3640.4195-2.842161485425862Clb=-18.5m/s p=21.0hPa t=-61.7C h=6.2% 403.00MHz Type=RS41-SGP batt=2.5V Details on http://radiosondy.info
EA1JAY-16U02301112022-12-07 01:12:3540.4197-2.842291608325880Clb=-19.1m/s p=20.9hPa t=-61.6C h=1.8% 403.000MHz Type=RS41-SGP TxOff=8h28m rdzTTGOsonde
EA4GBR-10U02301112022-12-07 01:12:3440.4198-2.842361717025898Clb=-18.3m/s p=20.9hPa t=-61.5C h=1.7% 403.000MHz Type=RS41-SGP TxOff=8h28m rdzTTGOsonde
EA4EKH-11U02301112022-12-07 01:12:2140.42-2.843271187426127Clb=-18.3m/s t=-61.7C h=1.7% p=20.1hPa 403.000 MHz Type=RS41-SGP ser=U0230111 Radiosonde
EA4CP-14U02301112022-12-07 01:12:2040.4201-2.843471305226145Clb=-17.6m/s p=20.0hPa t=-61.7C h=6.2% 403.00MHz Type=RS41-SGP Details on http://radiosondy.info
EA1JAY-16U02301112022-12-07 01:12:1340.421-2.843862044426253Clb=-18.9m/s p=19.7hPa t=-61.5C h=1.7% 403.000MHz Type=RS41-SGP TxOff=8h28m rdzTTGOsonde
EA4CP-14U02301112022-12-07 01:12:0640.4209-2.844451055426417Clb=-19.5m/s p=19.1hPa t=-61.7C h=6.5% 403.00MHz Type=RS41-SGP Details on http://radiosondy.info
EA4GBR-10U02301112022-12-07 01:12:0540.4209-2.844451057226417Clb=-19.5m/s p=19.2hPa t=-61.7C h=1.8% 403.000MHz Type=RS41-SGP TxOff=8h28m rdzTTGOsonde
EA1JAY-16U02301112022-12-07 01:11:5140.422-2.84502552626651Clb=-18.7m/s p=18.5hPa t=-60.9C h=1.6% 403.000MHz Type=RS41-SGP TxOff=8h28m rdzTTGOsonde
EA4EKH-11U02301112022-12-07 01:11:5040.4219-2.84524854426687Clb=-17.2m/s t=-61.1C h=1.6% p=18.4hPa 403.000 MHz Type=RS41-SGP ser=U0230111 Radiosonde
EA4CP-14U02301112022-12-07 01:11:4940.4219-2.8454964826704Clb=-16.3m/s p=18.3hPa t=-61.0C h=6.1% 403.00MHz Type=RS41-SGP TxPastBurst=8h30m batt=2.5V Details on http://radiosondy.info
EA4GBR-10U02301112022-12-07 01:11:4240.4224-2.846721248726796Clb=-17.4m/s p=18.1hPa t=-61.0C h=1.7% 403.000MHz Type=RS41-SGP TxOff=8h28m rdzTTGOsonde
EA3IK-13U02301112022-12-07 01:11:3640.4233-2.848331292626975Clb=-18.9m/s t=-273.0C h=-1.0% p=-1.0hPa 403.000 MHz Type=RS41 Radiosonde
EA1JAY-16U02301112022-12-07 01:11:3140.4234-2.848461393127014Clb=-19.2m/s p=17.5hPa t=-60.5C h=1.7% 403.000MHz Type=RS41-SGP TxOff=8h28m rdzTTGOsonde
EA4CP-14U02301112022-12-07 01:11:2540.4239-2.849051405627117Clb=-20.4m/s p=17.1hPa t=-59.8C h=5.7% 403.00MHz Type=RS41-SGP Details on http://radiosondy.info
EA4GBR-10U02301112022-12-07 01:11:2040.4243-2.849451353327195Clb=-21.7m/s p=16.9hPa t=-59.8C h=1.6% 403.000MHz Type=RS41-SGP TxOff=8h29m rdzTTGOsonde
EA4CP-14U02301112022-12-07 01:11:1140.4233-2.8511718327404Clb=-17.1m/s p=16.3hPa t=-60.0C h=5.7% 403.00MHz Type=RS41-SGP Details on http://radiosondy.info
EA1JAY-16U02301112022-12-07 01:11:1040.4233-2.85117210927404Clb=-17.1m/s p=16.4hPa t=-60.1C h=1.6% 403.000MHz Type=RS41-SGP TxOff=8h29m rdzTTGOsonde
EA4GBR-10U02301112022-12-07 01:10:5940.4238-2.85403463527638Clb=-20.0m/s p=15.7hPa t=-60.6C h=1.7% 403.000MHz Type=RS41-SGP TxOff=8h29m rdzTTGOsonde
EA4CP-14U02301112022-12-07 01:10:5640.4235-2.85456709127699Clb=-21.7m/s p=15.6hPa t=-60.7C h=6.4% 403.00MHz Type=RS41-SGP batt=2.6V Details on http://radiosondy.info
EA1JAY-16U02301112022-12-07 01:10:5040.4239-2.856561439127818Clb=-21.7m/s p=15.3hPa t=-60.7C h=1.8% 403.000MHz Type=RS41-SGP TxOff=8h29m rdzTTGOsonde
EA4CP-14U02301112022-12-07 01:10:4140.4241-2.85723608527998Clb=-18.2m/s p=14.8hPa t=-59.4C h=6.2% 403.00MHz Type=RS41-SGP Details on http://radiosondy.info
EA4GBR-10U02301112022-12-07 01:10:3640.4242-2.8590511612628101Clb=-23.2m/s p=14.7hPa t=-58.1C h=1.5% 403.000MHz Type=RS41-SGP rdzTTGOsonde
EA1JAY-16U02301112022-12-07 01:10:2140.4246-2.8629810614628429Clb=-19.7m/s p=13.9hPa t=-57.5C h=1.5% 403.000MHz Type=RS41-SGP rdzTTGOsonde
EA4EKH-11U02301112022-12-07 01:10:1940.425-2.8642412413128489Clb=-21.4m/s t=-57.2C h=1.4% p=13.8hPa 403.000 MHz Type=RS41-SGP ser=U0230111 Radiosonde
EA4GBR-10U02301112022-12-07 01:10:1440.4257-2.865351369328566Clb=-17.9m/s p=13.6hPa t=-56.7C h=1.4% 403.000MHz Type=RS41-SGP rdzTTGOsonde
EA1JAY-16U02301112022-12-07 01:10:0140.4273-2.867311137828835Clb=-56.5m/s p=13.2hPa t=-55.9C h=1.3% 403.000MHz Type=RS41-SGP rdzTTGOsonde
EA4GBR-10U02301112022-12-07 01:09:5040.4279-2.869591097229254Clb=-9.6m/s p=12.2hPa t=-56.2C h=1.3% 403.000MHz Type=RS41-SGP rdzTTGOsonde
EA4EKH-11U02301112022-12-07 01:09:4640.4282-2.87081088329245Clb=3.7m/s t=-56.2C h=1.3% p=12.2hPa 403.000 MHz Type=RS41-SGP ser=U0230111 Radiosonde
EA1JAY-16U02301112022-12-07 01:09:4040.4286-2.871941216729225Clb=4.0m/s p=12.2hPa t=-56.3C h=1.3% 403.000MHz Type=RS41-SGP rdzTTGOsonde
EA4CP-14U02301112022-12-07 01:09:3840.4287-2.872321167629218Clb=3.7m/s p=12.3hPa t=-56.3C h=4.9% 403.00MHz Type=RS41-SGP Details on http://radiosondy.info
EA4GBR-10U02301112022-12-07 01:09:2640.4294-2.874611157029179Clb=3.6m/s p=12.3hPa t=-56.3C h=1.3% 403.000MHz Type=RS41-SGP rdzTTGOsonde
EA4CP-14U02301112022-12-07 01:09:2140.4299-2.875961177629155Clb=3.7m/s p=12.3hPa t=-56.4C h=4.9% 403.00MHz Type=RS41-SGP batt=2.5V Details on http://radiosondy.info
EA1JAY-16U02301112022-12-07 01:09:1840.4301-2.876391207029147Clb=4.4m/s p=12.4hPa t=-56.4C h=1.4% 403.000MHz Type=RS41-SGP rdzTTGOsonde
EA4EKH-11U02301112022-12-07 01:09:1340.4306-2.877671188329123Clb=3.7m/s t=-56.3C h=1.3% p=12.5hPa 403.000 MHz Type=RS41-SGP ser=U0230111 Radiosonde
EA4CP-14U02301112022-12-07 01:09:0240.4314-2.879831176729082Clb=4.0m/s p=12.5hPa t=-56.1C h=4.9% 403.00MHz Type=RS41-SGP Details on http://radiosondy.info
EA1JAY-16U02301112022-12-07 01:08:5640.4318-2.880811177429061Clb=4.8m/s p=12.6hPa t=-56.1C h=1.3% 403.000MHz Type=RS41-SGP rdzTTGOsonde
EA4EKH-11U02301112022-12-07 01:08:4140.4329-2.883991136328996Clb=3.9m/s t=-55.8C h=1.2% p=12.7hPa 403.000 MHz Type=RS41-SGP ser=U0230111 Radiosonde
EA4GBR-10U02301112022-12-07 01:08:3940.4329-2.883991156528996Clb=3.9m/s p=12.7hPa t=-55.7C h=1.3% 403.000MHz Type=RS41-SGP rdzTTGOsonde
EA1JAY-16U02301112022-12-07 01:08:3540.4332-2.884741226728979Clb=3.2m/s p=12.7hPa t=-55.7C h=1.2% 403.000MHz Type=RS41-SGP rdzTTGOsonde
EA1JAY-16U02301112022-12-07 01:08:1440.4345-2.888771115928895Clb=4.1m/s p=12.9hPa t=-57.1C h=1.3% 403.000MHz Type=RS41-SGP rdzTTGOsonde
EA4EKH-11U02301112022-12-07 01:08:0940.435-2.890181168128866Clb=4.1m/s t=-57.9C h=1.4% p=13.0hPa 403.000 MHz Type=RS41-SGP ser=U0230111 Radiosonde
EA4GBR-10U02301112022-12-07 01:07:5840.4354-2.892161165728830Clb=4.4m/s p=13.0hPa t=-58.1C h=1.5% 403.000MHz Type=RS41-SGP rdzTTGOsonde
EA1JAY-16U02301112022-12-07 01:07:5240.4357-2.892871166728814Clb=4.4m/s p=13.1hPa t=-58.0C h=1.4% 403.000MHz Type=RS41-SGP rdzTTGOsonde
EA4EKH-11U02301112022-12-07 01:07:3540.4366-2.89651128028743Clb=4.6m/s t=-57.7C h=1.4% p=13.2hPa 403.000 MHz Type=RS41-SGP ser=U0230111 Radiosonde
EA4GBR-10U02301112022-12-07 01:07:3440.4366-2.89651138028743Clb=4.6m/s p=13.2hPa t=-57.7C h=1.4% 403.000MHz Type=RS41-SGP rdzTTGOsonde
EA1JAY-16U02301112022-12-07 01:07:3140.4368-2.897171127028731Clb=3.5m/s p=13.2hPa t=-57.6C h=1.5% 403.000MHz Type=RS41-SGP rdzTTGOsonde
EA4CP-14U02301112022-12-07 01:07:2140.4373-2.899381198728690Clb=3.6m/s p=13.3hPa t=-57.3C h=5.1% 403.00MHz Type=RS41-SGP Details on http://radiosondy.info
EA1JAY-16U02301112022-12-07 01:07:0640.4381-2.902091178028646Clb=3.8m/s p=13.5hPa t=-57.0C h=1.3% 403.000MHz Type=RS41-SGP rdzTTGOsonde
EA4CP-14U02301112022-12-07 01:07:0140.4386-2.903521108928624Clb=3.3m/s p=13.4hPa t=-56.9C h=4.9% 403.00MHz Type=RS41-SGP TxPastBurst=8h30m batt=2.6V Details on http://radiosondy.info
EA4EKH-11U02301112022-12-07 01:07:0040.4387-2.90411098528617Clb=4.3m/s t=-57.0C h=1.3% p=13.5hPa 403.000 MHz Type=RS41-SGP ser=U0230111 Radiosonde
EA4GBR-10U02301112022-12-07 01:06:4840.4395-2.906691099828575Clb=4.2m/s p=13.6hPa t=-57.3C h=1.3% 403.000MHz Type=RS41-SGP rdzTTGOsonde
EA1JAY-16U02301112022-12-07 01:06:4440.4397-2.907551128728562Clb=4.2m/s p=13.6hPa t=-57.4C h=1.3% 403.000MHz Type=RS41-SGP rdzTTGOsonde
EA4CP-14U02301112022-12-07 01:06:2740.4409-2.912531069328491Clb=4.3m/s p=13.7hPa t=-57.8C h=5.2% 403.00MHz Type=RS41-SGP Details on http://radiosondy.info
EA4EKH-11U02301112022-12-07 01:06:2640.441-2.912831049128486Clb=4.8m/s t=-57.9C h=1.4% p=13.8hPa 403.000 MHz Type=RS41-SGP ser=U0230111 Radiosonde
EA1JAY-16U02301112022-12-07 01:06:2340.4411-2.913391038328478Clb=4.0m/s p=13.8hPa t=-57.8C h=1.4% 403.000MHz Type=RS41-SGP rdzTTGOsonde
EA4CP-14U02301112022-12-07 01:06:0940.4415-2.91723998728422Clb=3.6m/s p=13.9hPa t=-57.6C h=5.1% 403.00MHz Type=RS41-SGP batt=2.5V Details on http://radiosondy.info
EA4GBR-10U02301112022-12-07 01:06:0240.4416-2.9186918328402Clb=3.7m/s p=14.0hPa t=-57.6C h=1.4% 403.000MHz Type=RS41-SGP rdzTTGOsonde
EA1JAY-16U02301112022-12-07 01:06:0040.4416-2.91916969328393Clb=4.0m/s p=14.0hPa t=-57.6C h=1.4% 403.000MHz Type=RS41-SGP rdzTTGOsonde
EA4CP-14U02301112022-12-07 01:05:5140.4419-2.92175938528356Clb=4.4m/s p=14.0hPa t=-57.6C h=5.0% 403.00MHz Type=RS41-SGP Details on http://radiosondy.info
EA1JAY-16U02301112022-12-07 01:05:3640.4422-2.92497959128306Clb=4.4m/s p=14.2hPa t=-58.2C h=1.4% 403.000MHz Type=RS41-SGP rdzTTGOsonde
EA4CP-14U02301112022-12-07 01:05:3340.4423-2.92587967828294Clb=4.6m/s p=14.2hPa t=-58.2C h=5.2% 403.00MHz Type=RS41-SGP Details on http://radiosondy.info
EA4CP-14U02301112022-12-07 01:05:1640.4425-2.92991957428226Clb=3.3m/s p=14.3hPa t=-58.6C h=5.3% 403.00MHz Type=RS41-SGP batt=2.5V Details on http://radiosondy.info
EA1JAY-16U02301112022-12-07 01:05:1440.4426-2.93045958028218Clb=5.1m/s p=14.4hPa t=-58.6C h=1.4% 403.000MHz Type=RS41-SGP rdzTTGOsonde
EA4GBR-9U02301112022-12-07 01:05:1140.4426-2.93094926928208Clb=4.5m/s p=14.4hPa t=-58.6C h=1.5% 403.000MHz Type=RS41-SGP rdzTTGOsonde
EA4CP-14U02301112022-12-07 01:04:5840.4427-2.93374936528156Clb=4.1m/s p=14.5hPa t=-58.4C h=5.2% 403.00MHz Type=RS41-SGP Details on http://radiosondy.info
EA1JAY-16U02301112022-12-07 01:04:5140.4427-2.93497935628131Clb=3.5m/s p=14.6hPa t=-58.3C h=1.4% 403.000MHz Type=RS41-SGP rdzTTGOsonde
EA4GBR-9U02301112022-12-07 01:04:4940.4427-2.935571036928117Clb=4.5m/s p=14.6hPa t=-58.4C h=1.3% 403.000MHz Type=RS41-SGP rdzTTGOsonde
EA4EKH-11U02301112022-12-07 01:04:4340.4429-2.93689936328092Clb=4.0m/s t=-58.9C h=1.4% p=14.7hPa 403.000 MHz Type=RS41-SGP ser=U0230111 Radiosonde
EA4CP-14U02301112022-12-07 01:04:4240.4429-2.93709936128087Clb=4.6m/s p=14.7hPa t=-59.0C h=5.2% 403.00MHz Type=RS41-SGP Details on http://radiosondy.info
EA1JAY-16U02301112022-12-07 01:04:2940.4431-2.939051126128044Clb=4.9m/s p=14.8hPa t=-59.9C h=1.5% 403.000MHz Type=RS41-SGP rdzTTGOsonde
EA4GBR-9U02301112022-12-07 01:04:2440.4433-2.939811045728027Clb=4.9m/s p=14.8hPa t=-59.8C h=1.5% 403.000MHz Type=RS41-SGP rdzTTGOsonde
EA4CP-14U02301112022-12-07 01:04:2140.4433-2.94034925228014Clb=3.7m/s p=14.8hPa t=-59.7C h=5.5% 403.00MHz Type=RS41-SGP TxPastBurst=8h30m batt=2.5V Details on http://radiosondy.info
EA4EKH-11U02301112022-12-07 01:04:0840.4437-2.94251965627958Clb=4.1m/s t=-60.1C h=1.5% p=15.0hPa 403.000 MHz Type=RS41-SGP ser=U0230111 Radiosonde
EA4GBR-10U02301112022-12-07 01:04:0540.4437-2.94285964827948Clb=5.0m/s p=15.0hPa t=-60.2C h=1.5% 403.000MHz Type=RS41-SGP rdzTTGOsonde
EA4GBR-9U02301112022-12-07 01:04:0240.4437-2.943291004427936Clb=4.1m/s p=15.1hPa t=-60.3C h=1.5% 403.000MHz Type=RS41-SGP rdzTTGOsonde
EA4CP-14U02301112022-12-07 01:03:4840.4441-2.945561095627875Clb=4.4m/s p=15.1hPa t=-60.6C h=5.8% 403.00MHz Type=RS41-SGP Details on http://radiosondy.info
EA1JAY-16U02301112022-12-07 01:03:4640.4442-2.94591005627865Clb=4.5m/s p=15.2hPa t=-60.7C h=1.5% 403.000MHz Type=RS41-SGP rdzTTGOsonde
EA4GBR-9U02301112022-12-07 01:03:4240.4443-2.946641035927849Clb=4.3m/s p=15.2hPa t=-60.8C h=1.6% 403.000MHz Type=RS41-SGP rdzTTGOsonde
EA4EKH-11U02301112022-12-07 01:03:3640.4445-2.94794994627818Clb=4.9m/s t=-60.7C h=1.5% p=15.3hPa 403.000 MHz Type=RS41-SGP ser=U0230111 Radiosonde
EA4CP-14U02301112022-12-07 01:03:3140.4446-2.948551056327801Clb=5.4m/s p=15.3hPa t=-60.7C h=5.9% 403.00MHz Type=RS41-SGP batt=2.6V Details on http://radiosondy.info
EA1JAY-16U02301112022-12-07 01:03:2440.4448-2.949861006127771Clb=5.1m/s p=15.5hPa t=-60.7C h=1.6% 403.000MHz Type=RS41-SGP rdzTTGOsonde
LETO2-14U02301112022-12-07 01:03:2340.4448-2.950211055227761Clb=5.4m/s p=15.4hPa t=-60.7C h=5.9% 403.00MHz Type=RS41-SGP Radiosonde Tracker +Info: 403MHz@gmail.com
EA4GBR-9U02301112022-12-07 01:03:2040.4449-2.950511135027751Clb=4.9m/s p=15.5hPa t=-60.8C h=1.6% 403.000MHz Type=RS41-SGP rdzTTGOsonde
LETO2-14U02301112022-12-07 01:03:1740.4451-2.951281057627730Clb=5.3m/s p=15.5hPa t=-60.7C h=5.8% 403.00MHz Type=RS41-SGP Radiosonde Tracker +Info: 403MHz@gmail.com
EA4CP-14U02301112022-12-07 01:03:1540.4452-2.9518997227721Clb=4.0m/s p=15.5hPa t=-60.7C h=5.9% 403.00MHz Type=RS41-SGP Details on http://radiosondy.info
EA1JAY-16U02301112022-12-07 01:03:0440.4454-2.95394956927674Clb=4.5m/s p=15.7hPa t=-60.8C h=1.6% 403.000MHz Type=RS41-SGP rdzTTGOsonde
EA4GBR-9U02301112022-12-07 01:03:0140.4455-2.954891027627655Clb=4.8m/s p=15.8hPa t=-60.6C h=1.6% 403.000MHz Type=RS41-SGP rdzTTGOsonde
EA4GBR-10U02301112022-12-07 01:02:5740.4456-2.95561967427642Clb=4.5m/s p=15.8hPa t=-60.5C h=1.6% 403.000MHz Type=RS41-SGP rdzTTGOsonde
EA1JAY-16U02301112022-12-07 01:02:4440.4455-2.9586897827583Clb=4.0m/s p=15.9hPa t=-60.2C h=1.6% 403.000MHz Type=RS41-SGP rdzTTGOsonde
EA4GBR-9U02301112022-12-07 01:02:4040.4455-2.95958917427564Clb=4.2m/s p=16.0hPa t=-60.2C h=1.6% 403.000MHz Type=RS41-SGP rdzTTGOsonde
EA4EKH-11U02301112022-12-07 01:02:3440.4453-2.96138838127533Clb=4.1m/s t=-60.1C h=1.5% p=16.1hPa 403.000 MHz Type=RS41-SGP ser=U0230111 Radiosonde
EA4CP-14U02301112022-12-07 01:02:2640.4453-2.96335837627495Clb=4.2m/s p=16.1hPa t=-59.9C h=5.7% 403.00MHz Type=RS41-SGP Details on http://radiosondy.info
EA1JAY-16U02301112022-12-07 01:02:2440.4453-2.96384817627486Clb=4.8m/s p=16.2hPa t=-59.9C h=1.6% 403.000MHz Type=RS41-SGP rdzTTGOsonde
EA4GBR-9U02301112022-12-07 01:02:1940.4452-2.96486838127468Clb=4.8m/s p=16.2hPa t=-59.9C h=1.5% 403.000MHz Type=RS41-SGP rdzTTGOsonde
EA4CP-14U02301112022-12-07 01:02:0740.4448-2.96804807627406Clb=5.5m/s p=16.3hPa t=-60.2C h=5.8% 403.00MHz Type=RS41-SGP Details on http://radiosondy.info
LETO2-14U02301112022-12-07 01:02:0440.4447-2.96882837427392Clb=4.1m/s p=16.4hPa t=-60.1C h=5.8% 403.00MHz Type=RS41-SGP TxPastBurst=8h30m batt=2.5V Radiosonde Tracker +Info: 403MHz@gmail.com
EA1JAY-16U02301112022-12-07 01:02:0240.4447-2.96907827627388Clb=4.8m/s p=16.4hPa t=-60.2C h=1.6% 403.000MHz Type=RS41-SGP rdzTTGOsonde
EA4GBR-9U02301112022-12-07 01:02:0040.4445-2.96979737627373Clb=4.5m/s p=16.4hPa t=-60.0C h=1.6% 403.000MHz Type=RS41-SGP rdzTTGOsonde
LETO2-14U02301112022-12-07 01:01:5040.444-2.97201806727327Clb=5.6m/s p=16.5hPa t=-59.7C h=5.5% 403.00MHz Type=RS41-SGP Radiosonde Tracker +Info: 403MHz@gmail.com
EA4CP-14U02301112022-12-07 01:01:4740.4439-2.97266846727313Clb=3.6m/s p=16.6hPa t=-59.7C h=5.6% 403.00MHz Type=RS41-SGP TxPastBurst=8h30m batt=2.5V Details on http://radiosondy.info
LETO2-14U02301112022-12-07 01:01:4440.4438-2.97327686727299Clb=5.2m/s p=16.6hPa t=-59.8C h=5.6% 403.00MHz Type=RS41-SGP Radiosonde Tracker +Info: 403MHz@gmail.com
EA1JAY-16U02301112022-12-07 01:01:4240.4437-2.97367657027290Clb=4.3m/s p=16.7hPa t=-59.9C h=1.5% 403.000MHz Type=RS41-SGP rdzTTGOsonde
EA4GBR-9U02301112022-12-07 01:01:3840.4435-2.97429786727275Clb=5.0m/s p=16.7hPa t=-59.9C h=1.5% 403.000MHz Type=RS41-SGP rdzTTGOsonde
EA4CP-14U02301112022-12-07 01:01:3240.4433-2.97575775427240Clb=4.9m/s p=16.8hPa t=-59.8C h=5.6% 403.00MHz Type=RS41-SGP Details on http://radiosondy.info
LETO2-14U02301112022-12-07 01:01:3140.4433-2.97614765027231Clb=4.4m/s p=16.8hPa t=-59.9C h=5.6% 403.00MHz Type=RS41-SGP Radiosonde Tracker +Info: 403MHz@gmail.com
EA4GBR-10U02301112022-12-07 01:01:3040.4433-2.97614775927231Clb=4.5m/s p=16.8hPa t=-59.9C h=1.5% 403.000MHz Type=RS41-SGP rdzTTGOsonde
EA1JAY-16U02301112022-12-07 01:01:2040.4431-2.97756974827188Clb=4.7m/s p=17.0hPa t=-59.9C h=1.5% 403.000MHz Type=RS41-SGP rdzTTGOsonde
LETO2-14U02301112022-12-07 01:01:1840.4431-2.97804814627174Clb=4.3m/s p=17.0hPa t=-59.9C h=5.7% 403.00MHz Type=RS41-SGP Radiosonde Tracker +Info: 403MHz@gmail.com
EA4GBR-9U02301112022-12-07 01:01:1740.4431-2.97804815027174Clb=4.3m/s p=17.0hPa t=-60.0C h=1.5% 403.000MHz Type=RS41-SGP rdzTTGOsonde
EA4CP-14U02301112022-12-07 01:01:0240.4431-2.9805944327096Clb=4.4m/s p=17.2hPa t=-59.6C h=5.4% 403.00MHz Type=RS41-SGP batt=2.5V Details on http://radiosondy.info
EA4EKH-11U02301112022-12-07 01:01:0140.4431-2.980751013727087Clb=5.3m/s t=-59.7C h=1.4% p=17.3hPa 403.000 MHz Type=RS41-SGP ser=U0230111 Radiosonde
EA1JAY-16U02301112022-12-07 01:00:5940.4431-2.980751023927087Clb=5.3m/s p=17.3hPa t=-59.7C h=1.5% 403.000MHz Type=RS41-SGP rdzTTGOsonde
EA4GBR-9U02301112022-12-07 01:00:5640.4432-2.981111144127073Clb=4.3m/s p=17.3hPa t=-59.6C h=1.5% 403.000MHz Type=RS41-SGP rdzTTGOsonde
EA4CP-14U02301112022-12-07 01:00:5440.4436-2.982411164627023Clb=4.4m/s p=17.4hPa t=-60.1C h=5.4% 403.00MHz Type=RS41-SGP Details on http://radiosondy.info
EA4EKH-11U02301112022-12-07 01:00:5340.4449-2.984531434826935Clb=4.4m/s t=-61.0C h=1.5% p=17.7hPa 403.000 MHz Type=RS41-SGP ser=U0230111 Radiosonde
EA4CP-14U02301112022-12-07 01:00:5240.4472-2.987741364126798Clb=4.6m/s p=18.0hPa t=-60.9C h=5.9% 403.00MHz Type=RS41-SGP Details on http://radiosondy.info
EA4CP-14U02301112022-12-07 01:00:5140.4483-2.98911374126724Clb=4.3m/s p=18.3hPa t=-60.9C h=6.0% 403.00MHz Type=RS41-SGP Details on http://radiosondy.info
EA4EKH-11U02301112022-12-07 01:00:5040.4496-2.990761344426636Clb=4.9m/s t=-60.7C h=1.6% p=18.5hPa 403.000 MHz Type=RS41-SGP ser=U0230111 Radiosonde
EA4CP-14U02301112022-12-07 01:00:4940.4512-2.993451422626491Clb=4.4m/s p=18.9hPa t=-61.0C h=5.9% 403.00MHz Type=RS41-SGP Details on http://radiosondy.info
EA4CP-14U02301112022-12-07 01:00:4840.4517-2.994451272626419Clb=4.8m/s p=19.1hPa t=-61.1C h=6.1% 403.00MHz Type=RS41-SGP batt=2.6V Details on http://radiosondy.info
EA4GBR-9U02301112022-12-07 01:00:4740.452-2.99521312226369Clb=5.0m/s p=19.4hPa t=-61.1C h=1.6% 403.000MHz Type=RS41-SGP rdzTTGOsonde
EA1JAY-16U02301112022-12-07 01:00:4640.4527-2.996291212626298Clb=4.2m/s p=19.6hPa t=-61.2C h=1.7% 403.000MHz Type=RS41-SGP rdzTTGOsonde
LETO2-14U02301112022-12-07 01:00:4240.4532-2.99731183026237Clb=4.2m/s p=19.7hPa t=-60.8C h=5.9% 403.00MHz Type=RS41-SGP Radiosonde Tracker +Info: 403MHz@gmail.com
EA1JAY-16U02301112022-12-07 01:00:4040.4535-2.997871483326207Clb=4.7m/s p=19.8hPa t=-60.9C h=1.6% 403.000MHz Type=RS41-SGP rdzTTGOsonde
EA4GBR-9U02301112022-12-07 01:00:3940.4538-2.99831021926175Clb=4.7m/s p=20.0hPa t=-60.9C h=1.5% 403.000MHz Type=RS41-SGP rdzTTGOsonde
EA4CP-14U02301112022-12-07 01:00:3640.4542-2.998881502626137Clb=4.3m/s p=20.0hPa t=-61.2C h=6.0% 403.00MHz Type=RS41-SGP Details on http://radiosondy.info
EA4GBR-9U02301112022-12-07 01:00:3440.4548-2.999471393026084Clb=4.0m/s p=20.3hPa t=-61.1C h=1.6% 403.000MHz Type=RS41-SGP rdzTTGOsonde
EA4CP-14U02301112022-12-07 01:00:3340.4549-2.999711202426066Clb=4.4m/s p=20.2hPa t=-60.9C h=6.0% 403.00MHz Type=RS41-SGP Details on http://radiosondy.info
EA4EKH-11U02301112022-12-07 01:00:3240.455-2.999881211526052Clb=4.8m/s t=-60.9C h=1.6% p=20.4hPa 403.000 MHz Type=RS41-SGP ser=U0230111 Radiosonde
EA1JAY-16U02301112022-12-07 01:00:3040.4551-3.000331132626021Clb=5.0m/s p=20.5hPa t=-60.8C h=1.6% 403.000MHz Type=RS41-SGP rdzTTGOsonde
EA4CP-14U02301112022-12-07 01:00:2940.4554-3.00081213025989Clb=5.4m/s p=20.5hPa t=-60.6C h=5.8% 403.00MHz Type=RS41-SGP TxPastBurst=8h30m batt=2.5V Details on http://radiosondy.info
EA1JAY-16U02301112022-12-07 01:00:2240.4559-3.002041172825924Clb=5.2m/s p=20.8hPa t=-60.8C h=1.6% 403.000MHz Type=RS41-SGP rdzTTGOsonde
EA4GBR-10U02301112022-12-07 01:00:2140.4559-3.002191152425915Clb=3.6m/s p=20.9hPa t=-60.8C h=1.6% 403.000MHz Type=RS41-SGP rdzTTGOsonde
EA4EKH-11U02301112022-12-07 01:00:2040.4578-3.005541303925770Clb=4.2m/s t=-61.5C h=1.6% p=21.3hPa 403.000 MHz Type=RS41-SGP ser=U0230111 Radiosonde
EA1JAY-16U02301112022-12-07 01:00:1940.4594-3.007881424325652Clb=3.5m/s p=21.7hPa t=-61.8C h=1.7% 403.000MHz Type=RS41-SGP rdzTTGOsonde
EA4CP-14U02301112022-12-07 01:00:1840.4604-3.009441173325576Clb=3.9m/s p=21.9hPa t=-61.4C h=6.1% 403.00MHz Type=RS41-SGP batt=2.5V Details on http://radiosondy.info
EA1JAY-16U02301112022-12-07 01:00:1740.4605-3.009791232225559Clb=4.1m/s p=22.1hPa t=-61.3C h=1.7% 403.000MHz Type=RS41-SGP rdzTTGOsonde
EA4GBR-9U02301112022-12-07 01:00:1340.4608-3.010291274325533Clb=4.4m/s p=22.1hPa t=-61.3C h=1.6% 403.000MHz Type=RS41-SGP rdzTTGOsonde
EA4GBR-10U02301112022-12-07 01:00:1140.461-3.01061173125519Clb=4.3m/s p=22.2hPa t=-61.3C h=1.6% 403.000MHz Type=RS41-SGP rdzTTGOsonde
EA4CP-14U02301112022-12-07 01:00:1040.461-3.010781053025509Clb=4.5m/s p=22.2hPa t=-61.2C h=5.8% 403.00MHz Type=RS41-SGP Details on http://radiosondy.info
EA4EKH-11U02301112022-12-07 01:00:0940.461-3.010951032025501Clb=4.4m/s t=-61.3C h=1.6% p=22.3hPa 403.000 MHz Type=RS41-SGP ser=U0230111 Radiosonde
EA1JAY-16U02301112022-12-07 01:00:0140.4614-3.011551213925466Clb=4.8m/s p=22.4hPa t=-61.8C h=1.6% 403.000MHz Type=RS41-SGP rdzTTGOsonde
EA4CP-14U02301112022-12-07 00:59:5640.4615-3.01202852825443Clb=5.0m/s p=22.4hPa t=-61.8C h=6.0% 403.00MHz Type=RS41-SGP Details on http://radiosondy.info
EA4GBR-9U02301112022-12-07 00:59:5440.4614-3.01211862825439Clb=4.1m/s p=22.5hPa t=-61.8C h=1.7% 403.000MHz Type=RS41-SGP rdzTTGOsonde
EA4GBR-10U02301112022-12-07 00:59:5040.4615-3.012421132025421Clb=4.1m/s p=22.6hPa t=-62.0C h=1.7% 403.000MHz Type=RS41-SGP rdzTTGOsonde
EA1JAY-16U02301112022-12-07 00:59:3540.4617-3.01342982825371Clb=3.9m/s p=22.7hPa t=-62.6C h=1.8% 403.000MHz Type=RS41-SGP rdzTTGOsonde
EA4EKH-11U02301112022-12-07 00:59:3340.4618-3.013571172025361Clb=5.3m/s t=-62.5C h=1.7% p=22.8hPa 403.000 MHz Type=RS41-SGP ser=U0230111 Radiosonde
EA4GBR-9U02301112022-12-07 00:59:2740.462-3.013821383525342Clb=5.1m/s p=22.8hPa t=-62.4C h=1.8% 403.000MHz Type=RS41-SGP rdzTTGOsonde
EA4GBR-10U02301112022-12-07 00:59:2140.4623-3.01431323725318Clb=4.1m/s p=22.9hPa t=-62.2C h=1.7% 403.000MHz Type=RS41-SGP rdzTTGOsonde
EA4CP-14U02301112022-12-07 00:59:1640.4625-3.014641263025300Clb=4.0m/s p=22.9hPa t=-62.0C h=6.1% 403.00MHz Type=RS41-SGP Details on http://radiosondy.info
EA1JAY-16U02301112022-12-07 00:59:0740.4629-3.014961483325271Clb=5.3m/s p=23.1hPa t=-61.9C h=1.7% 403.000MHz Type=RS41-SGP rdzTTGOsonde
EA4GBR-9U02301112022-12-07 00:58:5840.4632-3.015381372625239Clb=4.9m/s p=23.2hPa t=-62.0C h=1.7% 403.000MHz Type=RS41-SGP rdzTTGOsonde
EA4CP-14U02301112022-12-07 00:58:5340.4634-3.015621443325219Clb=4.8m/s p=23.2hPa t=-62.1C h=6.1% 403.00MHz Type=RS41-SGP Details on http://radiosondy.info
EA4GBR-10U02301112022-12-07 00:58:5040.4635-3.015731573525208Clb=5.4m/s p=23.3hPa t=-62.3C h=1.7% 403.000MHz Type=RS41-SGP rdzTTGOsonde
EA1JAY-16U02301112022-12-07 00:58:3940.4641-3.016171563025167Clb=4.6m/s p=23.5hPa t=-62.5C h=1.8% 403.000MHz Type=RS41-SGP rdzTTGOsonde
EA4CP-14U02301112022-12-07 00:58:3340.4645-3.01641542425140Clb=5.6m/s p=23.5hPa t=-62.5C h=6.5% 403.00MHz Type=RS41-SGP batt=2.5V Details on http://radiosondy.info
EA4GBR-9U02301112022-12-07 00:58:3140.4645-3.016451573125135Clb=4.5m/s p=23.6hPa t=-62.5C h=1.8% 403.000MHz Type=RS41-SGP rdzTTGOsonde
EA4GBR-10U02301112022-12-07 00:58:1840.465-3.01671702225090Clb=5.3m/s p=23.7hPa t=-62.2C h=1.8% 403.000MHz Type=RS41-SGP rdzTTGOsonde
EA4CP-14U02301112022-12-07 00:58:1140.4653-3.016891572025058Clb=4.9m/s p=23.8hPa t=-61.9C h=6.3% 403.00MHz Type=RS41-SGP Details on http://radiosondy.info
EA1JAY-16U02301112022-12-07 00:58:1040.4653-3.016891572625058Clb=4.9m/s p=23.9hPa t=-61.9C h=1.7% 403.000MHz Type=RS41-SGP rdzTTGOsonde
EA4EKH-11U02301112022-12-07 00:58:0840.4655-3.016991461925043Clb=5.7m/s t=-61.8C h=1.7% p=23.9hPa 403.000 MHz Type=RS41-SGP ser=U0230111 Radiosonde
EA4GBR-9U02301112022-12-07 00:58:0240.4656-3.017061681325027Clb=5.9m/s p=24.0hPa t=-61.7C h=1.7% 403.000MHz Type=RS41-SGP rdzTTGOsonde
EA4CP-14U02301112022-12-07 00:57:5240.466-3.017241551924978Clb=5.4m/s p=24.2hPa t=-61.2C h=6.1% 403.00MHz Type=RS41-SGP Details on http://radiosondy.info
EA4GBR-10U02301112022-12-07 00:57:4740.4661-3.017331531324963Clb=4.7m/s p=24.3hPa t=-61.2C h=1.7% 403.000MHz Type=RS41-SGP rdzTTGOsonde
EA1JAY-16U02301112022-12-07 00:57:4440.4661-3.017351851524952Clb=5.6m/s p=24.3hPa t=-61.1C h=1.7% 403.000MHz Type=RS41-SGP rdzTTGOsonde
EA4GBR-9U02301112022-12-07 00:57:3540.4664-3.017431532424916Clb=5.6m/s p=24.5hPa t=-60.8C h=1.6% 403.000MHz Type=RS41-SGP rdzTTGOsonde
EA4CP-14U02301112022-12-07 00:57:3040.4667-3.017521721724896Clb=4.7m/s p=24.5hPa t=-60.6C h=5.9% 403.00MHz Type=RS41-SGP batt=2.5V Details on http://radiosondy.info
EA4EKH-11U02301112022-12-07 00:57:2640.4668-3.017561591324879Clb=4.8m/s t=-60.6C h=1.6% p=24.6hPa 403.000 MHz Type=RS41-SGP ser=U0230111 Radiosonde
EA4GBR-10U02301112022-12-07 00:57:1740.467-3.017551862024850Clb=5.0m/s p=24.7hPa t=-60.5C h=1.6% 403.000MHz Type=RS41-SGP rdzTTGOsonde
EA1JAY-16U02301112022-12-07 00:57:1640.4671-3.017551781924844Clb=5.6m/s p=24.8hPa t=-60.5C h=1.6% 403.000MHz Type=RS41-SGP rdzTTGOsonde
EA4CP-14U02301112022-12-07 00:57:0940.4673-3.017621751724814Clb=4.5m/s p=24.8hPa t=-60.4C h=5.7% 403.00MHz Type=RS41-SGP Details on http://radiosondy.info
EA4GBR-9U02301112022-12-07 00:57:0840.4673-3.017621761924814Clb=4.6m/s p=24.9hPa t=-60.4C h=1.6% 403.000MHz Type=RS41-SGP rdzTTGOsonde
EA1JAY-16U02301112022-12-07 00:56:4840.4679-3.017971481924737Clb=5.7m/s p=25.1hPa t=-60.4C h=1.6% 403.000MHz Type=RS41-SGP rdzTTGOsonde
EA4GBR-10U02301112022-12-07 00:56:4740.4679-3.018011401724731Clb=5.8m/s p=25.2hPa t=-60.5C h=1.5% 403.000MHz Type=RS41-SGP rdzTTGOsonde
EA4CP-14U02301112022-12-07 00:56:4640.4679-3.018041351724726Clb=4.7m/s p=25.2hPa t=-60.4C h=5.7% 403.00MHz Type=RS41-SGP Details on http://radiosondy.info
EA4EKH-11U02301112022-12-07 00:56:4540.468-3.018071401324721Clb=4.9m/s t=-60.5C h=1.5% p=25.3hPa 403.000 MHz Type=RS41-SGP ser=U0230111 Radiosonde
LETO2-14U02301112022-12-07 00:56:4240.468-3.018121632024711Clb=4.8m/s p=25.2hPa t=-60.4C h=5.7% 403.00MHz Type=RS41-SGP Radiosonde Tracker +Info: 403MHz@gmail.com
EA4GBR-9U02301112022-12-07 00:56:3940.4681-3.018131661924707Clb=4.3m/s p=25.3hPa t=-60.4C h=1.6% 403.000MHz Type=RS41-SGP rdzTTGOsonde
EA4CP-14U02301112022-12-07 00:56:2440.4685-3.018341531124648Clb=4.8m/s p=25.5hPa t=-60.6C h=5.9% 403.00MHz Type=RS41-SGP TxPastBurst=8h30m batt=2.5V Details on http://radiosondy.info
LETO2-14U02301112022-12-07 00:56:2340.4686-3.018361612424643Clb=5.8m/s p=25.5hPa t=-60.6C h=5.9% 403.00MHz Type=RS41-SGP Radiosonde Tracker +Info: 403MHz@gmail.com
EA1JAY-16U02301112022-12-07 00:56:2040.4686-3.018381701924638Clb=4.6m/s p=25.6hPa t=-60.7C h=1.6% 403.000MHz Type=RS41-SGP rdzTTGOsonde
EA4GBR-10U02301112022-12-07 00:56:1640.4688-3.01843172924618Clb=4.9m/s p=25.6hPa t=-60.7C h=1.6% 403.000MHz Type=RS41-SGP rdzTTGOsonde
EA4GBR-9U02301112022-12-07 00:56:1340.4688-3.01842230724607Clb=5.4m/s p=25.7hPa t=-60.6C h=1.6% 403.000MHz Type=RS41-SGP rdzTTGOsonde
EA4CP-14U02301112022-12-07 00:56:0440.4689-3.018291991724572Clb=5.0m/s p=25.8hPa t=-60.4C h=5.7% 403.00MHz Type=RS41-SGP Details on http://radiosondy.info
EA4EKH-11U02301112022-12-07 00:56:0340.4689-3.018271962024567Clb=4.5m/s t=-60.5C h=1.6% p=25.8hPa 403.000 MHz Type=RS41-SGP ser=U0230111 Radiosonde
EA1JAY-16U02301112022-12-07 00:55:5240.4693-3.018232061324529Clb=4.2m/s p=26.0hPa t=-60.5C h=1.6% 403.000MHz Type=RS41-SGP rdzTTGOsonde
EA4GBR-10U02301112022-12-07 00:55:4440.4694-3.018122421324505Clb=4.9m/s p=26.1hPa t=-60.8C h=1.6% 403.000MHz Type=RS41-SGP rdzTTGOsonde
EA4CP-14U02301112022-12-07 00:55:4240.4694-3.018052171724496Clb=4.0m/s p=26.1hPa t=-60.8C h=5.8% 403.00MHz Type=RS41-SGP Details on http://radiosondy.info
EA1JAY-16U02301112022-12-07 00:55:2540.4699-3.017992231324436Clb=5.1m/s p=26.4hPa t=-61.0C h=1.7% 403.000MHz Type=RS41-SGP rdzTTGOsonde
EA4EKH-11U02301112022-12-07 00:55:2140.4701-3.017911752024418Clb=5.2m/s t=-61.1C h=1.6% p=26.5hPa 403.000 MHz Type=RS41-SGP ser=U0230111 Radiosonde
EA4CP-14U02301112022-12-07 00:55:1840.4702-3.017951601724410Clb=3.9m/s p=26.5hPa t=-61.0C h=5.9% 403.00MHz Type=RS41-SGP batt=2.5V Details on http://radiosondy.info
EA4GBR-9U02301112022-12-07 00:55:1740.4702-3.017951602224410Clb=3.9m/s p=26.5hPa t=-61.1C h=1.7% 403.000MHz Type=RS41-SGP rdzTTGOsonde
EA4GBR-10U02301112022-12-07 00:55:1340.4704-3.0181821724396Clb=4.6m/s p=26.6hPa t=-61.0C h=1.7% 403.000MHz Type=RS41-SGP rdzTTGOsonde
EA1JAY-16U02301112022-12-07 00:54:5840.4708-3.017881921524346Clb=4.3m/s p=26.8hPa t=-61.1C h=1.7% 403.000MHz Type=RS41-SGP rdzTTGOsonde
EA4CP-14U02301112022-12-07 00:54:5740.4708-3.017862012024336Clb=5.4m/s p=26.8hPa t=-61.1C h=5.9% 403.00MHz Type=RS41-SGP Details on http://radiosondy.info
EA4GBR-10U02301112022-12-07 00:54:4540.4712-3.017721932824294Clb=4.5m/s p=27.0hPa t=-61.2C h=1.7% 403.000MHz Type=RS41-SGP rdzTTGOsonde
EA4EKH-11U02301112022-12-07 00:54:4040.4715-3.017711742424276Clb=4.5m/s t=-61.2C h=1.6% p=27.1hPa 403.000 MHz Type=RS41-SGP ser=U0230111 Radiosonde
EA4CP-14U02301112022-12-07 00:54:3640.4717-3.017711862624264Clb=3.8m/s p=27.1hPa t=-61.1C h=5.8% 403.00MHz Type=RS41-SGP Details on http://radiosondy.info
EA1JAY-16U02301112022-12-07 00:54:3240.4718-3.01771911924254Clb=5.0m/s p=27.2hPa t=-61.1C h=1.6% 403.000MHz Type=RS41-SGP rdzTTGOsonde
EA4CP-14U02301112022-12-07 00:54:1540.4726-3.01781562224197Clb=5.1m/s p=27.4hPa t=-61.5C h=5.8% 403.00MHz Type=RS41-SGP batt=2.5V Details on http://radiosondy.info
EA1JAY-16U02301112022-12-07 00:54:0540.4729-3.017951682024167Clb=4.9m/s p=27.6hPa t=-62.2C h=1.8% 403.000MHz Type=RS41-SGP rdzTTGOsonde
EA4EKH-11U02301112022-12-07 00:53:5740.4733-3.01811653524141Clb=4.1m/s t=-62.4C h=1.7% p=27.7hPa 403.000 MHz Type=RS41-SGP ser=U0230111 Radiosonde
EA4CP-14U02301112022-12-07 00:53:5340.4735-3.018151682824132Clb=4.7m/s p=27.7hPa t=-62.3C h=6.2% 403.00MHz Type=RS41-SGP Details on http://radiosondy.info
EA4GBR-9U02301112022-12-07 00:53:4540.4738-3.018181872424111Clb=4.1m/s p=27.8hPa t=-62.4C h=1.7% 403.000MHz Type=RS41-SGP rdzTTGOsonde
EA4GBR-10U02301112022-12-07 00:53:4040.474-3.018171762024098Clb=3.4m/s p=27.9hPa t=-62.6C h=1.8% 403.000MHz Type=RS41-SGP rdzTTGOsonde
EA1JAY-16U02301112022-12-07 00:53:3440.4743-3.018291603524077Clb=4.7m/s p=28.0hPa t=-62.7C h=1.8% 403.000MHz Type=RS41-SGP rdzTTGOsonde
EA4CP-14U02301112022-12-07 00:53:3140.4745-3.018411552224064Clb=4.0m/s p=28.0hPa t=-62.7C h=6.4% 403.00MHz Type=RS41-SGP Details on http://radiosondy.info
EA4GBR-9U02301112022-12-07 00:53:1640.4751-3.018691552424020Clb=4.4m/s p=28.2hPa t=-62.8C h=1.8% 403.000MHz Type=RS41-SGP rdzTTGOsonde
LETO2-14U02301112022-12-07 00:53:1340.4752-3.018771721924007Clb=4.4m/s p=28.2hPa t=-62.7C h=6.4% 403.00MHz Type=RS41-SGP TxPastBurst=8h30m batt=2.5V Radiosonde Tracker +Info: 403MHz@gmail.com
EA4GBR-10U02301112022-12-07 00:53:0940.4753-3.018761951923997Clb=4.0m/s p=28.3hPa t=-62.7C h=1.8% 403.000MHz Type=RS41-SGP rdzTTGOsonde
EA1JAY-16U02301112022-12-07 00:53:0640.4754-3.018731981323989Clb=4.8m/s p=28.4hPa t=-62.7C h=1.8% 403.000MHz Type=RS41-SGP rdzTTGOsonde
LETO2-14U02301112022-12-07 00:52:5340.4758-3.018971602023946Clb=4.0m/s p=28.5hPa t=-62.5C h=6.4% 403.00MHz Type=RS41-SGP Radiosonde Tracker +Info: 403MHz@gmail.com
EA4CP-14U02301112022-12-07 00:52:4640.476-3.019051591923928Clb=5.1m/s p=28.6hPa t=-62.5C h=6.4% 403.00MHz Type=RS41-SGP Details on http://radiosondy.info
LETO2-14U02301112022-12-07 00:52:4440.4761-3.01911531723919Clb=3.9m/s p=28.7hPa t=-62.5C h=6.5% 403.00MHz Type=RS41-SGP Radiosonde Tracker +Info: 403MHz@gmail.com
EA1JAY-16U02301112022-12-07 00:52:3840.4762-3.019191552023902Clb=3.7m/s p=28.8hPa t=-62.5C h=1.8% 403.000MHz Type=RS41-SGP rdzTTGOsonde
LETO2-14U02301112022-12-07 00:52:3640.4763-3.019251421923892Clb=4.3m/s p=28.8hPa t=-62.4C h=6.4% 403.00MHz Type=RS41-SGP batt=2.5V Radiosonde Tracker +Info: 403MHz@gmail.com
EA4EKH-11U02301112022-12-07 00:52:2840.4765-3.01941652023871Clb=4.1m/s t=-62.4C h=1.7% p=29.0hPa 403.000 MHz Type=RS41-SGP ser=U0230111 Radiosonde
LETO2-14U02301112022-12-07 00:52:2740.4765-3.01941662423871Clb=4.1m/s p=28.9hPa t=-62.3C h=6.4% 403.00MHz Type=RS41-SGP Radiosonde Tracker +Info: 403MHz@gmail.com
EA4CP-14U02301112022-12-07 00:52:2140.4766-3.019441711723857Clb=3.9m/s p=28.9hPa t=-62.2C h=6.3% 403.00MHz Type=RS41-SGP Details on http://radiosondy.info
EA4GBR-9U02301112022-12-07 00:52:1340.4768-3.019461722023840Clb=4.2m/s p=29.1hPa t=-62.2C h=1.8% 403.000MHz Type=RS41-SGP rdzTTGOsonde
EA1JAY-16U02301112022-12-07 00:52:0440.477-3.019531791723815Clb=4.0m/s p=29.2hPa t=-62.2C h=1.8% 403.000MHz Type=RS41-SGP rdzTTGOsonde
EA4GBR-10U02301112022-12-07 00:52:0040.4772-3.019561642223802Clb=4.2m/s p=29.3hPa t=-62.4C h=1.8% 403.000MHz Type=RS41-SGP rdzTTGOsonde
EA4CP-14U02301112022-12-07 00:51:5740.4773-3.019621691523789Clb=4.2m/s p=29.3hPa t=-62.4C h=6.4% 403.00MHz Type=RS41-SGP batt=2.5V Details on http://radiosondy.info
EA4GBR-9U02301112022-12-07 00:51:4340.4776-3.01975171923750Clb=4.4m/s p=29.5hPa t=-62.2C h=1.8% 403.000MHz Type=RS41-SGP rdzTTGOsonde
EA4EKH-11U02301112022-12-07 00:51:4040.4777-3.019721862423736Clb=4.4m/s t=-62.1C h=1.7% p=29.6hPa 403.000 MHz Type=RS41-SGP ser=U0230111 Radiosonde
EA4CP-14U02301112022-12-07 00:51:3540.4779-3.019721761923724Clb=4.5m/s p=29.6hPa t=-62.0C h=6.2% 403.00MHz Type=RS41-SGP Details on http://radiosondy.info
EA1JAY-16U02301112022-12-07 00:51:3440.4779-3.019721762223724Clb=4.6m/s p=29.6hPa t=-62.0C h=1.7% 403.000MHz Type=RS41-SGP rdzTTGOsonde
EA4GBR-10U02301112022-12-07 00:51:2740.478-3.019721821323706Clb=5.0m/s p=29.7hPa t=-62.0C h=1.8% 403.000MHz Type=RS41-SGP rdzTTGOsonde
EA4GBR-9U02301112022-12-07 00:51:1240.4786-3.019622051923653Clb=3.8m/s p=30.0hPa t=-62.1C h=1.8% 403.000MHz Type=RS41-SGP rdzTTGOsonde
EA4CP-14U02301112022-12-07 00:51:1140.4786-3.01962082023649Clb=3.7m/s p=30.0hPa t=-62.0C h=6.3% 403.00MHz Type=RS41-SGP Details on http://radiosondy.info
EA1JAY-16U02301112022-12-07 00:51:0340.4788-3.01951952023625Clb=5.5m/s p=30.1hPa t=-62.1C h=1.8% 403.000MHz Type=RS41-SGP rdzTTGOsonde
EA4GBR-10U02301112022-12-07 00:50:5640.4791-3.019411932623601Clb=3.9m/s p=30.2hPa t=-62.2C h=1.8% 403.000MHz Type=RS41-SGP rdzTTGOsonde
EA4EKH-11U02301112022-12-07 00:50:5340.4792-3.019381941923592Clb=5.0m/s t=-62.1C h=1.8% p=30.2hPa 403.000 MHz Type=RS41-SGP ser=U0230111 Radiosonde
EA4CP-14U02301112022-12-07 00:50:4840.4794-3.019321851923574Clb=4.4m/s p=30.3hPa t=-61.9C h=6.4% 403.00MHz Type=RS41-SGP batt=2.6V Details on http://radiosondy.info
EA4GBR-9U02301112022-12-07 00:50:4040.4795-3.019341651323560Clb=5.0m/s p=30.4hPa t=-61.8C h=1.8% 403.000MHz Type=RS41-SGP rdzTTGOsonde
EA1JAY-16U02301112022-12-07 00:50:3140.4797-3.019252102823531Clb=5.3m/s p=30.5hPa t=-61.6C h=1.8% 403.000MHz Type=RS41-SGP rdzTTGOsonde
EA4CP-14U02301112022-12-07 00:50:2440.48-3.019121652023503Clb=4.4m/s p=30.6hPa t=-61.3C h=6.0% 403.00MHz Type=RS41-SGP Details on http://radiosondy.info
EA4GBR-10U02301112022-12-07 00:50:2240.4801-3.019131591723498Clb=5.6m/s p=30.7hPa t=-61.4C h=1.7% 403.000MHz Type=RS41-SGP rdzTTGOsonde
EA4GBR-9U02301112022-12-07 00:50:1140.4804-3.019142082223460Clb=4.1m/s p=30.9hPa t=-61.3C h=1.7% 403.000MHz Type=RS41-SGP rdzTTGOsonde
EA4EKH-11U02301112022-12-07 00:50:0740.4806-3.019091782023445Clb=4.8m/s t=-61.3C h=1.7% p=31.0hPa 403.000 MHz Type=RS41-SGP ser=U0230111 Radiosonde
EA1JAY-16U02301112022-12-07 00:50:0240.4807-3.019161462223431Clb=4.4m/s p=31.1hPa t=-61.3C h=1.7% 403.000MHz Type=RS41-SGP rdzTTGOsonde
EA4CP-14U02301112022-12-07 00:50:0140.4808-3.01921462423426Clb=5.6m/s p=31.0hPa t=-61.3C h=5.9% 403.00MHz Type=RS41-SGP Details on http://radiosondy.info
EA4GBR-10U02301112022-12-07 00:49:4740.4812-3.019341793023387Clb=4.8m/s p=31.3hPa t=-61.5C h=1.8% 403.000MHz Type=RS41-SGP rdzTTGOsonde
EA4GBR-9U02301112022-12-07 00:49:3940.4816-3.019531512623360Clb=4.9m/s p=31.4hPa t=-61.5C h=1.7% 403.000MHz Type=RS41-SGP rdzTTGOsonde
EA4CP-14U02301112022-12-07 00:49:3740.4817-3.019621572823350Clb=4.3m/s p=31.4hPa t=-61.5C h=6.2% 403.00MHz Type=RS41-SGP TxPastBurst=8h30m batt=2.5V Details on http://radiosondy.info
EA1JAY-16U02301112022-12-07 00:49:3340.4819-3.019691712623335Clb=5.1m/s p=31.6hPa t=-61.6C h=1.8% 403.000MHz Type=RS41-SGP rdzTTGOsonde
EA4EKH-11U02301112022-12-07 00:49:2240.4826-3.019751703023286Clb=5.5m/s t=-61.4C h=1.7% p=31.8hPa 403.000 MHz Type=RS41-SGP ser=U0230111 Radiosonde
EA4GBR-10U02301112022-12-07 00:49:1640.4827-3.019771703123281Clb=4.6m/s p=31.8hPa t=-61.3C h=1.8% 403.000MHz Type=RS41-SGP rdzTTGOsonde
EA4CP-14U02301112022-12-07 00:49:1540.4828-3.019791702823276Clb=4.2m/s p=31.8hPa t=-61.3C h=6.1% 403.00MHz Type=RS41-SGP Details on http://radiosondy.info
EA4GBR-9U02301112022-12-07 00:49:0940.483-3.019841713023261Clb=4.7m/s p=31.9hPa t=-61.2C h=1.8% 403.000MHz Type=RS41-SGP rdzTTGOsonde
EA1JAY-16U02301112022-12-07 00:49:0140.4835-3.019921712823231Clb=5.1m/s p=32.1hPa t=-61.1C h=1.8% 403.000MHz Type=RS41-SGP rdzTTGOsonde
EA4GBR-10U02301112022-12-07 00:48:4440.4844-3.020321623123170Clb=5.3m/s p=32.4hPa t=-60.8C h=1.8% 403.000MHz Type=RS41-SGP rdzTTGOsonde
EA4GBR-9U02301112022-12-07 00:48:3940.4845-3.020441472623156Clb=5.5m/s p=32.5hPa t=-60.8C h=1.8% 403.000MHz Type=RS41-SGP rdzTTGOsonde
EA4EKH-11U02301112022-12-07 00:48:3640.4847-3.020611413023141Clb=4.3m/s t=-60.9C h=1.7% p=32.5hPa 403.000 MHz Type=RS41-SGP ser=U0230111 Radiosonde
EA1JAY-16U02301112022-12-07 00:48:3140.4848-3.020721512823131Clb=4.9m/s p=32.6hPa t=-60.9C h=1.8% 403.000MHz Type=RS41-SGP rdzTTGOsonde
EA4GBR-10U02301112022-12-07 00:48:1040.4858-3.021311442823058Clb=4.7m/s p=33.0hPa t=-60.5C h=1.7% 403.000MHz Type=RS41-SGP rdzTTGOsonde
EA4GBR-9U02301112022-12-07 00:48:0940.4858-3.021311442823058Clb=4.7m/s p=33.0hPa t=-60.5C h=1.7% 403.000MHz Type=RS41-SGP rdzTTGOsonde
EA4CP-14U02301112022-12-07 00:48:0640.486-3.02151403323042Clb=4.8m/s p=33.0hPa t=-60.5C h=5.8% 403.00MHz Type=RS41-SGP Details on http://radiosondy.info
EA1JAY-16U02301112022-12-07 00:48:0040.4862-3.02171453123027Clb=4.4m/s p=33.1hPa t=-60.5C h=1.7% 403.000MHz Type=RS41-SGP rdzTTGOsonde
EA4EKH-11U02301112022-12-07 00:47:5040.4867-3.022111443322986Clb=5.2m/s t=-60.7C h=1.6% p=33.4hPa 403.000 MHz Type=RS41-SGP ser=U0230111 Radiosonde
EA4CP-14U02301112022-12-07 00:47:4140.4871-3.022521323522961Clb=5.0m/s p=33.4hPa t=-61.1C h=5.8% 403.00MHz Type=RS41-SGP batt=2.6V Details on http://radiosondy.info
EA4GBR-9U02301112022-12-07 00:47:3840.4871-3.022611333922956Clb=5.4m/s p=33.5hPa t=-61.3C h=1.7% 403.000MHz Type=RS41-SGP rdzTTGOsonde
EA4GBR-10U02301112022-12-07 00:47:3540.4873-3.022791373722947Clb=4.3m/s p=33.6hPa t=-61.4C h=1.7% 403.000MHz Type=RS41-SGP rdzTTGOsonde
EA1JAY-16U02301112022-12-07 00:47:2940.4876-3.02311503122920Clb=5.1m/s p=33.7hPa t=-62.0C h=1.9% 403.000MHz Type=RS41-SGP rdzTTGOsonde
EA4CP-14U02301112022-12-07 00:47:1640.4881-3.023741323322881Clb=4.9m/s p=33.9hPa t=-62.1C h=6.3% 403.00MHz Type=RS41-SGP Details on http://radiosondy.info
EA4GBR-9U02301112022-12-07 00:47:0540.4884-3.024191373122851Clb=4.6m/s p=34.1hPa t=-62.1C h=1.8% 403.000MHz Type=RS41-SGP rdzTTGOsonde
EA4GBR-10U02301112022-12-07 00:46:5740.4886-3.024471313022832Clb=4.5m/s p=34.2hPa t=-62.2C h=1.9% 403.000MHz Type=RS41-SGP rdzTTGOsonde
EA1JAY-16U02301112022-12-07 00:46:5340.4888-3.024731313522816Clb=4.7m/s p=34.3hPa t=-62.3C h=1.8% 403.000MHz Type=RS41-SGP rdzTTGOsonde
EA4CP-14U02301112022-12-07 00:46:4940.489-3.024951352422802Clb=4.1m/s p=34.3hPa t=-62.4C h=6.2% 403.00MHz Type=RS41-SGP Details on http://radiosondy.info
LETO2-14U02301112022-12-07 00:46:4640.4891-3.025071432822793Clb=5.1m/s p=34.4hPa t=-62.4C h=6.2% 403.00MHz Type=RS41-SGP Radiosonde Tracker +Info: 403MHz@gmail.com
LETO2-14U02301112022-12-07 00:46:3840.4893-3.025331342222762Clb=5.6m/s p=34.5hPa t=-63.1C h=6.7% 403.00MHz Type=RS41-SGP batt=2.6V Radiosonde Tracker +Info: 403MHz@gmail.com
EA4GBR-9U02301112022-12-07 00:46:3340.4895-3.025521222222747Clb=5.6m/s p=34.7hPa t=-63.2C h=2.0% 403.000MHz Type=RS41-SGP rdzTTGOsonde
EA4CP-14U02301112022-12-07 00:46:2740.4896-3.025821252222723Clb=4.0m/s p=34.8hPa t=-63.2C h=6.7% 403.00MHz Type=RS41-SGP batt=2.5V Details on http://radiosondy.info
EA4GBR-10U02301112022-12-07 00:46:2540.4896-3.025821252622723Clb=4.1m/s p=34.8hPa t=-63.2C h=2.0% 403.000MHz Type=RS41-SGP rdzTTGOsonde
EA1JAY-16U02301112022-12-07 00:46:2440.4896-3.02591242822719Clb=4.2m/s p=34.8hPa t=-63.2C h=2.0% 403.000MHz Type=RS41-SGP rdzTTGOsonde
EA4EKH-11U02301112022-12-07 00:46:1140.4899-3.026481121722675Clb=4.1m/s t=-63.2C h=1.9% p=35.1hPa 403.000 MHz Type=RS41-SGP ser=U0230111 Radiosonde
EA4CP-14U02301112022-12-07 00:46:0040.49-3.026811121722646Clb=4.1m/s p=35.2hPa t=-63.2C h=6.6% 403.00MHz Type=RS41-SGP Details on http://radiosondy.info
EA4GBR-9U02301112022-12-07 00:45:5940.49-3.026811131522646Clb=4.2m/s p=35.3hPa t=-63.2C h=1.9% 403.000MHz Type=RS41-SGP rdzTTGOsonde
EA1JAY-16U02301112022-12-07 00:45:5240.4901-3.027051211522623Clb=5.3m/s p=35.4hPa t=-63.2C h=2.0% 403.000MHz Type=RS41-SGP rdzTTGOsonde
EA4GBR-10U02301112022-12-07 00:45:4940.4901-3.027121211122613Clb=4.1m/s p=35.4hPa t=-63.2C h=2.0% 403.000MHz Type=RS41-SGP rdzTTGOsonde
EA4CP-14U02301112022-12-07 00:45:3840.4903-3.027471551522577Clb=4.6m/s p=35.6hPa t=-63.0C h=6.7% 403.00MHz Type=RS41-SGP Details on http://radiosondy.info
EA4GBR-9U02301112022-12-07 00:45:3040.4905-3.027561541322553Clb=5.5m/s p=35.8hPa t=-63.1C h=2.0% 403.000MHz Type=RS41-SGP rdzTTGOsonde
EA4EKH-11U02301112022-12-07 00:45:2240.4906-3.027711331522531Clb=4.0m/s t=-63.0C h=1.9% p=35.9hPa 403.000 MHz Type=RS41-SGP ser=U0230111 Radiosonde
EA1JAY-16U02301112022-12-07 00:45:2140.4906-3.027711351522531Clb=4.0m/s p=35.9hPa t=-63.0C h=1.9% 403.000MHz Type=RS41-SGP rdzTTGOsonde
EA4CP-14U02301112022-12-07 00:45:1340.4909-3.027791742222503Clb=4.5m/s p=36.1hPa t=-63.1C h=6.6% 403.00MHz Type=RS41-SGP TxPastBurst=8h30m batt=2.6V Details on http://radiosondy.info
EA4GBR-9U02301112022-12-07 00:44:5840.4913-3.027911902222459Clb=4.9m/s p=36.3hPa t=-63.6C h=2.0% 403.000MHz Type=RS41-SGP rdzTTGOsonde
EA1JAY-16U02301112022-12-07 00:44:5140.4916-3.027881792622436Clb=5.3m/s p=36.5hPa t=-63.5C h=2.1% 403.000MHz Type=RS41-SGP rdzTTGOsonde
EA4CP-14U02301112022-12-07 00:44:5040.4917-3.027881782422431Clb=4.1m/s p=36.4hPa t=-63.4C h=6.9% 403.00MHz Type=RS41-SGP Details on http://radiosondy.info
EA4GBR-10U02301112022-12-07 00:44:4040.4921-3.027951852422404Clb=4.1m/s p=36.7hPa t=-63.4C h=2.1% 403.000MHz Type=RS41-SGP rdzTTGOsonde
EA4EKH-11U02301112022-12-07 00:44:3740.4922-3.027931791922391Clb=4.2m/s t=-63.4C h=2.0% p=36.8hPa 403.000 MHz Type=RS41-SGP ser=U0230111 Radiosonde
LETO2-14U02301112022-12-07 00:44:3440.4923-3.027931811922382Clb=4.7m/s p=36.7hPa t=-63.2C h=6.8% 403.00MHz Type=RS41-SGP Radiosonde Tracker +Info: 403MHz@gmail.com
EA4GBR-9U02301112022-12-07 00:44:2940.4925-3.027931772622370Clb=4.4m/s p=36.9hPa t=-63.2C h=2.0% 403.000MHz Type=RS41-SGP rdzTTGOsonde
EA4CP-14U02301112022-12-07 00:44:2740.4926-3.027961641922361Clb=3.7m/s p=36.9hPa t=-63.1C h=6.8% 403.00MHz Type=RS41-SGP Details on http://radiosondy.info
EA1JAY-16U02301112022-12-07 00:44:1940.4929-3.028021811722343Clb=4.1m/s p=37.0hPa t=-63.0C h=2.1% 403.000MHz Type=RS41-SGP rdzTTGOsonde
EA4GBR-10U02301112022-12-07 00:44:0840.4931-3.028021561922308Clb=4.8m/s p=37.2hPa t=-62.8C h=2.0% 403.000MHz Type=RS41-SGP rdzTTGOsonde
EA4CP-14U02301112022-12-07 00:44:0340.4934-3.028171651522286Clb=3.4m/s p=37.4hPa t=-62.8C h=6.6% 403.00MHz Type=RS41-SGP batt=2.5V Details on http://radiosondy.info
EA4GBR-9U02301112022-12-07 00:44:0040.4934-3.028191631922282Clb=4.9m/s p=37.4hPa t=-62.9C h=2.0% 403.000MHz Type=RS41-SGP rdzTTGOsonde
EA4EKH-11U02301112022-12-07 00:43:5640.4936-3.0283140722256Clb=4.2m/s t=-62.7C h=1.9% p=37.6hPa 403.000 MHz Type=RS41-SGP ser=U0230111 Radiosonde
EA1JAY-16U02301112022-12-07 00:43:5440.4936-3.0283141922256Clb=4.2m/s p=37.6hPa t=-62.7C h=1.9% 403.000MHz Type=RS41-SGP rdzTTGOsonde
EA4CP-14U02301112022-12-07 00:43:4740.4937-3.028631181722220Clb=4.2m/s p=37.7hPa t=-62.6C h=6.6% 403.00MHz Type=RS41-SGP Details on http://radiosondy.info
EA4GBR-10U02301112022-12-07 00:43:4340.4938-3.028751401122208Clb=5.4m/s p=37.8hPa t=-62.8C h=2.0% 403.000MHz Type=RS41-SGP rdzTTGOsonde
EA4GBR-9U02301112022-12-07 00:43:3940.4939-3.028771711122190Clb=4.6m/s p=38.0hPa t=-62.9C h=2.0% 403.000MHz Type=RS41-SGP rdzTTGOsonde
EA1JAY-16U02301112022-12-07 00:43:3440.4941-3.028961292422163Clb=4.6m/s p=38.1hPa t=-62.9C h=1.9% 403.000MHz Type=RS41-SGP rdzTTGOsonde
EA4CP-14U02301112022-12-07 00:43:3140.4942-3.029151431522146Clb=3.3m/s p=38.2hPa t=-62.7C h=6.4% 403.00MHz Type=RS41-SGP Details on http://radiosondy.info
EA4EKH-11U02301112022-12-07 00:43:2540.4943-3.02928136722120Clb=3.9m/s t=-63.2C h=1.9% p=38.4hPa 403.000 MHz Type=RS41-SGP ser=U0230111 Radiosonde
EA4GBR-10U02301112022-12-07 00:43:2240.4944-3.029341261522112Clb=4.6m/s p=38.4hPa t=-63.4C h=2.0% 403.000MHz Type=RS41-SGP rdzTTGOsonde
EA4GBR-9U02301112022-12-07 00:43:1940.4944-3.029451142422102Clb=4.4m/s p=38.5hPa t=-63.6C h=2.1% 403.000MHz Type=RS41-SGP rdzTTGOsonde
EA4CP-14U02301112022-12-07 00:43:1540.4945-3.02977801322080Clb=4.9m/s p=38.6hPa t=-63.4C h=6.9% 403.00MHz Type=RS41-SGP batt=2.6V Details on http://radiosondy.info
EA1JAY-16U02301112022-12-07 00:43:1440.4944-3.02983711722076Clb=3.8m/s p=38.7hPa t=-63.4C h=2.1% 403.000MHz Type=RS41-SGP rdzTTGOsonde
EA4GBR-10U02301112022-12-07 00:42:5940.4945-3.030341101122018Clb=4.8m/s p=39.0hPa t=-63.1C h=2.0% 403.000MHz Type=RS41-SGP rdzTTGOsonde
EA4GBR-9U02301112022-12-07 00:42:5840.4945-3.030381021122013Clb=3.6m/s p=39.1hPa t=-63.2C h=2.1% 403.000MHz Type=RS41-SGP rdzTTGOsonde
EA4EKH-11U02301112022-12-07 00:42:5340.4946-3.030521121121989Clb=5.0m/s t=-63.1C h=1.9% p=39.2hPa 403.000 MHz Type=RS41-SGP ser=U0230111 Radiosonde
EA4CP-14U02301112022-12-07 00:42:4340.4946-3.030841621321945Clb=4.5m/s p=39.5hPa t=-62.8C h=6.5% 403.00MHz Type=RS41-SGP Details on http://radiosondy.info
EA4GBR-10U02301112022-12-07 00:42:4140.4948-3.030881801721922Clb=4.9m/s p=39.6hPa t=-62.9C h=1.9% 403.000MHz Type=RS41-SGP rdzTTGOsonde
EA1JAY-16U02301112022-12-07 00:42:3740.4949-3.030971101121899Clb=3.7m/s p=39.8hPa t=-63.5C h=2.0% 403.000MHz Type=RS41-SGP rdzTTGOsonde
EA4CP-14U02301112022-12-07 00:42:3140.4951-3.031041802421873Clb=4.9m/s p=39.9hPa t=-63.5C h=6.7% 403.00MHz Type=RS41-SGP TxPastBurst=8h30m batt=2.5V Details on http://radiosondy.info
EA4EKH-11U02301112022-12-07 00:42:2540.4954-3.031051781921850Clb=3.8m/s t=-63.5C h=1.9% p=40.1hPa 403.000 MHz Type=RS41-SGP ser=U0230111 Radiosonde
EA4GBR-10U02301112022-12-07 00:42:1840.4957-3.031161772421823Clb=4.4m/s p=40.3hPa t=-63.4C h=2.0% 403.000MHz Type=RS41-SGP rdzTTGOsonde
EA1JAY-16U02301112022-12-07 00:42:1240.496-3.031171752621805Clb=4.4m/s p=40.4hPa t=-63.4C h=2.0% 403.000MHz Type=RS41-SGP rdzTTGOsonde
EA4CP-14U02301112022-12-07 00:41:5740.4966-3.031451611121731Clb=4.0m/s p=40.9hPa t=-63.1C h=6.6% 403.00MHz Type=RS41-SGP Details on http://radiosondy.info
EA4CP-14U02301112022-12-07 00:41:5640.4969-3.03182122921657Clb=4.7m/s p=41.3hPa t=-62.6C h=6.6% 403.00MHz Type=RS41-SGP batt=2.6V Details on http://radiosondy.info
EA4CP-14U02301112022-12-07 00:41:5540.4969-3.0322578921581Clb=4.1m/s p=41.9hPa t=-62.2C h=6.4% 403.00MHz Type=RS41-SGP Details on http://radiosondy.info
EA1JAY-16U02301112022-12-07 00:41:5340.4969-3.03272831521509Clb=4.3m/s p=42.4hPa t=-62.1C h=1.8% 403.000MHz Type=RS41-SGP rdzTTGOsonde
EA4CP-14U02301112022-12-07 00:41:4940.4969-3.03344611721432Clb=4.3m/s p=42.9hPa t=-62.3C h=6.4% 403.00MHz Type=RS41-SGP batt=2.5V Details on http://radiosondy.info
EA1JAY-16U02301112022-12-07 00:41:4840.497-3.033631161921408Clb=4.4m/s p=43.1hPa t=-62.5C h=1.9% 403.000MHz Type=RS41-SGP rdzTTGOsonde
EA4CP-14U02301112022-12-07 00:41:4640.4969-3.0343931521350Clb=4.6m/s p=43.5hPa t=-62.3C h=6.4% 403.00MHz Type=RS41-SGP Details on http://radiosondy.info
EA4GBR-10U02301112022-12-07 00:41:4340.4971-3.034641191321313Clb=4.6m/s p=43.8hPa t=-62.1C h=1.9% 403.000MHz Type=RS41-SGP rdzTTGOsonde
EA4GBR-9U02301112022-12-07 00:41:4240.4971-3.03471901121304Clb=5.7m/s p=43.8hPa t=-62.1C h=1.8% 403.000MHz Type=RS41-SGP rdzTTGOsonde
EA4CP-14U02301112022-12-07 00:41:4140.497-3.034971141121268Clb=6.0m/s p=44.0hPa t=-62.1C h=6.2% 403.00MHz Type=RS41-SGP Details on http://radiosondy.info
EA4EKH-11U02301112022-12-07 00:41:4040.4971-3.035031361521258Clb=4.5m/s t=-62.1C h=1.8% p=44.1hPa 403.000 MHz Type=RS41-SGP ser=U0230111 Radiosonde
EA1JAY-16U02301112022-12-07 00:41:3740.4971-3.0353554721204Clb=5.4m/s p=44.5hPa t=-61.9C h=1.8% 403.000MHz Type=RS41-SGP rdzTTGOsonde
EA4CP-14U02301112022-12-07 00:41:3540.4971-3.0353975621194Clb=4.7m/s p=44.6hPa t=-61.8C h=6.2% 403.00MHz Type=RS41-SGP TxPastBurst=8h30m batt=2.6V Details on http://radiosondy.info
EA4CP-14U02301112022-12-07 00:41:3440.4971-3.03562217621116Clb=4.4m/s p=45.1hPa t=-61.6C h=6.4% 403.00MHz Type=RS41-SGP Details on http://radiosondy.info
EA4EKH-11U02301112022-12-07 00:41:3340.4971-3.03562179721105Clb=4.9m/s t=-61.6C h=1.9% p=45.3hPa 403.000 MHz Type=RS41-SGP ser=U0230111 Radiosonde
EA1JAY-16U02301112022-12-07 00:41:3240.4973-3.03589104721003Clb=5.5m/s p=46.0hPa t=-60.7C h=1.8% 403.000MHz Type=RS41-SGP rdzTTGOsonde
EA4GBR-10U02301112022-12-07 00:41:3140.4976-3.03629118920922Clb=4.2m/s p=46.6hPa t=-60.0C h=1.7% 403.000MHz Type=RS41-SGP rdzTTGOsonde
EA4GBR-10U02301112022-12-07 00:41:3040.4978-3.037091111520817Clb=4.6m/s p=47.4hPa t=-59.3C h=1.7% 403.000MHz Type=RS41-SGP rdzTTGOsonde
EA4CP-14U02301112022-12-07 00:41:2940.4976-3.03775901920742Clb=4.0m/s p=47.9hPa t=-59.2C h=5.4% 403.00MHz Type=RS41-SGP batt=2.5V Details on http://radiosondy.info
EA4EKH-11U02301112022-12-07 00:41:2840.498-3.038891202820654Clb=5.0m/s t=-60.7C h=1.6% p=48.6hPa 403.000 MHz Type=RS41-SGP ser=U0230111 Radiosonde
EA4EKH-11U02301112022-12-07 00:41:2640.4988-3.040591292420518Clb=4.9m/s t=-61.9C h=1.9% p=49.7hPa 403.000 MHz Type=RS41-SGP ser=U0230111 Radiosonde
EA4GBR-9U02301112022-12-07 00:41:2540.4998-3.041981273320427Clb=3.9m/s p=50.4hPa t=-62.1C h=2.0% 403.000MHz Type=RS41-SGP rdzTTGOsonde
EA4GBR-9U02301112022-12-07 00:41:2440.5006-3.043551142620333Clb=3.7m/s p=51.2hPa t=-62.0C h=2.0% 403.000MHz Type=RS41-SGP rdzTTGOsonde
EA4CP-14U02301112022-12-07 00:41:2340.5011-3.044581241520245Clb=4.2m/s p=51.9hPa t=-61.9C h=6.4% 403.00MHz Type=RS41-SGP Details on http://radiosondy.info
EA4CP-14U02301112022-12-07 00:41:2240.5016-3.045071312020172Clb=4.4m/s p=52.5hPa t=-61.9C h=6.4% 403.00MHz Type=RS41-SGP Details on http://radiosondy.info
EA4CP-14U02301112022-12-07 00:41:1640.5021-3.045871252620097Clb=4.7m/s p=53.1hPa t=-61.9C h=6.4% 403.00MHz Type=RS41-SGP batt=2.6V Details on http://radiosondy.info
EA4GBR-10U02301112022-12-07 00:41:0740.5025-3.046331303020061Clb=4.7m/s p=53.5hPa t=-62.0C h=2.1% 403.000MHz Type=RS41-SGP rdzTTGOsonde
EA4GBR-9U02301112022-12-07 00:41:0440.5025-3.046491253020051Clb=5.6m/s p=53.6hPa t=-62.0C h=2.1% 403.000MHz Type=RS41-SGP rdzTTGOsonde
EA1JAY-16U02301112022-12-07 00:41:0340.5026-3.046571222820046Clb=4.3m/s p=53.6hPa t=-62.0C h=2.1% 403.000MHz Type=RS41-SGP rdzTTGOsonde
EA4CP-14U02301112022-12-07 00:40:5840.5027-3.046871273320027Clb=5.0m/s p=53.8hPa t=-62.1C h=6.4% 403.00MHz Type=RS41-SGP Details on http://radiosondy.info
EA4CP-14U02301112022-12-07 00:40:3440.5035-3.048341192819953Clb=4.0m/s p=54.4hPa t=-62.3C h=6.5% 403.00MHz Type=RS41-SGP Details on http://radiosondy.info
EA4GBR-9U02301112022-12-07 00:40:3240.5035-3.048341193319953Clb=4.0m/s p=54.5hPa t=-62.3C h=2.1% 403.000MHz Type=RS41-SGP rdzTTGOsonde
EA1JAY-16U02301112022-12-07 00:40:3140.5035-3.048431173019948Clb=5.4m/s p=54.5hPa t=-62.3C h=2.1% 403.000MHz Type=RS41-SGP rdzTTGOsonde
EA4CP-14U02301112022-12-07 00:40:0640.5038-3.049711072419878Clb=3.4m/s p=55.0hPa t=-62.8C h=6.7% 403.00MHz Type=RS41-SGP TxPastBurst=8h30m batt=2.6V Details on http://radiosondy.info
EA4GBR-9U02301112022-12-07 00:39:5840.5039-3.0502983519856Clb=4.5m/s p=55.3hPa t=-62.9C h=2.2% 403.000MHz Type=RS41-SGP rdzTTGOsonde
EA4EKH-11U02301112022-12-07 00:39:4440.504-3.05094731719808Clb=4.0m/s t=-63.2C h=2.3% p=55.7hPa 403.000 MHz Type=RS41-SGP ser=U0230111 Radiosonde
EA4GBR-9U02301112022-12-07 00:39:2740.5039-3.05164891519762Clb=5.0m/s p=56.1hPa t=-63.0C h=2.2% 403.000MHz Type=RS41-SGP rdzTTGOsonde
EA4CP-14U02301112022-12-07 00:39:2140.5039-3.05188901719741Clb=3.9m/s p=56.3hPa t=-62.9C h=6.7% 403.00MHz Type=RS41-SGP Details on http://radiosondy.info
EA4EKH-11U02301112022-12-07 00:38:5940.5038-3.05276861319671Clb=4.5m/s t=-63.6C h=2.4% p=57.0hPa 403.000 MHz Type=RS41-SGP ser=U0230111 Radiosonde
EA4CP-14U02301112022-12-07 00:38:5740.5038-3.0527687919671Clb=4.5m/s p=56.9hPa t=-63.6C h=7.3% 403.00MHz Type=RS41-SGP batt=2.6V Details on http://radiosondy.info
EA1JAY-16U02301112022-12-07 00:38:5640.5038-3.05276881519671Clb=4.5m/s p=57.0hPa t=-63.6C h=2.4% 403.000MHz Type=RS41-SGP rdzTTGOsonde
EA4GBR-10U02301112022-12-07 00:38:4940.5038-3.0529389919650Clb=5.2m/s p=57.2hPa t=-63.6C h=2.4% 403.000MHz Type=RS41-SGP rdzTTGOsonde
EA4CP-14U02301112022-12-07 00:38:3340.5038-3.05315231619601Clb=3.8m/s p=57.6hPa t=-63.5C h=7.0% 403.00MHz Type=RS41-SGP Details on http://radiosondy.info
EA4GBR-9U02301112022-12-07 00:38:2540.5039-3.0531206619580Clb=4.1m/s p=57.8hPa t=-63.5C h=2.3% 403.000MHz Type=RS41-SGP rdzTTGOsonde
EA1JAY-16U02301112022-12-07 00:38:2440.5039-3.0531206619580Clb=4.1m/s p=57.8hPa t=-63.5C h=2.3% 403.000MHz Type=RS41-SGP rdzTTGOsonde
EA4GBR-10U02301112022-12-07 00:38:1740.504-3.05312177719558Clb=5.0m/s p=58.0hPa t=-63.5C h=2.4% 403.000MHz Type=RS41-SGP rdzTTGOsonde
EA4EKH-11U02301112022-12-07 00:38:1040.5041-3.0531190619537Clb=3.7m/s t=-63.6C h=2.3% p=58.3hPa 403.000 MHz Type=RS41-SGP ser=U0230111 Radiosonde
EA4CP-14U02301112022-12-07 00:38:0840.5041-3.053092111119533Clb=4.6m/s p=58.2hPa t=-63.5C h=7.0% 403.00MHz Type=RS41-SGP Details on http://radiosondy.info
EA1JAY-16U02301112022-12-07 00:37:5040.5043-3.052951661519490Clb=3.8m/s p=58.7hPa t=-63.5C h=2.4% 403.000MHz Type=RS41-SGP rdzTTGOsonde
EA4CP-14U02301112022-12-07 00:37:4340.5044-3.053051301719469Clb=4.2m/s p=58.8hPa t=-63.4C h=7.1% 403.00MHz Type=RS41-SGP batt=2.5V Details on http://radiosondy.info
EA4GBR-10U02301112022-12-07 00:37:4040.5045-3.053081351319465Clb=4.3m/s p=58.9hPa t=-63.4C h=2.4% 403.000MHz Type=RS41-SGP rdzTTGOsonde
EA4EKH-11U02301112022-12-07 00:37:1840.505-3.05336104719405Clb=5.1m/s t=-63.5C h=2.3% p=59.5hPa 403.000 MHz Type=RS41-SGP ser=U0230111 Radiosonde
EA4CP-14U02301112022-12-07 00:37:1640.505-3.053391011919401Clb=3.3m/s p=59.5hPa t=-63.4C h=7.1% 403.00MHz Type=RS41-SGP Details on http://radiosondy.info
EA1JAY-16U02301112022-12-07 00:37:1540.505-3.05339102919401Clb=3.3m/s p=59.6hPa t=-63.5C h=2.4% 403.000MHz Type=RS41-SGP rdzTTGOsonde
EA4GBR-10U02301112022-12-07 00:37:0340.5052-3.053621532419377Clb=4.1m/s p=59.8hPa t=-63.6C h=2.4% 403.000MHz Type=RS41-SGP rdzTTGOsonde
EA4CP-14U02301112022-12-07 00:36:4840.5056-3.054081272419336Clb=3.9m/s p=60.1hPa t=-63.4C h=7.0% 403.00MHz Type=RS41-SGP Details on http://radiosondy.info
EA4GBR-9U02301112022-12-07 00:36:4140.5058-3.054381303319319Clb=4.8m/s p=60.3hPa t=-63.5C h=2.4% 403.000MHz Type=RS41-SGP rdzTTGOsonde
EA4GBR-10U02301112022-12-07 00:36:2940.506-3.054861061919289Clb=4.0m/s p=60.6hPa t=-63.7C h=2.5% 403.000MHz Type=RS41-SGP rdzTTGOsonde
EA4EKH-11U02301112022-12-07 00:36:2640.5061-3.055041292219276Clb=4.3m/s t=-63.7C h=2.4% p=60.7hPa 403.000 MHz Type=RS41-SGP ser=U0230111 Radiosonde
EA4CP-14U02301112022-12-07 00:36:1840.5063-3.055321322419260Clb=4.1m/s p=60.9hPa t=-63.8C h=7.3% 403.00MHz Type=RS41-SGP TxPastBurst=8h30m batt=2.6V Details on http://radiosondy.info
EA4GBR-9U02301112022-12-07 00:36:0640.5066-3.055811031719232Clb=3.6m/s p=61.2hPa t=-63.6C h=2.5% 403.000MHz Type=RS41-SGP rdzTTGOsonde
EA4CP-14U02301112022-12-07 00:35:5440.5068-3.056241342219198Clb=4.9m/s p=61.5hPa t=-63.3C h=7.3% 403.00MHz Type=RS41-SGP Details on http://radiosondy.info
EA4GBR-10U02301112022-12-07 00:35:5340.5068-3.056241343019198Clb=4.9m/s p=61.5hPa t=-63.3C h=2.5% 403.000MHz Type=RS41-SGP rdzTTGOsonde
EA4EKH-11U02301112022-12-07 00:35:3740.5072-3.056821392419146Clb=4.4m/s t=-63.1C h=2.5% p=62.1hPa 403.000 MHz Type=RS41-SGP ser=U0230111 Radiosonde
EA1JAY-16U02301112022-12-07 00:35:3340.5073-3.056871422819141Clb=4.3m/s p=62.1hPa t=-63.1C h=2.5% 403.000MHz Type=RS41-SGP rdzTTGOsonde
EA4CP-14U02301112022-12-07 00:35:3040.5074-3.056991362219132Clb=3.8m/s p=62.1hPa t=-63.1C h=7.3% 403.00MHz Type=RS41-SGP Details on http://radiosondy.info
EA4CP-14U02301112022-12-07 00:35:0540.508-3.05781332019064Clb=3.7m/s p=62.8hPa t=-62.7C h=7.1% 403.00MHz Type=RS41-SGP batt=2.6V Details on http://radiosondy.info
EA1JAY-16U02301112022-12-07 00:35:0140.5081-3.057881401719056Clb=4.9m/s p=63.0hPa t=-62.8C h=2.5% 403.000MHz Type=RS41-SGP rdzTTGOsonde
EA4GBR-9U02301112022-12-07 00:34:5940.5081-3.057921371519051Clb=4.8m/s p=63.0hPa t=-62.8C h=2.5% 403.000MHz Type=RS41-SGP rdzTTGOsonde
EA4EKH-11U02301112022-12-07 00:34:4840.5084-3.058471092419009Clb=4.5m/s t=-63.2C h=2.5% p=63.5hPa 403.000 MHz Type=RS41-SGP ser=U0230111 Radiosonde
EA4CP-14U02301112022-12-07 00:34:4040.5084-3.058731092818990Clb=5.2m/s p=63.6hPa t=-63.3C h=7.0% 403.00MHz Type=RS41-SGP Details on http://radiosondy.info
EA1JAY-16U02301112022-12-07 00:34:2840.5086-3.059231143518959Clb=4.7m/s p=64.0hPa t=-63.7C h=2.6% 403.000MHz Type=RS41-SGP rdzTTGOsonde
EA4GBR-9U02301112022-12-07 00:34:2640.5086-3.059331133718954Clb=4.2m/s p=64.0hPa t=-63.7C h=2.6% 403.000MHz Type=RS41-SGP rdzTTGOsonde
EA4CP-14U02301112022-12-07 00:34:1640.5088-3.059981062818924Clb=4.8m/s p=64.3hPa t=-64.1C h=7.5% 403.00MHz Type=RS41-SGP Details on http://radiosondy.info
EA4EKH-11U02301112022-12-07 00:33:5840.5089-3.061071062618869Clb=4.5m/s t=-64.7C h=2.8% p=64.9hPa 403.000 MHz Type=RS41-SGP ser=U0230111 Radiosonde
EA1JAY-16U02301112022-12-07 00:33:5640.5089-3.061071082618869Clb=4.5m/s p=64.9hPa t=-64.7C h=2.9% 403.000MHz Type=RS41-SGP rdzTTGOsonde
EA4GBR-9U02301112022-12-07 00:33:5440.5089-3.061151132818865Clb=4.1m/s p=64.9hPa t=-64.7C h=2.9% 403.000MHz Type=RS41-SGP rdzTTGOsonde
EA4CP-14U02301112022-12-07 00:33:4540.5091-3.061571083018843Clb=3.9m/s p=65.1hPa t=-64.7C h=7.9% 403.00MHz Type=RS41-SGP batt=2.6V Details on http://radiosondy.info
EA4GBR-10U02301112022-12-07 00:33:3540.5091-3.06215913018816Clb=4.5m/s p=65.5hPa t=-64.8C h=2.9% 403.000MHz Type=RS41-SGP rdzTTGOsonde
EA1JAY-16U02301112022-12-07 00:33:2140.5092-3.06291953018780Clb=3.9m/s p=65.9hPa t=-64.8C h=2.9% 403.000MHz Type=RS41-SGP rdzTTGOsonde
EA4CP-14U02301112022-12-07 00:33:1940.5092-3.0631853018772Clb=5.0m/s p=65.9hPa t=-64.8C h=7.9% 403.00MHz Type=RS41-SGP Details on http://radiosondy.info
EA4GBR-9U02301112022-12-07 00:33:1840.5092-3.0631863018771Clb=5.1m/s p=66.0hPa 403.000MHz Type=RS41-SGP rdzTTGOsonde
EA4EKH-11U02301112022-12-07 00:33:0440.5091-3.06394833018732Clb=4.0m/s t=-65.0C h=2.9% p=66.4hPa 403.000 MHz Type=RS41-SGP ser=U0230111 Radiosonde
EA4GBR-10U02301112022-12-07 00:33:0040.5091-3.06404813118728Clb=3.8m/s p=66.4hPa t=-65.0C h=3.0% 403.000MHz Type=RS41-SGP rdzTTGOsonde
EA4CP-14U02301112022-12-07 00:32:5140.5089-3.06465763118701Clb=4.0m/s p=66.6hPa t=-65.0C h=8.1% 403.00MHz Type=RS41-SGP Details on http://radiosondy.info
EA1JAY-16U02301112022-12-07 00:32:4540.5089-3.06494723018688Clb=3.9m/s p=66.8hPa t=-65.0C h=2.9% 403.000MHz Type=RS41-SGP rdzTTGOsonde
EA4GBR-9U02301112022-12-07 00:32:4340.5088-3.06503763018683Clb=5.5m/s 403.000MHz Type=RS41-SGP rdzTTGOsonde
EA4GBR-10U02301112022-12-07 00:32:2340.5086-3.06607673518635Clb=4.3m/s p=67.4hPa t=-65.4C h=3.0% 403.000MHz Type=RS41-SGP rdzTTGOsonde
EA4CP-14U02301112022-12-07 00:32:1840.5085-3.06637712618621Clb=5.1m/s p=67.5hPa t=-65.3C h=8.2% 403.00MHz Type=RS41-SGP TxPastBurst=8h30m batt=2.7V Details on http://radiosondy.info
EA4EKH-11U02301112022-12-07 00:32:0740.5084-3.06689742418597Clb=4.7m/s t=-65.4C h=3.0% p=67.9hPa 403.000 MHz Type=RS41-SGP ser=U0230111 Radiosonde
EA4GBR-9U02301112022-12-07 00:32:0340.5084-3.06696692218592Clb=4.5m/s 403.000MHz Type=RS41 rdzTTGOsonde
LETO2-14U02301112022-12-07 00:32:0140.5084-3.0671582418583Clb=4.7m/s p=67.9hPa t=-65.4C h=8.3% 403.00MHz Type=RS41-SGP Radiosonde Tracker +Info: 403MHz@gmail.com
EA1JAY-16U02301112022-12-07 00:31:5340.5082-3.06732582618570Clb=5.1m/s p=68.1hPa t=-65.5C h=3.0% 403.000MHz Type=RS41-SGP rdzTTGOsonde
EA4CP-14U02301112022-12-07 00:31:4840.5081-3.0676722018552Clb=4.0m/s p=68.3hPa t=-65.4C h=8.3% 403.00MHz Type=RS41-SGP Details on http://radiosondy.info
EA4GBR-10U02301112022-12-07 00:31:4340.5081-3.06773751918543Clb=3.8m/s p=68.4hPa t=-65.5C h=3.1% 403.000MHz Type=RS41-SGP rdzTTGOsonde
EA4CP-14U02301112022-12-07 00:31:2440.508-3.06851021518487Clb=4.4m/s p=69.0hPa t=-65.2C h=8.3% 403.00MHz Type=RS41-SGP Details on http://radiosondy.info
EA1JAY-16U02301112022-12-07 00:31:2040.508-3.06859981318478Clb=4.1m/s p=69.1hPa t=-65.3C h=3.0% 403.000MHz Type=RS41-SGP rdzTTGOsonde
EA4EKH-11U02301112022-12-07 00:31:1340.5079-3.06875651718461Clb=4.9m/s t=-65.2C h=2.9% p=69.4hPa 403.000 MHz Type=RS41-SGP ser=U0230111 Radiosonde
EA4GBR-10U02301112022-12-07 00:31:0940.5079-3.06887752018452Clb=3.9m/s p=69.5hPa t=-65.2C h=3.0% 403.000MHz Type=RS41-SGP rdzTTGOsonde
EA4CP-14U02301112022-12-07 00:30:5740.5079-3.069271121918419Clb=3.7m/s p=69.8hPa t=-64.9C h=8.1% 403.00MHz Type=RS41-SGP batt=2.6V Details on http://radiosondy.info
EA1JAY-16U02301112022-12-07 00:30:4340.508-3.069641072618386Clb=4.5m/s p=70.2hPa t=-64.8C h=2.9% 403.000MHz Type=RS41-SGP rdzTTGOsonde
EA4CP-14U02301112022-12-07 00:30:3440.5081-3.070161192418355Clb=4.2m/s p=70.5hPa t=-64.6C h=8.0% 403.00MHz Type=RS41-SGP Details on http://radiosondy.info
EA4GBR-10U02301112022-12-07 00:30:3340.5081-3.070161202018355Clb=4.2m/s p=70.6hPa t=-64.7C h=2.9% 403.000MHz Type=RS41-SGP rdzTTGOsonde
EA4EKH-11U02301112022-12-07 00:30:2340.5083-3.070481102218331Clb=4.7m/s t=-64.6C h=2.9% p=70.9hPa 403.000 MHz Type=RS41-SGP ser=U0230111 Radiosonde
EA1JAY-16U02301112022-12-07 00:30:0740.5085-3.071141352618298Clb=3.4m/s p=71.3hPa t=-64.5C h=2.9% 403.000MHz Type=RS41-SGP rdzTTGOsonde
EA4CP-14U02301112022-12-07 00:30:0540.5086-3.071241503018290Clb=3.1m/s p=71.3hPa t=-64.4C h=7.9% 403.00MHz Type=RS41-SGP Details on http://radiosondy.info
EA4GBR-10U02301112022-12-07 00:29:4340.5092-3.072361352618232Clb=4.9m/s p=72.0hPa t=-64.0C h=2.8% 403.000MHz Type=RS41-SGP rdzTTGOsonde
EA4CP-14U02301112022-12-07 00:29:4240.5093-3.072421383318227Clb=3.2m/s p=72.0hPa t=-63.9C h=7.8% 403.00MHz Type=RS41-SGP batt=2.6V Details on http://radiosondy.info
EA1JAY-16U02301112022-12-07 00:29:3540.5094-3.072621263318215Clb=3.9m/s p=72.2hPa t=-63.9C h=2.9% 403.000MHz Type=RS41-SGP rdzTTGOsonde
LETO2-14U02301112022-12-07 00:29:3440.5095-3.072711193918211Clb=4.4m/s p=72.2hPa t=-63.8C h=7.8% 403.00MHz Type=RS41-SGP Radiosonde Tracker +Info: 403MHz@gmail.com
EA4EKH-11U02301112022-12-07 00:29:3140.5096-3.073081074118197Clb=3.8m/s t=-63.8C h=2.9% p=72.5hPa 403.000 MHz Type=RS41-SGP ser=U0230111 Radiosonde
LETO2-14U02301112022-12-07 00:29:2440.5097-3.073461153518183Clb=3.5m/s p=72.5hPa t=-63.6C h=7.8% 403.00MHz Type=RS41-SGP batt=2.6V Radiosonde Tracker +Info: 403MHz@gmail.com
EA4CP-14U02301112022-12-07 00:29:1540.5099-3.07391313718162Clb=4.4m/s p=72.8hPa t=-63.4C h=7.6% 403.00MHz Type=RS41-SGP Details on http://radiosondy.info
LETO2-14U02301112022-12-07 00:29:0840.5101-3.074261134118146Clb=3.9m/s p=73.0hPa t=-63.3C h=7.7% 403.00MHz Type=RS41-SGP Radiosonde Tracker +Info: 403MHz@gmail.com
EA4GBR-10U02301112022-12-07 00:29:0440.5101-3.07451074318138Clb=4.8m/s p=73.1hPa t=-63.3C h=2.9% 403.000MHz Type=RS41-SGP rdzTTGOsonde
EA1JAY-16U02301112022-12-07 00:29:0140.5102-3.074771054418129Clb=4.1m/s p=73.2hPa t=-63.3C h=2.8% 403.000MHz Type=RS41-SGP rdzTTGOsonde
EA4CP-14U02301112022-12-07 00:28:5040.5104-3.075771124318094Clb=4.9m/s p=73.6hPa calibration 98% 403.00MHz Type=RS41-SGP Details on http://radiosondy.info
EA4EKH-11U02301112022-12-07 00:28:3940.5106-3.076561044618069Clb=4.2m/s t=-63.3C h=2.8% p=74.0hPa 403.000 MHz Type=RS41-SGP ser=U0230111 Radiosonde
LETO2-14U02301112022-12-07 00:28:3740.5106-3.076711024318064Clb=5.1m/s p=74.0hPa t=-63.3C h=7.5% 403.00MHz Type=RS41-SGP Radiosonde Tracker +Info: 403MHz@gmail.com
EA4GBR-10U02301112022-12-07 00:28:2840.5107-3.07742994318044Clb=4.2m/s p=74.3hPa t=-63.8C h=3.0% 403.000MHz Type=RS41-SGP rdzTTGOsonde
EA1JAY-16U02301112022-12-07 00:28:2640.5107-3.07755984118040Clb=4.9m/s p=74.3hPa t=-63.8C h=3.0% 403.000MHz Type=RS41-SGP rdzTTGOsonde
EA4CP-14U02301112022-12-07 00:28:2340.5107-3.07781023918030Clb=4.5m/s p=74.4hPa calibration 98% 403.00MHz Type=RS41-SGP TxPastBurst=8h30m batt=2.6V Details on http://radiosondy.info
LETO2-14U02301112022-12-07 00:28:2040.5108-3.078061083918023Clb=3.5m/s p=74.4hPa t=-63.9C h=7.7% 403.00MHz Type=RS41-SGP batt=2.7V Radiosonde Tracker +Info: 403MHz@gmail.com
LETO2-14U02301112022-12-07 00:28:1040.511-3.078791013717999Clb=3.5m/s p=74.8hPa t=-63.9C h=7.8% 403.00MHz Type=RS41-SGP Radiosonde Tracker +Info: 403MHz@gmail.com
EA4CP-14U02301112022-12-07 00:27:5940.5109-3.07981824317961Clb=4.9m/s p=75.2hPa calibration 98% 403.00MHz Type=RS41-SGP Details on http://radiosondy.info
EA4GBR-10U02301112022-12-07 00:27:5540.5108-3.0802813917948Clb=4.8m/s p=75.5hPa t=-64.0C h=3.0% 403.000MHz Type=RS41-SGP rdzTTGOsonde
EA4EKH-11U02301112022-12-07 00:27:5440.5108-3.08059824117933Clb=5.2m/s t=-64.2C h=3.0% p=75.6hPa 403.000 MHz Type=RS41-SGP ser=U0230111 Radiosonde
LETO2-14U02301112022-12-07 00:27:5340.5108-3.08072814417929Clb=3.8m/s p=75.6hPa t=-64.2C h=7.9% 403.00MHz Type=RS41-SGP TxPastBurst=8h30m batt=2.6V Radiosonde Tracker +Info: 403MHz@gmail.com
LETO2-14U02301112022-12-07 00:27:4440.5105-3.08186684817895Clb=5.2m/s p=76.0hPa t=-64.2C h=7.9% 403.00MHz Type=RS41-SGP Radiosonde Tracker +Info: 403MHz@gmail.com
EA4CP-14U02301112022-12-07 00:27:4340.5039-3.11077803516848Clb=4.3m/s p=90.1hPa calibration 98% 403.00MHz Type=RS41-SGP TxPastBurst=8h30m batt=2.6V Details on http://radiosondy.info
EA1JAY-16U02301112022-12-07 00:27:4240.5039-3.11133903716828Clb=3.4m/s p=90.5hPa t=-63.6C h=3.2% 403.000MHz Type=RS41-SGP rdzTTGOsonde
LETO2-14U02301112022-12-07 00:27:4140.5039-3.11319933916764Clb=4.5m/s p=91.4hPa t=-63.8C h=8.3% 403.00MHz Type=RS41-SGP TxPastBurst=8h30m batt=2.6V Radiosonde Tracker +Info: 403MHz@gmail.com
LETO2-14U02301112022-12-07 00:27:4040.5039-3.11419893716730Clb=4.2m/s p=91.9hPa t=-63.7C h=8.2% 403.00MHz Type=RS41-SGP Radiosonde Tracker +Info: 403MHz@gmail.com
EA4GBR-10U02301112022-12-07 00:27:3640.5039-3.11441983516722Clb=5.0m/s p=92.1hPa t=-63.7C h=3.3% 403.000MHz Type=RS41-SGP rdzTTGOsonde
EA1JAY-16U02301112022-12-07 00:27:1940.5041-3.116251023716659Clb=4.2m/s p=93.0hPa t=-63.2C h=3.3% 403.000MHz Type=RS41-SGP rdzTTGOsonde
EA4EKH-11U02301112022-12-07 00:27:1740.5042-3.116631054116645Clb=4.4m/s t=-63.1C h=3.3% p=93.2hPa 403.000 MHz Type=RS41-SGP ser=U0230111 Radiosonde
EA4CP-14U02301112022-12-07 00:27:0140.5045-3.118661084416581Clb=4.9m/s p=94.1hPa calibration 92% 403.00MHz Type=RS41-SGP Details on http://radiosondy.info
EA4CP-14U02301112022-12-07 00:27:0040.5049-3.120731085216520Clb=4.3m/s p=95.1hPa calibration 92% 403.00MHz Type=RS41-SGP Details on http://radiosondy.info
EA4CP-14U02301112022-12-07 00:26:5940.5056-3.123691015716445Clb=5.1m/s p=96.3hPa calibration 92% 403.00MHz Type=RS41-SGP batt=2.7V Details on http://radiosondy.info
EA4EKH-11U02301112022-12-07 00:26:5840.5059-3.12629945616386Clb=3.9m/s t=-63.7C h=3.3% p=97.2hPa 403.000 MHz Type=RS41-SGP ser=U0230111 Radiosonde
EA1JAY-16U02301112022-12-07 00:26:5740.5058-3.12955875916316Clb=4.7m/s p=98.3hPa t=-63.6C h=3.2% 403.000MHz Type=RS41-SGP rdzTTGOsonde
EA4CP-14U02301112022-12-07 00:26:5640.5055-3.13271805216248Clb=4.5m/s p=99.4hPa calibration 88% 403.00MHz Type=RS41-SGP batt=2.6V Details on http://radiosondy.info
EA1JAY-16U02301112022-12-07 00:26:5540.5053-3.13344735716231Clb=4.2m/s p=99.7hPa t=-63.8C h=3.3% 403.000MHz Type=RS41-SGP rdzTTGOsonde
EA4CP-14U02301112022-12-07 00:26:4240.5049-3.13533714416183Clb=4.1m/s p=100.4hPa calibration 88% 403.00MHz Type=RS41-SGP Details on http://radiosondy.info
EA4GBR-10U02301112022-12-07 00:26:3240.5047-3.13618714416159Clb=4.4m/s p=100.9hPa t=-63.6C h=3.3% 403.000MHz Type=RS41-SGP rdzTTGOsonde
EA1JAY-16U02301112022-12-07 00:26:2940.5046-3.13645704416152Clb=3.9m/s p=101.0hPa t=-63.6C h=3.3% 403.000MHz Type=RS41-SGP rdzTTGOsonde
EA4EKH-11U02301112022-12-07 00:26:2340.5044-3.13696674116135Clb=4.5m/s t=-63.5C h=3.2% p=101.3hPa 403.000 MHz Type=RS41-SGP ser=U0230111 Radiosonde
EA4CP-14U02301112022-12-07 00:26:1540.5043-3.13746683716119Clb=3.5m/s p=101.5hPa calibration 88% 403.00MHz Type=RS41-SGP Details on http://radiosondy.info
EA4GBR-10U02301112022-12-07 00:25:5540.5038-3.13869653316075Clb=4.3m/s p=102.3hPa t=-63.6C h=3.3% 403.000MHz Type=RS41-SGP rdzTTGOsonde
EA1JAY-16U02301112022-12-07 00:25:5240.5038-3.13888643116068Clb=4.4m/s p=102.4hPa t=-63.7C h=3.4% 403.000MHz Type=RS41-SGP rdzTTGOsonde
EA4CP-14U02301112022-12-07 00:25:4940.5037-3.13906612816059Clb=3.7m/s p=102.5hPa calibration 86% 403.00MHz Type=RS41-SGP batt=2.7V Details on http://radiosondy.info
EA4EKH-11U02301112022-12-07 00:25:3040.5032-3.14004602016011Clb=3.9m/s t=-63.7C h=3.3% p=103.3hPa 403.000 MHz Type=RS41-SGP ser=U0230111 Radiosonde
EA4CP-14U02301112022-12-07 00:25:2440.5031-3.14031652215997Clb=3.8m/s p=103.5hPa calibration 84% 403.00MHz Type=RS41-SGP Details on http://radiosondy.info
EA4GBR-10U02301112022-12-07 00:25:1940.5031-3.14044672215988Clb=3.9m/s p=103.7hPa t=-63.6C h=3.3% 403.000MHz Type=RS41-SGP rdzTTGOsonde
EA1JAY-16U02301112022-12-07 00:25:1640.5031-3.1405652015984Clb=4.6m/s p=103.8hPa t=-63.6C h=3.4% 403.000MHz Type=RS41-SGP rdzTTGOsonde
EA4CP-14U02301112022-12-07 00:24:5840.5029-3.14128831915938Clb=4.9m/s p=104.5hPa calibration 84% 403.00MHz Type=RS41-SGP Details on http://radiosondy.info
EA1JAY-16U02301112022-12-07 00:24:4440.5028-3.14172882015904Clb=3.2m/s p=105.1hPa t=-63.5C h=3.3% 403.000MHz Type=RS41-SGP rdzTTGOsonde
EA4GBR-10U02301112022-12-07 00:24:4340.5028-3.14179912015901Clb=3.9m/s p=105.2hPa t=-63.5C h=3.4% 403.000MHz Type=RS41-SGP rdzTTGOsonde
EA4EKH-11U02301112022-12-07 00:24:3840.5029-3.141981011715889Clb=4.3m/s t=-63.5C h=3.3% p=105.4hPa 403.000 MHz Type=RS41-SGP ser=U0230111 Radiosonde
EA4CP-14U02301112022-12-07 00:24:3440.5029-3.142151112015877Clb=4.4m/s p=105.5hPa calibration 84% 403.00MHz Type=RS41-SGP batt=2.6V Details on http://radiosondy.info
EA1JAY-16U02301112022-12-07 00:24:0740.5032-3.143011162615824Clb=3.9m/s p=106.5hPa t=-63.1C h=3.4% 403.000MHz Type=RS41-SGP rdzTTGOsonde
EA4CP-14U02301112022-12-07 00:24:0640.5032-3.143081162615819Clb=4.9m/s p=106.6hPa calibration 84% 403.00MHz Type=RS41-SGP Details on http://radiosondy.info
LETO2-14U02301112022-12-07 00:23:4940.5035-3.143851062815783Clb=4.6m/s p=107.2hPa t=-62.7C h=7.9% 403.00MHz Type=RS41-SGP Radiosonde Tracker +Info: 403MHz@gmail.com
EA4EKH-11U02301112022-12-07 00:23:4440.5035-3.14411172815770Clb=3.7m/s t=-62.7C h=3.2% p=107.5hPa 403.000 MHz Type=RS41-SGP ser=U0230111 Radiosonde
LETO2-14U02301112022-12-07 00:23:4040.5036-3.144361142815758Clb=4.6m/s p=107.6hPa t=-62.6C h=7.8% 403.00MHz Type=RS41-SGP batt=2.7V Radiosonde Tracker +Info: 403MHz@gmail.com
EA1JAY-16U02301112022-12-07 00:23:3140.5037-3.144691043115741Clb=3.7m/s p=108.0hPa t=-62.6C h=3.3% 403.000MHz Type=RS41-SGP rdzTTGOsonde
LETO2-14U02301112022-12-07 00:23:3040.5037-3.144791033515738Clb=3.9m/s p=107.9hPa t=-62.5C h=7.7% 403.00MHz Type=RS41-SGP Radiosonde Tracker +Info: 403MHz@gmail.com
EA4GBR-10U02301112022-12-07 00:23:2940.5037-3.144791043315737Clb=3.9m/s p=108.0hPa t=-62.5C h=3.2% 403.000MHz Type=RS41-SGP rdzTTGOsonde
LETO2-14U02301112022-12-07 00:23:1940.5039-3.145441113715713Clb=4.8m/s p=108.4hPa t=-62.5C h=7.6% 403.00MHz Type=RS41-SGP Radiosonde Tracker +Info: 403MHz@gmail.com
EA4CP-14U02301112022-12-07 00:23:1240.504-3.14581073515696Clb=2.2m/s calibration 76% 403.00MHz Type=RS41-SGP batt=2.6V Details on http://radiosondy.info
EA1JAY-16U02301112022-12-07 00:22:5240.5042-3.14691073515657Clb=4.4m/s p=109.4hPa t=-62.8C h=3.3% 403.000MHz Type=RS41-SGP rdzTTGOsonde
EA4GBR-10U02301112022-12-07 00:22:4940.5042-3.14712963515648Clb=4.5m/s p=109.6hPa t=-62.8C h=3.3% 403.000MHz Type=RS41-SGP rdzTTGOsonde
EA4EKH-11U02301112022-12-07 00:22:4840.5042-3.14724933515644Clb=3.7m/s t=-62.9C h=3.3% p=109.7hPa 403.000 MHz Type=RS41-SGP ser=U0230111 Radiosonde
EA4CP-14U02301112022-12-07 00:22:4440.5042-3.14748984315635Clb=4.3m/s calibration 76% 403.00MHz Type=RS41-SGP Details on http://radiosondy.info
EA1JAY-16U02301112022-12-07 00:22:1740.5043-3.14964944615572Clb=3.2m/s p=110.9hPa t=-63.0C h=3.3% 403.000MHz Type=RS41-SGP rdzTTGOsonde
EA4CP-14U02301112022-12-07 00:22:1440.5043-3.14994965015564Clb=3.7m/s calibration 72% 403.00MHz Type=RS41-SGP Details on http://radiosondy.info
EA4GBR-10U02301112022-12-07 00:22:1240.5044-3.1501964815561Clb=3.8m/s p=111.2hPa t=-63.1C h=3.4% 403.000MHz Type=RS41-SGP rdzTTGOsonde
EA4EKH-11U02301112022-12-07 00:21:5540.5044-3.15194925015517Clb=3.8m/s t=-63.0C h=3.3% p=111.9hPa 403.000 MHz Type=RS41-SGP ser=U0230111 Radiosonde
EA4CP-14U02301112022-12-07 00:21:5040.5044-3.15245895215505Clb=3.8m/s calibration 62% 403.00MHz Type=RS41-SGP batt=2.7V Details on http://radiosondy.info
LETO2-14U02301112022-12-07 00:21:4840.5044-3.15262855215501Clb=4.2m/s p=112.2hPa t=-62.9C h=8.2% 403.00MHz Type=RS41-SGP TxPastBurst=8h30m batt=2.7V Radiosonde Tracker +Info: 403MHz@gmail.com
EA1JAY-16U02301112022-12-07 00:21:4140.5044-3.15309835015488Clb=4.9m/s p=112.5hPa t=-62.9C h=3.5% 403.000MHz Type=RS41-SGP rdzTTGOsonde
EA4GBR-10U02301112022-12-07 00:21:3540.5043-3.15361855415477Clb=4.5m/s p=112.7hPa t=-62.8C h=3.4% 403.000MHz Type=RS41-SGP rdzTTGOsonde
EA4CP-14U02301112022-12-07 00:21:2340.5043-3.15495865015443Clb=4.5m/s calibration 50% 403.00MHz Type=RS41-SGP Details on http://radiosondy.info
EA1JAY-16U02301112022-12-07 00:21:0640.5042-3.15658885015402Clb=4.2m/s p=114.0hPa t=-62.9C h=3.4% 403.000MHz Type=RS41-SGP rdzTTGOsonde
EA4GBR-10U02301112022-12-07 00:21:0040.5041-3.15725775215385Clb=3.6m/s p=114.3hPa t=-63.0C h=3.5% 403.000MHz Type=RS41-SGP rdzTTGOsonde
EA4CP-14U02301112022-12-07 00:20:5940.5041-3.15741755215381Clb=3.4m/s calibration 45% 403.00MHz Type=RS41-SGP Details on http://radiosondy.info
EA4CP-14U02301112022-12-07 00:20:3240.5037-3.16005755215316Clb=3.6m/s calibration 31% Type=RS41-SGP batt=2.7V Details on http://radiosondy.info
EA1JAY-16U02301112022-12-07 00:20:3140.5037-3.16005765215316Clb=3.6m/s p=115.7hPa t=-63.0C h=3.4% 403.000MHz Type=RS41-SGP rdzTTGOsonde
LETO2-14U02301112022-12-07 00:20:2940.5036-3.16038775415307Clb=3.8m/s p=115.7hPa t=-62.9C h=8.1% 403.00MHz Type=RS41-SGP Radiosonde Tracker +Info: 403MHz@gmail.com
EA4GBR-10U02301112022-12-07 00:20:2540.5036-3.1607805015299Clb=4.1m/s p=115.9hPa t=-63.0C h=3.5% 403.000MHz Type=RS41-SGP rdzTTGOsonde
EA4EKH-11U02301112022-12-07 00:20:1140.5032-3.16252734815255Clb=4.3m/s t=-62.9C h=3.3% p=116.8hPa 403.000 MHz Type=RS41-SGP ser=U0230111 Radiosonde
EA4CP-14U02301112022-12-07 00:20:0540.5032-3.16267764815251Clb=3.5m/s calibration 15% Type=RS41 Details on http://radiosondy.info
EA1JAY-16U02301112022-12-07 00:19:5540.5031-3.16328844615235Clb=4.5m/s p=117.1hPa t=-62.9C 403.000MHz Type=RS41-SGP rdzTTGOsonde
LETO2-14U02301112022-12-07 00:19:5340.5031-3.16358804815227Clb=3.8m/s p=117.3hPa t=-62.9C h=8.0% 403.00MHz Type=RS41-SGP batt=2.7V Radiosonde Tracker +Info: 403MHz@gmail.com
EA4GBR-10U02301112022-12-07 00:19:4540.503-3.16419724615211Clb=4.2m/s p=117.7hPa t=-63.0C h=3.3% 403.000MHz Type=RS41-SGP rdzTTGOsonde
LETO2-14U02301112022-12-07 00:19:4340.5029-3.16448734615203Clb=4.3m/s p=117.8hPa t=-62.9C h=8.1% 403.00MHz Type=RS41-SGP Radiosonde Tracker +Info: 403MHz@gmail.com
EA4CP-14U02301112022-12-07 00:19:3940.5028-3.16492814415191Clb=3.6m/s calibration 1% Type=RS41 Details on http://radiosondy.info
LETO2-14U02301112022-12-07 00:19:2340.5026-3.16635724115150Clb=3.8m/s p=118.7hPa t=-62.8C h=8.0% 403.00MHz Type=RS41-SGP Radiosonde Tracker +Info: 403MHz@gmail.com
EA1JAY-16U02301112022-12-07 00:19:2140.5026-3.16635724315150Clb=3.8m/s p=118.8hPa 403.000MHz Type=RS41-SGP rdzTTGOsonde
EA4EKH-11U02301112022-12-07 00:19:1640.5025-3.1669764415135Clb=3.1m/s t=-62.8C h=3.4% p=119.0hPa 403.000 MHz Type=RS41-SGP ser=U0230111 Radiosonde
EA4CP-14U02301112022-12-07 00:19:1540.5025-3.1669774115135Clb=3.1m/s calibration 7% Type=RS41 batt=2.7V Details on http://radiosondy.info
EA4GBR-10U02301112022-12-07 00:19:1140.5025-3.16718814115127Clb=4.1m/s p=119.2hPa t=-62.8C h=3.4% 403.000MHz Type=RS41-SGP rdzTTGOsonde
LETO2-14U02301112022-12-07 00:19:0440.5024-3.1677793915111Clb=4.1m/s p=119.5hPa t=-62.7C h=8.0% 403.00MHz Type=RS41-SGP batt=2.7V Radiosonde Tracker +Info: 403MHz@gmail.com
LETO2-14U02301112022-12-07 00:18:4940.5022-3.16875883915076Clb=4.1m/s p=120.2hPa t=-62.6C h=7.9% 403.00MHz Type=RS41-SGP Radiosonde Tracker +Info: 403MHz@gmail.com
EA1JAY-16U02301112022-12-07 00:18:4540.5022-3.169893715068Clb=4.7m/s 403.000MHz Type=RS41 rdzTTGOsonde
LETO2-14U02301112022-12-07 00:18:3640.5021-3.16973754115044Clb=4.4m/s p=120.7hPa t=-62.4C h=7.9% 403.00MHz Type=RS41-SGP Radiosonde Tracker +Info: 403MHz@gmail.com
EA4GBR-10U02301112022-12-07 00:18:3540.5021-3.16973763915044Clb=4.4m/s p=120.8hPa t=-62.5C h=3.4% 403.000MHz Type=RS41-SGP rdzTTGOsonde
LETO2-14U02301112022-12-07 00:18:2240.502-3.17075874115014Clb=3.9m/s p=121.4hPa t=-62.3C h=7.6% 403.00MHz Type=RS41-SGP TxPastBurst=8h30m batt=2.6V Radiosonde Tracker +Info: 403MHz@gmail.com
LETO2-14U02301112022-12-07 00:18:1240.5019-3.17143844114995Clb=3.5m/s p=121.7hPa t=-62.5C h=7.8% 403.00MHz Type=RS41-SGP Radiosonde Tracker +Info: 403MHz@gmail.com
LETO2-14U02301112022-12-07 00:17:5540.5019-3.1728904314957Clb=3.5m/s p=122.5hPa t=-62.4C h=7.6% 403.00MHz Type=RS41-SGP Radiosonde Tracker +Info: 403MHz@gmail.com
LETO2-14U02301112022-12-07 00:17:3140.5017-3.17474864814904Clb=3.6m/s p=123.6hPa t=-62.2C h=7.6% 403.00MHz Type=RS41-SGP batt=2.7V Radiosonde Tracker +Info: 403MHz@gmail.com
EA4EKH-11U02301112022-12-07 00:17:2840.5017-3.17505904414896Clb=3.9m/s t=-62.2C h=3.2% p=123.8hPa 403.000 MHz Type=RS41-SGP ser=U0230111 Radiosonde
LETO2-14U02301112022-12-07 00:17:0940.5016-3.17655824614857Clb=3.7m/s p=124.5hPa t=-61.9C h=7.4% 403.00MHz Type=RS41-SGP Radiosonde Tracker +Info: 403MHz@gmail.com
EA4GBR-10U02301112022-12-07 00:17:0540.5016-3.17671824814853Clb=3.5m/s p=124.6hPa t=-62.0C h=3.2% 403.000MHz Type=RS41-SGP rdzTTGOsonde
EA4EKH-11U02301112022-12-07 00:16:3340.5013-3.17994814614774Clb=3.0m/s t=-61.7C h=3.0% p=126.2hPa 403.000 MHz Type=RS41-SGP ser=U0230111 Radiosonde
EA4GBR-10U02301112022-12-07 00:16:2540.5013-3.18025825014766Clb=3.9m/s p=126.4hPa t=-61.7C h=3.0% 403.000MHz Type=RS41-SGP rdzTTGOsonde
LETO2-14U02301112022-12-07 00:15:5440.5011-3.18311874614695Clb=3.0m/s p=127.8hPa t=-61.7C h=7.3% 403.00MHz Type=RS41-SGP Radiosonde Tracker +Info: 403MHz@gmail.com
EA4GBR-10U02301112022-12-07 00:15:5040.501-3.18353864314683Clb=3.8m/s p=128.0hPa t=-61.7C h=3.2% 403.000MHz Type=RS41-SGP rdzTTGOsonde
EA4EKH-11U02301112022-12-07 00:15:4040.501-3.18443854814661Clb=4.1m/s t=-61.6C h=2.9% p=128.6hPa 403.000 MHz Type=RS41-SGP ser=U0230111 Radiosonde
LETO2-14U02301112022-12-07 00:15:3740.501-3.18458854814658Clb=3.8m/s p=128.6hPa t=-61.5C h=7.3% 403.00MHz Type=RS41-SGP batt=2.6V Radiosonde Tracker +Info: 403MHz@gmail.com
LETO2-14U02301112022-12-07 00:15:2740.5009-3.1855804414634Clb=4.5m/s p=129.1hPa t=-61.3C h=7.2% 403.00MHz Type=RS41-SGP Radiosonde Tracker +Info: 403MHz@gmail.com
LETO2-14U02301112022-12-07 00:15:1540.5007-3.1866844414605Clb=4.3m/s p=129.7hPa t=-61.2C h=7.1% 403.00MHz Type=RS41-SGP Radiosonde Tracker +Info: 403MHz@gmail.com
EA4GBR-10U02301112022-12-07 00:15:1240.5007-3.18675834414601Clb=3.8m/s p=129.8hPa t=-61.2C h=2.9% 403.000MHz Type=RS41-SGP rdzTTGOsonde
LETO2-14U02301112022-12-07 00:15:0540.5006-3.18747784314581Clb=3.6m/s p=130.2hPa t=-61.1C h=7.1% 403.00MHz Type=RS41-SGP TxPastBurst=8h30m batt=2.6V Radiosonde Tracker +Info: 403MHz@gmail.com
LETO2-14U02301112022-12-07 00:14:5340.5005-3.18824813714558Clb=3.3m/s p=130.6hPa t=-60.9C h=7.1% 403.00MHz Type=RS41-SGP Radiosonde Tracker +Info: 403MHz@gmail.com
EA4EKH-11U02301112022-12-07 00:14:4640.5005-3.18887833914539Clb=3.3m/s t=-60.9C h=2.8% p=131.1hPa 403.000 MHz Type=RS41-SGP ser=U0230111 Radiosonde
EA4GBR-10U02301112022-12-07 00:14:3340.5004-3.18966783714516Clb=3.6m/s p=131.6hPa t=-60.9C h=2.9% 403.000MHz Type=RS41-SGP rdzTTGOsonde
LETO2-14U02301112022-12-07 00:14:3140.5003-3.18991793914508Clb=3.5m/s p=131.7hPa t=-60.8C h=7.0% 403.00MHz Type=RS41-SGP Radiosonde Tracker +Info: 403MHz@gmail.com
LETO2-14U02301112022-12-07 00:14:2140.5003-3.19069894414486Clb=4.1m/s p=132.1hPa t=-60.7C h=6.9% 403.00MHz Type=RS41-SGP batt=2.6V Radiosonde Tracker +Info: 403MHz@gmail.com
LETO2-14U02301112022-12-07 00:14:0840.5002-3.19184804414455Clb=3.8m/s p=132.8hPa t=-60.5C h=6.7% 403.00MHz Type=RS41-SGP Radiosonde Tracker +Info: 403MHz@gmail.com
EA4GBR-10U02301112022-12-07 00:13:5540.5001-3.19268924314433Clb=4.2m/s p=133.4hPa t=-60.4C h=2.8% 403.000MHz Type=RS41-SGP rdzTTGOsonde
EA4EKH-11U02301112022-12-07 00:13:5440.5001-3.19296844314425Clb=3.4m/s t=-60.4C h=2.7% p=133.5hPa 403.000 MHz Type=RS41-SGP ser=U0230111 Radiosonde
LETO2-14U02301112022-12-07 00:13:4540.5-3.19365794414406Clb=3.4m/s p=133.9hPa t=-60.4C h=6.7% 403.00MHz Type=RS41-SGP batt=2.7V Radiosonde Tracker +Info: 403MHz@gmail.com
LETO2-14U02301112022-12-07 00:13:3540.4999-3.19449864114382Clb=4.5m/s p=134.3hPa t=-60.4C h=6.7% 403.00MHz Type=RS41-SGP Radiosonde Tracker +Info: 403MHz@gmail.com
EA4GBR-10U02301112022-12-07 00:13:2140.4998-3.19553714414352Clb=4.2m/s p=135.1hPa t=-60.5C h=2.8% 403.000MHz Type=RS41-SGP rdzTTGOsonde
EA4EKH-11U02301112022-12-07 00:13:0140.4995-3.19721784414306Clb=3.3m/s t=-60.2C h=2.8% p=136.1hPa 403.000 MHz Type=RS41-SGP ser=U0230111 Radiosonde
LETO2-14U02301112022-12-07 00:12:5240.4994-3.19791854314288Clb=3.7m/s p=136.5hPa t=-60.1C h=6.6% 403.00MHz Type=RS41-SGP Radiosonde Tracker +Info: 403MHz@gmail.com
LETO2-14U02301112022-12-07 00:12:4340.4994-3.19856764314267Clb=3.4m/s p=136.9hPa t=-59.9C h=6.5% 403.00MHz Type=RS41-SGP TxPastBurst=8h30m batt=2.7V Radiosonde Tracker +Info: 403MHz@gmail.com
LETO2-14U02301112022-12-07 00:12:3940.4991-3.20091824114193Clb=4.2m/s p=138.5hPa t=-59.5C h=6.6% 403.00MHz Type=RS41-SGP Radiosonde Tracker +Info: 403MHz@gmail.com
EA4EKH-11U02301112022-12-07 00:12:3640.4991-3.20118854114185Clb=3.3m/s t=-59.6C h=2.7% p=138.7hPa 403.000 MHz Type=RS41-SGP ser=U0230111 Radiosonde
EA4GBR-10U02301112022-12-07 00:12:3240.4991-3.20144903714177Clb=3.6m/s p=138.9hPa t=-59.5C h=2.7% 403.000MHz Type=RS41-SGP rdzTTGOsonde
LETO2-14U02301112022-12-07 00:12:2940.4991-3.20168933714169Clb=4.2m/s p=139.0hPa t=-59.4C h=6.6% 403.00MHz Type=RS41-SGP batt=2.6V Radiosonde Tracker +Info: 403MHz@gmail.com
LETO2-14U02301112022-12-07 00:12:1540.4991-3.20256924114142Clb=3.7m/s p=139.6hPa t=-59.3C h=6.6% 403.00MHz Type=RS41-SGP Radiosonde Tracker +Info: 403MHz@gmail.com
LETO2-14U02301112022-12-07 00:12:0440.4991-3.20347994414114Clb=3.8m/s p=140.3hPa t=-59.1C h=6.5% 403.00MHz Type=RS41-SGP Radiosonde Tracker +Info: 403MHz@gmail.com
EA4GBR-10U02301112022-12-07 00:11:5740.4992-3.20429944414092Clb=3.8m/s p=140.8hPa t=-59.1C h=2.8% 403.000MHz Type=RS41-SGP rdzTTGOsonde
EA4EKH-11U02301112022-12-07 00:11:5040.4993-3.20532954314063Clb=4.8m/s t=-58.9C h=2.8% p=141.5hPa 403.000 MHz Type=RS41-SGP ser=U0230111 Radiosonde
EA4GBR-10U02301112022-12-07 00:11:3840.4994-3.20779955213997Clb=3.9m/s p=142.9hPa t=-58.7C h=2.8% 403.000MHz Type=RS41-SGP rdzTTGOsonde
LETO2-14U02301112022-12-07 00:11:2340.4995-3.21031945713940Clb=3.7m/s p=144.2hPa t=-58.3C h=6.5% 403.00MHz Type=RS41-SGP batt=2.6V Radiosonde Tracker +Info: 403MHz@gmail.com
EA4EKH-11U02301112022-12-07 00:11:2240.4995-3.2105915713936Clb=3.7m/s t=-58.4C h=2.8% p=144.3hPa 403.000 MHz Type=RS41-SGP ser=U0230111 Radiosonde
LETO2-14U02301112022-12-07 00:11:1640.4995-3.21149946313917Clb=3.4m/s p=144.7hPa t=-58.2C h=6.4% 403.00MHz Type=RS41-SGP Radiosonde Tracker +Info: 403MHz@gmail.com
EA4GBR-10U02301112022-12-07 00:11:1240.4996-3.21211916313905Clb=3.0m/s p=145.0hPa t=-58.3C h=2.8% 403.000MHz Type=RS41-SGP rdzTTGOsonde
LETO2-14U02301112022-12-07 00:11:0340.4996-3.21377926513872Clb=4.2m/s p=145.7hPa t=-58.1C h=6.4% 403.00MHz Type=RS41-SGP Radiosonde Tracker +Info: 403MHz@gmail.com
LETO2-14U02301112022-12-07 00:10:5840.4996-3.21485906913851Clb=3.8m/s p=146.2hPa t=-58.1C h=6.5% 403.00MHz Type=RS41-SGP TxPastBurst=8h30m batt=2.6V Radiosonde Tracker +Info: 403MHz@gmail.com
EA4EKH-11U02301112022-12-07 00:10:5440.4996-3.21707896713812Clb=3.7m/s t=-58.0C h=2.8% p=147.2hPa 403.000 MHz Type=RS41-SGP ser=U0230111 Radiosonde
LETO2-14U02301112022-12-07 00:10:5040.4996-3.21931926913772Clb=3.1m/s p=148.1hPa t=-58.0C h=6.5% 403.00MHz Type=RS41-SGP Radiosonde Tracker +Info: 403MHz@gmail.com
LETO2-14U02301112022-12-07 00:10:4840.4997-3.22065946913750Clb=3.6m/s p=148.6hPa t=-58.4C h=6.8% 403.00MHz Type=RS41-SGP batt=2.6V Radiosonde Tracker +Info: 403MHz@gmail.com
EA4GBR-10U02301112022-12-07 00:10:4640.4997-3.22222926513723Clb=4.4m/s p=149.3hPa t=-58.6C h=3.2% 403.000MHz Type=RS41-SGP rdzTTGOsonde
EA4EKH-11U02301112022-12-07 00:10:4340.4997-3.22392896913693Clb=3.9m/s t=-58.4C h=3.1% p=150.0hPa 403.000 MHz Type=RS41-SGP ser=U0230111 Radiosonde
LETO2-14U02301112022-12-07 00:10:4140.4997-3.22589886313656Clb=3.5m/s p=150.8hPa t=-58.3C h=6.9% 403.00MHz Type=RS41-SGP Radiosonde Tracker +Info: 403MHz@gmail.com
EA4GBR-10U02301112022-12-07 00:10:3140.4997-3.22719877013634Clb=4.5m/s p=151.4hPa t=-58.3C h=3.2% 403.000MHz Type=RS41-SGP rdzTTGOsonde
LETO2-14U02301112022-12-07 00:10:2640.4995-3.22875866713607Clb=3.2m/s p=152.0hPa t=-58.3C h=7.0% 403.00MHz Type=RS41-SGP Radiosonde Tracker +Info: 403MHz@gmail.com
LETO2-14U02301112022-12-07 00:10:1940.4995-3.23051876913576Clb=3.8m/s p=152.7hPa t=-58.6C h=7.0% 403.00MHz Type=RS41-SGP Radiosonde Tracker +Info: 403MHz@gmail.com
EA4EKH-11U02301112022-12-07 00:10:1840.4994-3.23095846713569Clb=2.8m/s t=-58.6C h=3.3% p=153.0hPa 403.000 MHz Type=RS41-SGP ser=U0230111 Radiosonde
LETO2-14U02301112022-12-07 00:10:1340.4993-3.23182816913554Clb=3.6m/s p=153.3hPa t=-58.6C h=7.1% 403.00MHz Type=RS41-SGP TxPastBurst=8h30m batt=2.7V Radiosonde Tracker +Info: 403MHz@gmail.com
EA4GBR-10U02301112022-12-07 00:10:1040.4993-3.23226826913547Clb=4.2m/s p=153.5hPa t=-58.7C h=3.4% 403.000MHz Type=RS41-SGP rdzTTGOsonde
LETO2-14U02301112022-12-07 00:10:0540.4992-3.23317846913532Clb=3.5m/s p=153.8hPa t=-58.7C h=7.1% 403.00MHz Type=RS41-SGP Radiosonde Tracker +Info: 403MHz@gmail.com
LETO2-14U02301112022-12-07 00:10:0140.499-3.23495816713500Clb=3.9m/s p=154.6hPa t=-59.0C h=7.3% 403.00MHz Type=RS41-SGP Radiosonde Tracker +Info: 403MHz@gmail.com
EA4GBR-10U02301112022-12-07 00:10:0040.4987-3.23734796913458Clb=4.3m/s p=155.7hPa t=-58.9C h=3.5% 403.000MHz Type=RS41-SGP rdzTTGOsonde
LETO2-14U02301112022-12-07 00:09:5840.4983-3.23954787213420Clb=3.8m/s p=156.6hPa t=-58.8C h=7.2% 403.00MHz Type=RS41-SGP Radiosonde Tracker +Info: 403MHz@gmail.com
LETO2-14U02301112022-12-07 00:09:5640.498-3.24121746713390Clb=3.5m/s p=157.3hPa t=-58.6C h=7.1% 403.00MHz Type=RS41-SGP Radiosonde Tracker +Info: 403MHz@gmail.com
EA4GBR-10U02301112022-12-07 00:09:5540.4978-3.24206767013376Clb=4.1m/s p=157.7hPa t=-58.6C h=3.3% 403.000MHz Type=RS41-SGP rdzTTGOsonde
EA4EKH-11U02301112022-12-07 00:09:5340.4973-3.24443726713335Clb=2.8m/s t=-58.4C h=3.2% p=158.7hPa 403.000 MHz Type=RS41-SGP ser=U0230111 Radiosonde
LETO2-14U02301112022-12-07 00:09:5240.4973-3.24464736513331Clb=4.0m/s p=158.8hPa t=-58.4C h=6.9% 403.00MHz Type=RS41-SGP batt=2.7V Radiosonde Tracker +Info: 403MHz@gmail.com
LETO2-14U02301112022-12-07 00:09:4940.4968-3.24669806513294Clb=3.1m/s p=159.7hPa t=-58.6C h=7.1% 403.00MHz Type=RS41-SGP Radiosonde Tracker +Info: 403MHz@gmail.com
LETO2-14U02301112022-12-07 00:09:4840.4962-3.24963826113239Clb=3.2m/s p=161.1hPa t=-58.3C h=7.0% 403.00MHz Type=RS41-SGP TxPastBurst=8h30m batt=2.7V Radiosonde Tracker +Info: 403MHz@gmail.com
LETO2-14U02301112022-12-07 00:09:4740.4954-3.25385735613155Clb=4.2m/s p=163.3hPa t=-57.7C h=7.0% 403.00MHz Type=RS41-SGP batt=2.7V Radiosonde Tracker +Info: 403MHz@gmail.com
EA4GBR-10U02301112022-12-07 00:09:4640.4952-3.25518785413124Clb=4.1m/s p=164.1hPa t=-57.5C h=3.3% 403.000MHz Type=RS41-SGP rdzTTGOsonde
EA4GBR-10U02301112022-12-07 00:09:4540.4946-3.25893865213036Clb=3.8m/s p=166.4hPa t=-57.2C h=3.5% 403.000MHz Type=RS41-SGP rdzTTGOsonde
EA4EKH-11U02301112022-12-07 00:09:4440.4944-3.2613795412983Clb=3.7m/s t=-57.5C h=3.8% p=167.8hPa 403.000 MHz Type=RS41-SGP ser=U0230111 Radiosonde
LETO2-14U02301112022-12-07 00:09:4340.4941-3.26513875912910Clb=4.2m/s p=169.7hPa t=-57.5C h=7.9% 403.00MHz Type=RS41-SGP Radiosonde Tracker +Info: 403MHz@gmail.com
EA4EKH-11U02301112022-12-07 00:09:4240.4939-3.26719835912868Clb=3.6m/s t=-57.9C h=4.7% p=170.9hPa 403.000 MHz Type=RS41-SGP ser=U0230111 Radiosonde
EA4GBR-10U02301112022-12-07 00:09:4140.4932-3.27126875212780Clb=3.9m/s p=173.3hPa t=-58.7C h=5.7% 403.000MHz Type=RS41-SGP rdzTTGOsonde
LETO2-14U02301112022-12-07 00:09:4040.4927-3.27473745712709Clb=3.1m/s p=175.2hPa t=-59.1C h=10.8% 403.00MHz Type=RS41-SGP Radiosonde Tracker +Info: 403MHz@gmail.com
EA4GBR-10U02301112022-12-07 00:09:3740.4926-3.27527755912699Clb=2.8m/s p=175.6hPa t=-59.2C h=6.5% 403.000MHz Type=RS41-SGP rdzTTGOsonde
LETO2-14U02301112022-12-07 00:09:3640.4925-3.27581765012688Clb=3.7m/s p=175.9hPa t=-59.2C h=10.9% 403.00MHz Type=RS41-SGP TxPastBurst=8h30m batt=2.7V Radiosonde Tracker +Info: 403MHz@gmail.com
LETO2-14U02301112022-12-07 00:09:3040.4923-3.27677804812664Clb=3.9m/s p=176.5hPa t=-59.5C h=11.5% 403.00MHz Type=RS41-SGP Radiosonde Tracker +Info: 403MHz@gmail.com
LETO2-14U02301112022-12-07 00:09:2340.4921-3.27768714312642Clb=3.7m/s p=177.1hPa t=-59.4C h=11.8% 403.00MHz Type=RS41-SGP Radiosonde Tracker +Info: 403MHz@gmail.com
EA4EKH-11U02301112022-12-07 00:09:2240.4921-3.27782734412639Clb=3.2m/s t=-59.5C h=7.1% p=177.3hPa 403.000 MHz Type=RS41-SGP ser=U0230111 Radiosonde
LETO2-14U02301112022-12-07 00:09:1340.492-3.27848854112620Clb=3.7m/s p=177.8hPa t=-59.4C h=12.1% 403.00MHz Type=RS41-SGP batt=2.7V Radiosonde Tracker +Info: 403MHz@gmail.com
EA4GBR-10U02301112022-12-07 00:09:0940.492-3.27861874112616Clb=3.0m/s p=177.9hPa t=-59.5C h=7.5% 403.000MHz Type=RS41-SGP rdzTTGOsonde
LETO2-14U02301112022-12-07 00:09:0140.4919-3.27926814412598Clb=3.6m/s p=178.3hPa t=-59.6C h=12.4% 403.00MHz Type=RS41-SGP Radiosonde Tracker +Info: 403MHz@gmail.com
LETO2-14U02301112022-12-07 00:08:5040.4918-3.28027864612571Clb=4.0m/s p=179.1hPa t=-59.5C h=12.4% 403.00MHz Type=RS41-SGP Radiosonde Tracker +Info: 403MHz@gmail.com
LETO2-14U02301112022-12-07 00:08:4140.4917-3.2812845212548Clb=3.9m/s p=179.8hPa t=-59.3C h=12.7% 403.00MHz Type=RS41-SGP batt=2.7V Radiosonde Tracker +Info: 403MHz@gmail.com
EA4GBR-10U02301112022-12-07 00:08:3240.4917-3.28204875212529Clb=3.6m/s p=180.4hPa t=-59.3C h=8.1% 403.000MHz Type=RS41-SGP rdzTTGOsonde
LETO2-14U02301112022-12-07 00:08:3140.4917-3.28221865412525Clb=3.1m/s p=180.4hPa t=-59.2C h=12.8% 403.00MHz Type=RS41-SGP Radiosonde Tracker +Info: 403MHz@gmail.com
EA4EKH-11U02301112022-12-07 00:08:3040.4916-3.28238835212521Clb=4.9m/s t=-59.3C h=8.2% p=180.7hPa 403.000 MHz Type=RS41-SGP ser=U0230111 Radiosonde
LETO2-14U02301112022-12-07 00:08:2340.4916-3.28325855712502Clb=3.1m/s p=181.1hPa t=-59.2C h=13.3% 403.00MHz Type=RS41-SGP Radiosonde Tracker +Info: 403MHz@gmail.com
LETO2-14U02301112022-12-07 00:08:1240.4915-3.28438885712478Clb=4.2m/s p=181.8hPa t=-59.3C h=13.4% 403.00MHz Type=RS41-SGP TxPastBurst=8h30m batt=2.7V Radiosonde Tracker +Info: 403MHz@gmail.com
LETO2-14U02301112022-12-07 00:08:0340.4915-3.28554876312456Clb=3.8m/s p=182.5hPa t=-59.3C h=13.9% 403.00MHz Type=RS41-SGP Radiosonde Tracker +Info: 403MHz@gmail.com
EA4GBR-10U02301112022-12-07 00:07:5840.4915-3.28612916112444Clb=4.3m/s p=182.8hPa t=-59.3C h=9.3% 403.000MHz Type=RS41-SGP rdzTTGOsonde
LETO2-14U02301112022-12-07 00:07:4840.4915-3.28758907012418Clb=4.1m/s p=183.6hPa t=-60.0C h=15.7% 403.00MHz Type=RS41-SGP Radiosonde Tracker +Info: 403MHz@gmail.com
EA4EKH-11U02301112022-12-07 00:07:4240.4915-3.28849867012401Clb=3.7m/s t=-60.4C h=11.0% p=184.0hPa 403.000 MHz Type=RS41-SGP ser=U0230111 Radiosonde
LETO2-14U02301112022-12-07 00:07:3840.4914-3.28895886912395Clb=2.7m/s p=184.2hPa t=-60.4C h=16.7% 403.00MHz Type=RS41-SGP batt=2.7V Radiosonde Tracker +Info: 403MHz@gmail.com
LETO2-14U02301112022-12-07 00:07:2740.4914-3.29028926712374Clb=3.2m/s p=184.9hPa t=-60.6C h=17.6% 403.00MHz Type=RS41-SGP Radiosonde Tracker +Info: 403MHz@gmail.com
EA4GBR-10U02301112022-12-07 00:07:2040.4915-3.29093936712362Clb=2.9m/s p=185.3hPa t=-60.8C h=12.1% 403.000MHz Type=RS41-SGP rdzTTGOsonde
LETO2-14U02301112022-12-07 00:07:1740.4915-3.29158956512351Clb=3.4m/s p=185.6hPa t=-60.9C h=18.6% 403.00MHz Type=RS41-SGP Radiosonde Tracker +Info: 403MHz@gmail.com
LETO2-14U02301112022-12-07 00:07:0840.4916-3.29282955912330Clb=4.0m/s p=186.2hPa t=-61.1C h=19.3% 403.00MHz Type=RS41-SGP batt=2.7V Radiosonde Tracker +Info: 403MHz@gmail.com
EA4EKH-11U02301112022-12-07 00:06:4940.4918-3.294911026112288Clb=3.5m/s t=-61.0C h=13.6% p=187.5hPa 403.000 MHz Type=RS41-SGP ser=U0230111 Radiosonde
EA4GBR-10U02301112022-12-07 00:06:4640.4919-3.295291045912281Clb=2.8m/s p=187.7hPa t=-61.0C h=13.5% 403.000MHz Type=RS41-SGP rdzTTGOsonde
LETO2-14U02301112022-12-07 00:06:3640.4921-3.29631026512262Clb=4.2m/s p=188.2hPa t=-61.0C h=20.0% 403.00MHz Type=RS41-SGP Radiosonde Tracker +Info: 403MHz@gmail.com
LETO2-14U02301112022-12-07 00:06:2240.4922-3.29796956512230Clb=4.9m/s p=189.2hPa t=-61.0C h=20.0% 403.00MHz Type=RS41-SGP TxPastBurst=8h30m batt=2.7V Radiosonde Tracker +Info: 403MHz@gmail.com
EA4EKH-12U02301112022-12-07 00:06:1840.4923-3.29837966512222Clb=4.4m/s p=189.5hPa t=-61.0C h=14.0% 403.000MHz Type=RS41-SGP rdzTTGOsonde
LETO2-14U02301112022-12-07 00:06:1340.4923-3.29925966712206Clb=3.8m/s p=189.9hPa t=-60.9C h=20.4% 403.00MHz Type=RS41-SGP Radiosonde Tracker +Info: 403MHz@gmail.com
EA4GBR-10U02301112022-12-07 00:06:0640.4923-3.29993926912194Clb=3.9m/s p=190.3hPa t=-61.0C h=14.4% 403.000MHz Type=RS41-SGP rdzTTGOsonde
LETO2-14U02301112022-12-07 00:06:0040.4923-3.30079876712177Clb=3.5m/s p=190.9hPa t=-60.9C h=21.0% 403.00MHz Type=RS41-SGP Radiosonde Tracker +Info: 403MHz@gmail.com
EA4EKH-11U02301112022-12-07 00:05:5540.4923-3.30145886712165Clb=3.6m/s t=-60.9C h=14.7% p=191.3hPa 403.000 MHz Type=RS41-SGP ser=U0230111 Radiosonde
LETO2-14U02301112022-12-07 00:05:5140.4923-3.30214897212154Clb=3.7m/s p=191.5hPa t=-60.7C h=21.1% 403.00MHz Type=RS41-SGP batt=2.7V Radiosonde Tracker +Info: 403MHz@gmail.com
LETO2-14U02301112022-12-07 00:05:3940.4922-3.30356847212130Clb=3.8m/s p=192.3hPa t=-60.6C h=21.0% 403.00MHz Type=RS41-SGP Radiosonde Tracker +Info: 403MHz@gmail.com
LETO2-14U02301112022-12-07 00:05:3040.4921-3.30473837212110Clb=3.5m/s p=192.9hPa t=-60.6C h=21.2% 403.00MHz Type=RS41-SGP Radiosonde Tracker +Info: 403MHz@gmail.com
EA4GBR-10U02301112022-12-07 00:05:2640.4921-3.3052857412103Clb=3.7m/s p=193.1hPa t=-60.6C h=14.9% 403.000MHz Type=RS41-SGP rdzTTGOsonde
LETO2-14U02301112022-12-07 00:05:1940.4919-3.30664827612080Clb=4.2m/s p=193.8hPa t=-60.4C h=21.5% 403.00MHz Type=RS41-SGP batt=2.7V Radiosonde Tracker +Info: 403MHz@gmail.com
LETO2-14U02301112022-12-07 00:05:0340.4917-3.3086847612049Clb=3.8m/s p=194.8hPa t=-60.4C h=22.3% 403.00MHz Type=RS41-SGP Radiosonde Tracker +Info: 403MHz@gmail.com
EA4EKH-11U02301112022-12-07 00:05:0240.4917-3.30886837612046Clb=3.1m/s t=-60.5C h=15.6% p=194.9hPa 403.000 MHz Type=RS41-SGP ser=U0230111 Radiosonde
LETO2-14U02301112022-12-07 00:04:5440.4916-3.31008817612027Clb=3.2m/s p=195.5hPa t=-60.6C h=22.4% 403.00MHz Type=RS41-SGP Radiosonde Tracker +Info: 403MHz@gmail.com
EA4GBR-10U02301112022-12-07 00:04:4840.4915-3.31082827612016Clb=4.1m/s p=195.9hPa t=-60.8C h=16.3% 403.000MHz Type=RS41-SGP rdzTTGOsonde
LETO2-14U02301112022-12-07 00:04:4540.4914-3.31155846912005Clb=4.1m/s p=196.2hPa t=-60.8C h=23.3% 403.00MHz Type=RS41-SGP TxPastBurst=8h30m batt=2.7V Radiosonde Tracker +Info: 403MHz@gmail.com
LETO2-14U02301112022-12-07 00:04:3640.4913-3.31285816711981Clb=3.1m/s p=197.0hPa t=-60.7C h=24.3% 403.00MHz Type=RS41-SGP Radiosonde Tracker +Info: 403MHz@gmail.com
LETO2-14U02301112022-12-07 00:04:2740.4911-3.31414806511959Clb=3.3m/s p=197.6hPa t=-60.9C h=24.4% 403.00MHz Type=RS41-SGP Radiosonde Tracker +Info: 403MHz@gmail.com
EA4EKH-11U02301112022-12-07 00:04:1440.4908-3.31589786511928Clb=3.5m/s t=-61.0C h=18.2% p=198.7hPa 403.000 MHz Type=RS41-SGP ser=U0230111 Radiosonde
LETO2-14U02301112022-12-07 00:04:0640.4907-3.31671806311911Clb=3.5m/s p=199.1hPa t=-60.9C h=25.5% 403.00MHz Type=RS41-SGP batt=2.7V Radiosonde Tracker +Info: 403MHz@gmail.com
LETO2-14U02301112022-12-07 00:03:5340.4904-3.31826756111881Clb=3.6m/s p=200.1hPa t=-61.1C h=26.6% 403.00MHz Type=RS41-SGP Radiosonde Tracker +Info: 403MHz@gmail.com
LETO2-14U02301112022-12-07 00:03:4340.4902-3.31966786311854Clb=3.2m/s p=201.0hPa t=-61.1C h=27.1% 403.00MHz Type=RS41-SGP Radiosonde Tracker +Info: 403MHz@gmail.com
EA4GBR-10U02301112022-12-07 00:03:3640.4901-3.32029786511842Clb=4.3m/s p=201.4hPa t=-61.1C h=19.9% 403.000MHz Type=RS41-SGP rdzTTGOsonde
LETO2-14U02301112022-12-07 00:03:3340.49-3.3209776111831Clb=4.3m/s p=201.7hPa t=-61.0C h=27.6% 403.00MHz Type=RS41-SGP batt=2.7V Radiosonde Tracker +Info: 403MHz@gmail.com
EA4EKH-11U02301112022-12-07 00:03:2340.4898-3.32209786111808Clb=3.2m/s t=-61.0C h=20.4% p=202.5hPa 403.000 MHz Type=RS41-SGP ser=U0230111 Radiosonde
LETO2-14U02301112022-12-07 00:03:1740.4897-3.32268826111797Clb=3.8m/s p=202.8hPa t=-61.0C h=27.9% 403.00MHz Type=RS41-SGP Radiosonde Tracker +Info: 403MHz@gmail.com
LETO2-14U02301112022-12-07 00:03:0840.4895-3.32388776111774Clb=3.2m/s p=203.6hPa t=-61.0C h=27.9% 403.00MHz Type=RS41-SGP Radiosonde Tracker +Info: 403MHz@gmail.com
EA4GBR-10U02301112022-12-07 00:02:5940.4894-3.32483805911753Clb=3.6m/s p=204.3hPa t=-60.9C h=20.7% 403.000MHz Type=RS41-SGP rdzTTGOsonde
LETO2-14U02301112022-12-07 00:02:5540.4893-3.32541835911742Clb=3.9m/s p=204.6hPa t=-60.9C h=28.3% 403.00MHz Type=RS41-SGP TxPastBurst=8h30m batt=2.7V Radiosonde Tracker +Info: 403MHz@gmail.com
LETO2-14U02301112022-12-07 00:02:4440.4892-3.32697845911712Clb=3.2m/s p=205.6hPa t=-60.9C h=28.8% 403.00MHz Type=RS41-SGP Radiosonde Tracker +Info: 403MHz@gmail.com
EA4EKH-11U02301112022-12-07 00:02:3240.489-3.3281835411690Clb=4.2m/s t=-61.1C h=22.1% p=206.4hPa 403.000 MHz Type=RS41-SGP ser=U0230111 Radiosonde
LETO2-14U02301112022-12-07 00:02:3040.489-3.32827835611685Clb=3.7m/s p=206.5hPa t=-61.0C h=30.1% 403.00MHz Type=RS41-SGP Radiosonde Tracker +Info: 403MHz@gmail.com
EA4GBR-10U02301112022-12-07 00:02:2340.489-3.32901885711670Clb=3.7m/s p=207.0hPa t=-61.2C h=23.5% 403.000MHz Type=RS41-SGP rdzTTGOsonde
LETO2-14U02301112022-12-07 00:01:4740.4889-3.33279955011585Clb=3.3m/s p=209.8hPa t=-61.5C h=35.9% 403.00MHz Type=RS41-SGP batt=2.7V Radiosonde Tracker +Info: 403MHz@gmail.com
EA4GBR-10U02301112022-12-07 00:01:4640.4889-3.33279955211585Clb=3.3m/s p=209.9hPa t=-61.5C h=27.3% 403.000MHz Type=RS41-SGP rdzTTGOsonde
EA4EKH-11U02301112022-12-07 00:01:3940.4889-3.33344924811570Clb=3.8m/s t=-61.5C h=27.7% p=210.4hPa 403.000 MHz Type=RS41-SGP ser=U0230111 Radiosonde
LETO2-14U02301112022-12-07 00:01:3540.4889-3.33377925011563Clb=3.5m/s p=210.6hPa t=-61.4C h=36.8% 403.00MHz Type=RS41-SGP Radiosonde Tracker +Info: 403MHz@gmail.com
LETO2-14U02301112022-12-07 00:01:2740.4889-3.33464915611544Clb=3.3m/s p=211.3hPa t=-61.3C h=37.6% 403.00MHz Type=RS41-SGP Radiosonde Tracker +Info: 403MHz@gmail.com
LETO2-14U02301112022-12-07 00:01:1340.4889-3.33606855411513Clb=4.0m/s p=212.3hPa t=-61.0C h=38.7% 403.00MHz Type=RS41-SGP batt=2.7V Radiosonde Tracker +Info: 403MHz@gmail.com
EA4EKH-12U02301112022-12-07 00:00:5840.4888-3.33763845611478Clb=3.0m/s p=213.5hPa t=-61.0C h=31.6% 403.000MHz Type=RS41-SGP rdzTTGOsonde
EA4EKH-11U02301112022-12-07 00:00:4440.4887-3.33885815211452Clb=3.8m/s t=-61.0C h=32.5% p=214.4hPa 403.000 MHz Type=RS41-SGP ser=U0230111 Radiosonde
EA4GBR-10U02301112022-12-07 00:00:2740.4884-3.34057815211415Clb=4.1m/s p=215.7hPa t=-61.0C h=33.6% 403.000MHz Type=RS41-SGP rdzTTGOsonde
LETO2-14U02301112022-12-07 00:00:2240.4883-3.34105764811403Clb=3.2m/s p=216.0hPa t=-60.9C h=43.3% 403.00MHz Type=RS41-SGP Radiosonde Tracker +Info: 403MHz@gmail.com
LETO2-14U02301112022-12-07 00:00:1240.4882-3.34196804411380Clb=4.7m/s p=216.9hPa t=-61.0C h=44.2% 403.00MHz Type=RS41-SGP Radiosonde Tracker +Info: 403MHz@gmail.com
EA4EKH-11U02301112022-12-06 23:59:5640.4879-3.3438814311330Clb=3.8m/s t=-62.0C h=38.2% p=218.7hPa 403.000 MHz Type=RS41-SGP ser=U0230111 Radiosonde
EA4GBR-10U02301112022-12-06 23:59:5340.4879-3.34395824411326Clb=4.0m/s p=218.8hPa t=-62.0C h=38.6% 403.000MHz Type=RS41-SGP rdzTTGOsonde
LETO2-14U02301112022-12-06 23:59:5140.4879-3.34436793911316Clb=2.7m/s p=219.2hPa t=-62.1C 403.00MHz Type=RS41-SGP TxPastBurst=8h30m batt=2.7V Radiosonde Tracker +Info: 403MHz@gmail.com
LETO2-14U02301112022-12-06 23:59:4540.4877-3.34509773911293Clb=3.7m/s p=219.9hPa calibration 98% 403.00MHz Type=RS41-SGP Radiosonde Tracker +Info: 403MHz@gmail.com
LETO2-14U02301112022-12-06 23:59:4040.4876-3.34583784111272Clb=2.5m/s p=220.7hPa calibration 96% 403.00MHz Type=RS41-SGP Radiosonde Tracker +Info: 403MHz@gmail.com
EA4GBR-10U02301112022-12-06 23:59:3940.4876-3.34686983311240Clb=3.8m/s p=221.9hPa t=-61.8C h=39.2% 403.000MHz Type=RS41-SGP rdzTTGOsonde
LETO2-14U02301112022-12-06 23:59:3840.4881-3.350561014311127Clb=3.2m/s p=225.8hPa calibration 92% Type=RS41-SGP Radiosonde Tracker +Info: 403MHz@gmail.com
EA4EKH-11U02301112022-12-06 23:59:3740.4883-3.352061024411091Clb=3.5m/s t=-60.7C h=37.2% p=227.2hPa 403.000 MHz Type=RS41-SGP ser=U0230111 Radiosonde
LETO2-14U02301112022-12-06 23:59:3640.4892-3.355821165010990Clb=3.9m/s p=231.0hPa calibration 90% Type=RS41-SGP Radiosonde Tracker +Info: 403MHz@gmail.com
EA4EKH-11U02301112022-12-06 23:59:3540.4895-3.35682985210964Clb=4.6m/s t=-59.6C h=37.2% p=232.0hPa 403.000 MHz Type=RS41-SGP ser=U0230111 Radiosonde
LETO2-14U02301112022-12-06 23:59:3440.4899-3.359281005210899Clb=4.3m/s p=234.2hPa calibration 90% Type=RS41-SGP batt=2.7V Radiosonde Tracker +Info: 403MHz@gmail.com
LETO2-14U02301112022-12-06 23:59:3240.4901-3.360241015410871Clb=5.0m/s p=235.4hPa calibration 90% Type=RS41-SGP Radiosonde Tracker +Info: 403MHz@gmail.com
EA4GBR-10U02301112022-12-06 23:59:3140.4901-3.360421025710866Clb=3.8m/s p=235.6hPa t=-58.9C h=39.4% 403.000MHz Type=RS41-SGP rdzTTGOsonde
EA4EKH-11U02301112022-12-06 23:59:3040.4905-3.36226995710815Clb=5.6m/s t=-58.4C h=37.6% p=237.5hPa 403.000 MHz Type=RS41-SGP ser=U0230111 Radiosonde
EA4GBR-10U02301112022-12-06 23:59:2540.4905-3.364721027010753Clb=5.5m/s p=239.8hPa t=-57.9C h=38.7% 403.000MHz Type=RS41-SGP rdzTTGOsonde
EA4EKH-11U02301112022-12-06 23:59:0540.4906-3.3687855910665Clb=3.8m/s t=-57.7C h=42.3% p=243.3hPa 403.000 MHz Type=RS41-SGP ser=U0230111 Radiosonde
EA4GBR-10U02301112022-12-06 23:59:0240.4905-3.36933826910652Clb=5.5m/s p=243.7hPa t=-57.7C h=42.7% 403.000MHz Type=RS41-SGP rdzTTGOsonde
LETO2-14U02301112022-12-06 23:59:0140.4903-3.37081796510622Clb=3.3m/s p=244.8hPa calibration 86% Type=RS41-SGP Radiosonde Tracker +Info: 403MHz@gmail.com
LETO2-14U02301112022-12-06 23:59:0040.4897-3.37378756710570Clb=3.0m/s p=246.9hPa calibration 86% Type=RS41-SGP batt=2.7V Radiosonde Tracker +Info: 403MHz@gmail.com
LETO2-14U02301112022-12-06 23:58:5940.4887-3.37866767210487Clb=3.7m/s p=250.1hPa calibration 86% Type=RS41-SGP batt=2.7V Radiosonde Tracker +Info: 403MHz@gmail.com
LETO2-14U02301112022-12-06 23:58:5840.4885-3.37995776710467Clb=3.1m/s p=250.8hPa calibration 86% Type=RS41-SGP Radiosonde Tracker +Info: 403MHz@gmail.com
LETO2-14U02301112022-12-06 23:58:5740.4882-3.38164786710439Clb=3.2m/s p=252.0hPa calibration 84% Type=RS41-SGP Radiosonde Tracker +Info: 403MHz@gmail.com
EA4EKH-11U02301112022-12-06 23:58:5640.4881-3.38186776710436Clb=3.8m/s t=-56.3C h=47.9% p=252.1hPa 403.000 MHz Type=RS41-SGP ser=U0230111 Radiosonde
LETO2-14U02301112022-12-06 23:58:4940.4878-3.38374776310404Clb=3.0m/s p=253.3hPa calibration 80% Type=RS41-SGP batt=2.7V Radiosonde Tracker +Info: 403MHz@gmail.com
EA4GBR-10U02301112022-12-06 23:58:4840.4878-3.38374776110404Clb=3.0m/s p=253.4hPa t=-56.1C h=49.3% 403.000MHz Type=RS41-SGP rdzTTGOsonde
LETO2-14U02301112022-12-06 23:58:3840.4875-3.38538796110376Clb=2.9m/s p=254.5hPa calibration 80% Type=RS41-SGP Radiosonde Tracker +Info: 403MHz@gmail.com
EA4GBR-10U02301112022-12-06 23:58:1340.4871-3.3881786310327Clb=3.5m/s p=256.5hPa t=-55.5C h=52.5% 403.000MHz Type=RS41-SGP rdzTTGOsonde
EA4GBR-10U02301112022-12-06 23:57:3640.4863-3.39252746110246Clb=2.9m/s p=259.7hPa t=-54.9C h=60.2% 403.000MHz Type=RS41-SGP rdzTTGOsonde
EA4EKH-11U02301112022-12-06 23:57:2040.486-3.39408745910218Clb=3.7m/s t=-54.8C h=62.8% p=260.9hPa 403.000 MHz Type=RS41-SGP ser=U0230111 Radiosonde
EA4GBR-10U02301112022-12-06 23:57:0040.4855-3.39616725910179Clb=2.9m/s p=262.5hPa t=-54.6C h=65.8% 403.000MHz Type=RS41-SGP rdzTTGOsonde
EA4EKH-12U02301112022-12-06 23:56:3440.4847-3.39889716310126Clb=3.8m/s p=264.7hPa t=-54.3C h=72.3% 403.000MHz Type=RS41-SGP rdzTTGOsonde
EA4EKH-11U02301112022-12-06 23:56:2640.4844-3.39979675610110Clb=2.7m/s t=-54.2C h=73.0% p=265.4hPa 403.000 MHz Type=RS41-SGP ser=U0230111 Radiosonde
EA4GBR-10U02301112022-12-06 23:56:2440.4844-3.39996685710107Clb=2.8m/s p=265.5hPa t=-54.2C h=72.2% 403.000MHz Type=RS41-SGP rdzTTGOsonde
EA4GBR-10U02301112022-12-06 23:55:5140.4832-3.40358695910038Clb=3.9m/s p=268.4hPa t=-53.6C h=70.8% 403.000MHz Type=RS41-SGP rdzTTGOsonde
EA4EKH-12U02301112022-12-06 23:55:4740.4831-3.40414676310026Clb=3.1m/s p=268.8hPa t=-53.5C h=72.1% 403.000MHz Type=RS41-SGP rdzTTGOsonde
EA4EKH-11U02301112022-12-06 23:55:3740.4826-3.40544675710003Clb=3.2m/s t=-53.3C h=72.3% p=269.8hPa 402.999 MHz Type=RS41-SGP ser=U0230111 Radiosonde
EA4GBR-10U02301112022-12-06 23:55:1840.482-3.4073968579965Clb=3.8m/s p=271.4hPa t=-53.0C h=72.3% 403.000MHz Type=RS41-SGP rdzTTGOsonde
EA4EKH-12U02301112022-12-06 23:55:0840.4816-3.4085167679944Clb=4.1m/s p=272.2hPa t=-52.8C h=71.4% 403.000MHz Type=RS41-SGP rdzTTGOsonde
EA4EKH-11U02301112022-12-06 23:54:4840.4808-3.4110367659894Clb=3.1m/s t=-52.4C h=74.7% p=274.3hPa 402.999 MHz Type=RS41-SGP ser=U0230111 Radiosonde
EA4GBR-10U02301112022-12-06 23:54:4240.4806-3.4116268639885Clb=3.2m/s p=274.8hPa t=-52.3C h=75.4% 403.000MHz Type=RS41-SGP rdzTTGOsonde
EA4EKH-12U02301112022-12-06 23:54:1540.4796-3.4146567579827Clb=3.6m/s p=277.2hPa t=-51.7C h=77.0% 403.000MHz Type=RS41-SGP rdzTTGOsonde
EA4GBR-10U02301112022-12-06 23:54:0740.4793-3.4155269579808Clb=3.8m/s p=278.0hPa t=-51.6C h=78.5% 403.000MHz Type=RS41-SGP rdzTTGOsonde
EA4EKH-11U02301112022-12-06 23:53:5840.479-3.4165966579787Clb=4.0m/s t=-51.4C h=80.1% p=278.9hPa 402.999 MHz Type=RS41-SGP ser=U0230111 Radiosonde
EA4GSU-11U02301112022-12-06 23:53:3740.478-3.4196168579726Clb=3.9m/s t=-50.9C h=77.9% p=281.6hPa 403.000 MHz Type=RS41-SGP Radiosonde auto_rx v1.5.3
EA4GBR-10U02301112022-12-06 23:53:3040.478-3.4196169599726Clb=3.9m/s p=281.6hPa t=-50.9C h=77.9% 403.000MHz Type=RS41-SGP rdzTTGOsonde
EA4EKH-11U02301112022-12-06 23:53:0840.4772-3.4222467579672Clb=3.2m/s t=-50.4C h=76.9% p=283.9hPa 402.999 MHz Type=RS41-SGP ser=U0230111 Radiosonde
EA4GBR-10U02301112022-12-06 23:52:5340.4768-3.4236169599643Clb=4.1m/s p=285.2hPa t=-50.1C h=75.0% 403.000MHz Type=RS41-SGP rdzTTGOsonde
LETO2-14U02301112022-12-06 23:52:4340.4765-3.4247167579621Clb=3.7m/s calibration 76% Type=RS41-SGP Radiosonde Tracker +Info: 403MHz@gmail.com
EA4GBR-10U02301112022-12-06 23:52:1540.4756-3.4274970569562Clb=3.2m/s p=288.8hPa t=-49.4C h=75.4% 403.000MHz Type=RS41-SGP rdzTTGOsonde
LETO2-14U02301112022-12-06 23:51:5740.475-3.4297370569514Clb=3.8m/s calibration 74% Type=RS41-SGP batt=2.7V Radiosonde Tracker +Info: 403MHz@gmail.com
EA4GBR-10U02301112022-12-06 23:51:4840.4746-3.4312574599480Clb=4.0m/s p=292.3hPa t=-48.6C h=73.7% 403.000MHz Type=RS41-SGP rdzTTGOsonde
EA4EKH-11U02301112022-12-06 23:51:3940.4741-3.4329572529445Clb=3.8m/s t=-48.3C h=73.5% p=293.9hPa 402.999 MHz Type=RS41-SGP ser=U0230111 Radiosonde
EA4GBR-10U02301112022-12-06 23:51:2740.4735-3.4351173549397Clb=3.7m/s p=296.0hPa t=-47.9C h=71.1% 403.000MHz Type=RS41-SGP rdzTTGOsonde
EA4EKH-12U02301112022-12-06 23:51:2640.4729-3.4381272489331Clb=4.2m/s p=299.0hPa t=-47.2C h=67.8% 403.000MHz Type=RS41-SGP rdzTTGOsonde
LETO2-14U02301112022-12-06 23:51:2540.4727-3.438671549320Clb=4.2m/s calibration 68% Type=RS41-SGP Radiosonde Tracker +Info: 403MHz@gmail.com
EA4GBR-10U02301112022-12-06 23:51:2340.4726-3.4389474569313Clb=4.2m/s p=299.9hPa t=-47.1C h=67.0% 403.000MHz Type=RS41-SGP rdzTTGOsonde
LETO2-14U02301112022-12-06 23:51:1940.4725-3.439673509298Clb=3.9m/s calibration 68% Type=RS41-SGP Radiosonde Tracker +Info: 403MHz@gmail.com
LETO2-14U02301112022-12-06 23:51:1540.4723-3.4405475529277Clb=3.5m/s calibration 66% Type=RS41-SGP batt=2.7V Radiosonde Tracker +Info: 403MHz@gmail.com
EA4EKH-12U02301112022-12-06 23:51:0840.472-3.4414970549254Clb=4.3m/s p=302.6hPa t=-46.5C h=67.0% 403.000MHz Type=RS41-SGP rdzTTGOsonde
LETO2-14U02301112022-12-06 23:51:0740.4719-3.4418372569248Clb=3.6m/s calibration 62% Type=RS41-SGP Radiosonde Tracker +Info: 403MHz@gmail.com
EA4GBR-10U02301112022-12-06 23:51:0340.4718-3.442574549232Clb=4.3m/s p=303.6hPa t=-46.3C h=66.5% 403.000MHz Type=RS41-SGP rdzTTGOsonde
LETO2-14U02301112022-12-06 23:51:0240.4717-3.4428273509225Clb=4.2m/s calibration 62% Type=RS41-SGP Radiosonde Tracker +Info: 403MHz@gmail.com
EA4EKH-11U02301112022-12-06 23:51:0140.4716-3.4431372489217Clb=3.3m/s t=-46.2C h=67.1% p=304.2hPa 402.999 MHz Type=RS41-SGP ser=U0230111 Radiosonde
LETO2-14U02301112022-12-06 23:51:0040.4714-3.443972489200Clb=3.9m/s calibration 58% Type=RS41-SGP batt=2.7V Radiosonde Tracker +Info: 403MHz@gmail.com
LETO2-14U02301112022-12-06 23:50:5740.4711-3.4451672509171Clb=4.0m/s calibration 56% Type=RS41-SGP Radiosonde Tracker +Info: 403MHz@gmail.com
EA4GBR-10U02301112022-12-06 23:50:5640.4708-3.4463871489142Clb=3.8m/s p=307.7hPa t=-45.5C h=65.3% 403.000MHz Type=RS41-SGP rdzTTGOsonde
EA4GSU-11U02301112022-12-06 23:50:5540.47-3.449571469065Clb=4.5m/s t=-44.8C h=66.9% p=311.2hPa 403.000 MHz Type=RS41-SGP Radiosonde auto_rx v1.5.3
EA4EKH-11U02301112022-12-06 23:50:5440.4695-3.4527778548981Clb=3.3m/s t=-44.0C h=67.1% p=315.1hPa 403.000 MHz Type=RS41-SGP ser=U0230111 Radiosonde
EA4EKH-11U02301112022-12-06 23:50:5340.4692-3.4571792508849Clb=5.5m/s t=-43.0C h=64.7% p=321.3hPa 403.000 MHz Type=RS41-SGP ser=U0230111 Radiosonde
EA4GBR-10U02301112022-12-06 23:50:5240.4692-3.4574890468838Clb=4.7m/s p=321.9hPa t=-42.9C h=65.4% 403.000MHz Type=RS41-SGP rdzTTGOsonde
LETO2-14U02301112022-12-06 23:50:5140.4694-3.46018100418750Clb=4.5m/s calibration 41% Type=RS41-SGP Radiosonde Tracker +Info: 403MHz@gmail.com
EA4EKH-11U02301112022-12-06 23:50:4840.4695-3.46146103378708Clb=4.4m/s t=-41.8C h=64.7% p=328.1hPa 403.000 MHz Type=RS41-SGP ser=U0230111 Radiosonde
EA4GSU-11U02301112022-12-06 23:50:4640.4696-3.46241108398676Clb=3.7m/s t=-41.5C h=62.9% p=329.6hPa 403.000 MHz Type=RS41-SGP Radiosonde auto_rx v1.5.3
EA4GBR-10U02301112022-12-06 23:50:2840.4699-3.46393105418634Clb=4.0m/s p=331.7hPa t=-41.1C h=62.0% 403.000MHz Type=RS41-SGP rdzTTGOsonde
EA4EKH-11U02301112022-12-06 23:50:1440.4702-3.46528103398593Clb=3.7m/s t=-40.8C h=61.8% p=333.8hPa 403.000 MHz Type=RS41-SGP ser=U0230111 Radiosonde
EA4GSU-11U02301112022-12-06 23:50:1040.4705-3.46691102378549Clb=3.7m/s t=-40.4C h=61.8% p=335.9hPa 403.000 MHz Type=RS41-SGP Radiosonde auto_rx v1.5.3
EA4GBR-10U02301112022-12-06 23:49:5040.4705-3.46691104398549Clb=3.7m/s p=335.9hPa t=-40.4C h=61.9% 403.000MHz Type=RS41-SGP rdzTTGOsonde
EA4EKH-11U02301112022-12-06 23:49:2440.4709-3.46909104398486Clb=2.6m/s t=-39.9C h=59.6% p=338.9hPa 403.000 MHz Type=RS41-SGP ser=U0230111 Radiosonde
EA4GSU-11U02301112022-12-06 23:49:2240.471-3.46944104358476Clb=2.9m/s t=-39.8C h=58.4% p=339.4hPa 403.000 MHz Type=RS41-SGP Radiosonde auto_rx v1.5.3
EA4GBR-10U02301112022-12-06 23:49:1340.4711-3.4698113418467Clb=2.7m/s p=339.9hPa t=-39.7C h=58.0% 403.000MHz Type=RS41-SGP rdzTTGOsonde
EA4EKH-12U02301112022-12-06 23:48:3740.4717-3.47244107338386Clb=3.1m/s p=343.8hPa t=-39.0C h=51.9% 403.000MHz Type=RS41-SGP rdzTTGOsonde
EA4GSU-11U02301112022-12-06 23:48:3540.4717-3.47265101318379Clb=2.8m/s t=-39.0C h=52.2% p=344.2hPa 403.000 MHz Type=RS41-SGP Radiosonde auto_rx v1.5.3
EA4GBR-10U02301112022-12-06 23:48:3440.4717-3.47265103318379Clb=2.8m/s p=344.2hPa t=-39.0C h=52.2% 403.000MHz Type=RS41-SGP rdzTTGOsonde
EA4GBR-10U02301112022-12-06 23:47:5940.4721-3.4752196338284Clb=4.4m/s p=349.0hPa t=-38.1C h=42.3% 403.000MHz Type=RS41-SGP rdzTTGOsonde
EA4EKH-11U02301112022-12-06 23:47:5440.4722-3.47585100318261Clb=3.5m/s t=-37.9C h=41.6% p=350.3hPa 403.000 MHz Type=RS41-SGP ser=U0230111 Radiosonde
EA4EKH-12U02301112022-12-06 23:47:2140.4723-3.477893318184Clb=3.9m/s p=354.2hPa t=-37.1C h=38.8% 403.000MHz Type=RS41-SGP rdzTTGOsonde
EA4EKH-11U02301112022-12-06 23:47:0240.4723-3.4790690308138Clb=3.9m/s t=-36.7C h=38.1% p=356.5hPa 403.000 MHz Type=RS41-SGP ser=U0230111 Radiosonde
EA4GBR-10U02301112022-12-06 23:46:4040.4723-3.4804588318078Clb=6.3m/s p=359.5hPa t=-36.1C h=36.2% 403.000MHz Type=RS41-SGP rdzTTGOsonde
EA4EKH-12U02301112022-12-06 23:46:3740.4723-3.4806885358067Clb=4.1m/s p=360.2hPa t=-36.0C h=36.4% 403.000MHz Type=RS41-SGP rdzTTGOsonde
EA4EKH-11U02301112022-12-06 23:46:1140.4723-3.482494357994Clb=6.1m/s t=-35.3C h=35.0% p=364.0hPa 403.000 MHz Type=RS41-SGP ser=U0230111 Radiosonde
EA4GBR-10U02301112022-12-06 23:45:5940.4723-3.4831590357955Clb=5.5m/s p=365.9hPa t=-35.0C h=35.0% 403.000MHz Type=RS41-SGP rdzTTGOsonde
EA4EKH-11U02301112022-12-06 23:45:2240.472-3.4861174357832Clb=4.2m/s t=-33.8C h=34.5% p=372.5hPa 403.000 MHz Type=RS41-SGP ser=U0230111 Radiosonde
EA4GBR-10U02301112022-12-06 23:45:2040.4719-3.4862275357828Clb=5.3m/s p=372.7hPa t=-33.7C h=33.4% 403.000MHz Type=RS41-SGP rdzTTGOsonde
EA4EKH-12U02301112022-12-06 23:44:5840.4718-3.4878586417769Clb=4.9m/s p=375.9hPa t=-33.2C h=34.0% 403.000MHz Type=RS41-SGP rdzTTGOsonde
EA4GBR-10U02301112022-12-06 23:44:4240.4716-3.4892488397731Clb=4.3m/s p=377.9hPa t=-32.8C h=33.7% 403.000MHz Type=RS41-SGP rdzTTGOsonde
EA4EKH-11U02301112022-12-06 23:44:3640.4716-3.489977417713Clb=4.3m/s t=-32.6C h=33.4% p=379.0hPa 403.000 MHz Type=RS41-SGP ser=U0230111 Radiosonde
EA4EKH-12U02301112022-12-06 23:44:2740.4714-3.4905676417696Clb=4.2m/s p=379.8hPa t=-32.5C h=33.0% 403.000MHz Type=RS41-SGP rdzTTGOsonde
EA4GBR-10U02301112022-12-06 23:44:0540.4711-3.4925479437641Clb=3.8m/s p=382.7hPa t=-32.0C h=34.1% 403.000MHz Type=RS41-SGP rdzTTGOsonde
EA4EKH-11U02301112022-12-06 23:43:5340.4709-3.4940179447603Clb=3.2m/s t=-31.7C h=39.7% p=384.8hPa 403.000 MHz Type=RS41-SGP ser=U0230111 Radiosonde
EA4EKH-12U02301112022-12-06 23:43:5040.4708-3.4942881417596Clb=3.5m/s p=385.2hPa t=-31.6C h=41.1% 403.000MHz Type=RS41-SGP rdzTTGOsonde
LETO2-14U02301112022-12-06 23:43:4940.4708-3.4946878437585Clb=3.7m/s calibration 11% Type=RS41 batt=2.9V Radiosonde Tracker +Info: 403MHz@gmail.com
EA4GBR-10U02301112022-12-06 23:43:3840.4705-3.4958978447554Clb=3.9m/s p=387.4hPa t=-31.5C h=56.0% 403.000MHz Type=RS41-SGP rdzTTGOsonde
EA4EKH-12U02301112022-12-06 23:43:3140.4704-3.4970785467527Clb=2.5m/s p=389.0hPa t=-31.3C h=56.0% 403.000MHz Type=RS41-SGP rdzTTGOsonde
EA4EKH-11U02301112022-12-06 23:43:2940.4702-3.4985786447493Clb=3.5m/s t=-31.0C h=54.9% p=390.9hPa 403.000 MHz Type=RS41-SGP ser=U0230111 Radiosonde
EA4GBR-10U02301112022-12-06 23:43:2740.4702-3.499685467468Clb=4.2m/s p=392.3hPa t=-30.8C h=53.3% 403.000MHz Type=RS41-SGP rdzTTGOsonde
EA4EKH-12U02301112022-12-06 23:43:2440.4701-3.5008285467440Clb=3.0m/s p=393.8hPa t=-30.5C h=53.4% 403.000MHz Type=RS41-SGP rdzTTGOsonde
EA4EKH-11U02301112022-12-06 23:43:1040.4699-3.5031387397384Clb=2.7m/s t=-30.2C h=54.7% p=396.9hPa 403.000 MHz Type=RS41-SGP ser=U0230111 Radiosonde
EA4GBR-10U02301112022-12-06 23:43:0940.4699-3.5031288417384Clb=2.7m/s p=396.9hPa t=-30.2C h=54.8% 403.000MHz Type=RS41-SGP rdzTTGOsonde
EA4EKH-12U02301112022-12-06 23:43:0440.4698-3.5039690437364Clb=3.9m/s p=397.9hPa t=-30.0C h=53.5% 403.000MHz Type=RS41-SGP rdzTTGOsonde
EA4GSU-11U02301112022-12-06 23:43:0040.4698-3.5064989377301Clb=4.7m/s t=-29.5C h=52.8% p=401.6hPa 403.000 MHz Type=RS41-SGP Radiosonde auto_rx v1.5.3
EA4EKH-12U02301112022-12-06 23:42:5840.4699-3.5092993377222Clb=3.4m/s p=406.0hPa t=-29.1C h=24.0% 403.000MHz Type=RS41-SGP rdzTTGOsonde
EA4GBR-10U02301112022-12-06 23:42:5740.47-3.50954105377214Clb=3.5m/s p=406.5hPa t=-29.1C h=21.2% 403.000MHz Type=RS41-SGP rdzTTGOsonde
EA4EKH-11U02301112022-12-06 23:42:4440.4703-3.51079101287167Clb=3.6m/s t=-28.7C h=19.3% p=409.2hPa 403.000 MHz Type=RS41-SGP ser=U0230111 Radiosonde
EA4EKH-12U02301112022-12-06 23:42:3340.4704-3.51138109307145Clb=3.9m/s p=410.4hPa t=-28.4C h=18.2% 403.000MHz Type=RS41-SGP rdzTTGOsonde
EA4GBR-10U02301112022-12-06 23:42:2440.4706-3.51182113287127Clb=3.7m/s p=411.3hPa t=-28.3C h=17.3% 403.000MHz Type=RS41-SGP rdzTTGOsonde
EA4EKH-12U02301112022-12-06 23:41:5940.4709-3.51327116307071Clb=3.4m/s p=414.6hPa t=-27.8C h=11.0% 403.000MHz Type=RS41-SGP rdzTTGOsonde
EA4EKH-11U02301112022-12-06 23:41:5540.471-3.51362111287058Clb=4.0m/s t=-27.7C h=10.3% p=415.3hPa 403.000 MHz Type=RS41-SGP ser=U0230111 Radiosonde
EA4GBR-10U02301112022-12-06 23:41:4640.4712-3.51408108267039Clb=3.8m/s p=416.3hPa t=-27.5C h=9.4% 403.000MHz Type=RS41-SGP rdzTTGOsonde
EA4EKH-12U02301112022-12-06 23:41:2740.4714-3.51521106286993Clb=2.7m/s p=418.9hPa t=-27.3C h=7.4% 403.000MHz Type=RS41-SGP rdzTTGOsonde
EA4GBR-10U02301112022-12-06 23:41:0940.4715-3.5162489306953Clb=3.7m/s p=421.4hPa t=-27.1C h=6.9% 403.000MHz Type=RS41-SGP rdzTTGOsonde
EA4EKH-11U02301112022-12-06 23:41:0740.4715-3.5164489286945Clb=4.3m/s t=-27.0C h=6.8% p=421.9hPa 403.000 MHz Type=RS41-SGP ser=U0230111 Radiosonde
EA4EKH-12U02301112022-12-06 23:40:5740.4715-3.5170888306920Clb=4.2m/s p=423.1hPa t=-26.9C h=6.8% 403.000MHz Type=RS41-SGP rdzTTGOsonde
EA4GSU-11U02301112022-12-06 23:40:4240.4715-3.5181589306881Clb=3.8m/s t=-26.7C h=6.9% p=425.6hPa 403.000 MHz Type=RS41-SGP Radiosonde auto_rx v1.5.3
EA4GBR-10U02301112022-12-06 23:40:3340.4715-3.5185493286867Clb=4.0m/s p=426.5hPa t=-26.6C h=6.8% 403.000MHz Type=RS41-SGP rdzTTGOsonde
EA4EKH-12U02301112022-12-06 23:40:2740.4715-3.5191688286843Clb=3.8m/s p=427.3hPa t=-26.4C h=6.7% 403.000MHz Type=RS41-SGP rdzTTGOsonde
EA4EKH-11U02301112022-12-06 23:40:2140.4715-3.5194393286832Clb=4.0m/s t=-26.3C h=6.8% p=428.5hPa 403.000 MHz Type=RS41-SGP ser=U0230111 Radiosonde
EA4GSU-11U02301112022-12-06 23:40:0040.4715-3.5208494266779Clb=3.2m/s t=-26.0C h=6.2% p=431.6hPa 403.000 MHz Type=RS41-SGP Radiosonde auto_rx v1.5.3
EA4GBR-10U02301112022-12-06 23:39:5840.4715-3.5208496286779Clb=3.2m/s p=431.6hPa t=-26.0C h=6.2% 403.000MHz Type=RS41-SGP rdzTTGOsonde
EA4EKH-11U02301112022-12-06 23:39:4540.4716-3.52211100226728Clb=4.4m/s t=-25.6C h=5.7% p=434.8hPa 403.000 MHz Type=RS41-SGP ser=U0230111 Radiosonde
EA4EKH-12U02301112022-12-06 23:39:3340.4715-3.5229990306693Clb=3.4m/s p=436.9hPa t=-25.5C h=5.8% 403.000MHz Type=RS41-SGP rdzTTGOsonde
EA4GSU-11U02301112022-12-06 23:39:3040.4715-3.5235291266673Clb=3.8m/s t=-25.6C h=6.5% p=438.0hPa 403.000 MHz Type=RS41-SGP Radiosonde auto_rx v1.5.3
EA4EKH-11U02301112022-12-06 23:39:1440.4716-3.5248793226621Clb=3.0m/s t=-25.4C h=8.0% p=441.1hPa 403.000 MHz Type=RS41-SGP ser=U0230111 Radiosonde
EA4EKH-12U02301112022-12-06 23:39:1340.4716-3.5248795246621Clb=3.0m/s p=441.1hPa t=-25.4C h=8.0% 403.000MHz Type=RS41-SGP rdzTTGOsonde
EA4GSU-11U02301112022-12-06 23:39:0140.4717-3.5260296226575Clb=2.3m/s t=-25.1C h=8.3% p=444.1hPa 403.000 MHz Type=RS41-SGP Radiosonde auto_rx v1.5.3
EA4EKH-12U02301112022-12-06 23:38:5240.4718-3.5265192266555Clb=3.6m/s p=445.2hPa t=-25.1C h=9.0% 403.000MHz Type=RS41-SGP rdzTTGOsonde
EA4EKH-11U02301112022-12-06 23:38:4240.4718-3.5273696226518Clb=3.1m/s t=-25.0C h=9.2% p=447.6hPa 403.000 MHz Type=RS41-SGP ser=U0230111 Radiosonde
EA4EKH-12U02301112022-12-06 23:38:3140.4718-3.5281698286484Clb=3.2m/s p=449.6hPa t=-24.8C h=9.4% 403.000MHz Type=RS41-SGP rdzTTGOsonde
EA4GSU-11U02301112022-12-06 23:38:3040.4719-3.5295382266435Clb=3.0m/s t=-24.4C h=9.9% p=452.6hPa 403.000 MHz Type=RS41-SGP Radiosonde auto_rx v1.5.3
EA4EKH-12U02301112022-12-06 23:38:1540.4719-3.5299987246416Clb=3.6m/s p=453.8hPa t=-24.2C h=9.9% 403.000MHz Type=RS41-SGP rdzTTGOsonde
EA4EKH-12U02301112022-12-06 23:38:1440.4719-3.5317392306350Clb=3.9m/s p=457.9hPa t=-23.7C h=10.4% 403.000MHz Type=RS41-SGP rdzTTGOsonde
EA4GBR-10U02301112022-12-06 23:38:1140.4719-3.5332191306296Clb=3.5m/s p=461.2hPa t=-23.2C h=10.4% 403.000MHz Type=RS41-SGP rdzTTGOsonde
EA4GSU-11U02301112022-12-06 23:38:0640.4719-3.5338586316276Clb=2.8m/s t=-23.0C h=10.5% p=462.4hPa 403.000 MHz Type=RS41-SGP Radiosonde auto_rx v1.5.3
EA4EKH-12U02301112022-12-06 23:38:0540.4719-3.5338587316276Clb=2.8m/s p=462.4hPa t=-23.0C h=10.5% 403.000MHz Type=RS41-SGP rdzTTGOsonde
EA4GBR-10U02301112022-12-06 23:37:4640.4719-3.5354894306225Clb=2.8m/s p=465.8hPa t=-22.6C h=10.7% 403.000MHz Type=RS41-SGP rdzTTGOsonde
EA4EKH-11U02301112022-12-06 23:37:4140.4718-3.5358682306213Clb=3.5m/s t=-22.5C h=10.7% p=466.5hPa 403.000 MHz Type=RS41-SGP ser=U0230111 Radiosonde
EA4GSU-11U02301112022-12-06 23:37:2440.4718-3.5368787286182Clb=2.8m/s t=-22.2C h=10.4% p=468.6hPa 403.000 MHz Type=RS41-SGP Radiosonde auto_rx v1.5.3
EA4EKH-12U02301112022-12-06 23:37:2240.4718-3.5368788306182Clb=2.8m/s p=468.6hPa t=-22.2C h=10.4% 403.000MHz Type=RS41-SGP rdzTTGOsonde
EA4GBR-10U02301112022-12-06 23:37:0840.4717-3.5388293286115Clb=3.8m/s p=470.6hPa t=-21.9C h=10.6% 403.000MHz Type=RS41-SGP rdzTTGOsonde
EA4EKH-12U02301112022-12-06 23:36:5140.4717-3.5389192286112Clb=3.4m/s p=473.1hPa t=-21.5C h=10.4% 403.000MHz Type=RS41-SGP rdzTTGOsonde
EA4GSU-11U02301112022-12-06 23:36:3940.4717-3.5397881306081Clb=3.3m/s t=-21.3C h=11.0% p=474.9hPa 403.000 MHz Type=RS41-SGP Radiosonde auto_rx v1.5.3
EA4GBR-10U02301112022-12-06 23:36:3440.4717-3.5399783286075Clb=3.3m/s p=475.4hPa t=-21.3C h=11.2% 403.000MHz Type=RS41-SGP rdzTTGOsonde
EA4EKH-12U02301112022-12-06 23:36:2040.4716-3.5408687266042Clb=2.8m/s p=477.5hPa t=-21.0C h=10.9% 403.000MHz Type=RS41-SGP rdzTTGOsonde
EA4EKH-11U02301112022-12-06 23:36:0840.4716-3.5417889286010Clb=3.5m/s t=-20.7C h=10.1% p=479.7hPa 403.000 MHz Type=RS41-SGP ser=U0230111 Radiosonde
EA4GBR-10U02301112022-12-06 23:36:0440.4716-3.5420587266000Clb=2.9m/s p=480.3hPa t=-20.6C h=10.0% 403.000MHz Type=RS41-SGP rdzTTGOsonde
EA4GSU-11U02301112022-12-06 23:36:0040.4715-3.542583285984Clb=3.0m/s t=-20.4C h=9.8% p=481.3hPa 403.000 MHz Type=RS41-SGP Radiosonde auto_rx v1.5.3
EA4EKH-12U02301112022-12-06 23:35:5640.4715-3.5426982305977Clb=2.8m/s p=481.9hPa t=-20.4C h=9.7% 403.000MHz Type=RS41-SGP rdzTTGOsonde
EA4GBR-10U02301112022-12-06 23:35:4240.4715-3.5440691265927Clb=3.0m/s p=484.9hPa t=-19.9C h=6.9% 403.000MHz Type=RS41-SGP rdzTTGOsonde
EA4EKH-12U02301112022-12-06 23:35:3640.4715-3.5445288305911Clb=3.7m/s p=486.0hPa t=-19.7C h=6.5% 403.000MHz Type=RS41-SGP rdzTTGOsonde
EA4GSU-11U02301112022-12-06 23:35:3040.4715-3.5452288225884Clb=2.9m/s t=-19.5C h=5.9% p=487.7hPa 403.000 MHz Type=RS41-SGP Radiosonde auto_rx v1.5.3
EA4GBR-10U02301112022-12-06 23:35:1840.4715-3.5460891285849Clb=2.7m/s p=490.0hPa t=-19.1C h=5.3% 403.000MHz Type=RS41-SGP rdzTTGOsonde
EA4EKH-12U02301112022-12-06 23:35:1540.4715-3.5463487265840Clb=3.6m/s p=490.6hPa t=-19.0C h=5.7% 403.000MHz Type=RS41-SGP rdzTTGOsonde
EA4EKH-11U02301112022-12-06 23:35:0540.4715-3.5473293265804Clb=3.5m/s t=-18.7C h=5.7% p=493.0hPa 403.000 MHz Type=RS41-SGP ser=U0230111 Radiosonde
EA4GSU-11U02301112022-12-06 23:35:0040.4715-3.5478491285785Clb=2.9m/s t=-18.6C h=5.5% p=494.2hPa 403.000 MHz Type=RS41-SGP Radiosonde auto_rx v1.5.3
EA4GBR-10U02301112022-12-06 23:34:5640.4715-3.5480189265778Clb=3.3m/s p=494.7hPa t=-18.5C h=5.5% 403.000MHz Type=RS41-SGP rdzTTGOsonde
EA4EKH-12U02301112022-12-06 23:34:5440.4715-3.5482789285769Clb=2.2m/s p=495.1hPa t=-18.5C h=5.6% 403.000MHz Type=RS41-SGP rdzTTGOsonde
EA4EKH-11U02301112022-12-06 23:34:3440.4715-3.5500295245701Clb=3.9m/s t=-18.1C h=9.1% p=499.9hPa 403.000 MHz Type=RS41-SGP ser=U0230111 Radiosonde
EA4EKH-12U02301112022-12-06 23:34:3340.4715-3.5500296265701Clb=3.9m/s p=499.9hPa t=-18.1C h=9.1% 403.000MHz Type=RS41-SGP rdzTTGOsonde
EA4GSU-11U02301112022-12-06 23:34:3040.4715-3.5504291245682Clb=2.8m/s t=-18.0C h=8.8% p=501.1hPa 403.000 MHz Type=RS41-SGP Radiosonde auto_rx v1.5.3
EA4EKH-12U02301112022-12-06 23:34:1340.4715-3.55157100195623Clb=3.3m/s p=505.1hPa t=-17.6C h=6.5% 403.000MHz Type=RS41-SGP rdzTTGOsonde
EA4GBR-10U02301112022-12-06 23:34:1240.4715-3.5516992195615Clb=3.2m/s p=505.5hPa t=-17.5C h=6.2% 403.000MHz Type=RS41-SGP rdzTTGOsonde
EA4EKH-11U02301112022-12-06 23:34:0440.4716-3.5522692205585Clb=2.9m/s t=-17.3C h=5.4% p=507.6hPa 403.000 MHz Type=RS41-SGP ser=U0230111 Radiosonde
EA4GSU-11U02301112022-12-06 23:34:0040.4716-3.55264105245568Clb=3.2m/s t=-17.1C h=5.4% p=508.7hPa 403.000 MHz Type=RS41-SGP Radiosonde auto_rx v1.5.3
EA4EKH-12U02301112022-12-06 23:33:5240.4717-3.5530297225554Clb=3.6m/s p=509.8hPa t=-17.0C h=5.3% 403.000MHz Type=RS41-SGP rdzTTGOsonde
EA4EKH-11U02301112022-12-06 23:33:4940.4718-3.5546294245483Clb=2.9m/s t=-16.3C h=5.0% p=514.7hPa 403.000 MHz Type=RS41-SGP ser=U0230111 Radiosonde
EA4EKH-12U02301112022-12-06 23:33:3740.4719-3.5561491245416Clb=2.9m/s p=519.2hPa t=-15.7C h=4.9% 403.000MHz Type=RS41-SGP rdzTTGOsonde
EA4GBR-10U02301112022-12-06 23:33:2940.4719-3.556692225397Clb=3.5m/s p=520.6hPa t=-15.5C h=4.9% 403.000MHz Type=RS41-SGP rdzTTGOsonde
EA4EKH-11U02301112022-12-06 23:33:2340.4719-3.55714103245374Clb=2.4m/s t=-15.3C h=4.9% p=522.1hPa 403.000 MHz Type=RS41-SGP ser=U0230111 Radiosonde
EA4EKH-12U02301112022-12-06 23:33:0840.472-3.5577795265350Clb=3.0m/s p=523.8hPa t=-15.1C h=4.9% 403.000MHz Type=RS41-SGP rdzTTGOsonde
EA4GBR-10U02301112022-12-06 23:32:5840.472-3.5584286245325Clb=3.5m/s p=525.5hPa t=-14.9C h=5.2% 403.000MHz Type=RS41-SGP rdzTTGOsonde
EA4EKH-11U02301112022-12-06 23:32:4040.4719-3.5594984205280Clb=3.9m/s t=-14.7C h=6.7% p=528.7hPa 403.000 MHz Type=RS41-SGP ser=U0230111 Radiosonde
EA4EKH-12U02301112022-12-06 23:32:3840.4719-3.5594985205280Clb=3.9m/s p=528.5hPa t=-14.7C h=6.7% 403.000MHz Type=RS41-SGP rdzTTGOsonde
EA4GBR-10U02301112022-12-06 23:32:2840.4719-3.5601580285254Clb=5.3m/s p=530.5hPa t=-14.5C h=7.1% 403.000MHz Type=RS41-SGP rdzTTGOsonde
EA4EKH-12U02301112022-12-06 23:32:0940.4718-3.5612484195201Clb=4.3m/s p=534.1hPa t=-14.1C h=7.5% 403.000MHz Type=RS41-SGP rdzTTGOsonde
EA4GBR-10U02301112022-12-06 23:31:5840.4716-3.561974225163Clb=6.0m/s p=537.2hPa t=-13.7C h=7.0% 403.000MHz Type=RS41-SGP rdzTTGOsonde
EA4EKH-12U02301112022-12-06 23:31:4740.4716-3.5625875195108Clb=4.0m/s p=540.8hPa t=-13.3C h=6.2% 403.000MHz Type=RS41-SGP rdzTTGOsonde
EA4GBR-10U02301112022-12-06 23:31:3740.4715-3.5632188195054Clb=4.2m/s p=544.5hPa t=-12.9C h=7.3% 403.000MHz Type=RS41-SGP rdzTTGOsonde
EA4EKH-12U02301112022-12-06 23:31:2740.4715-3.5636497175016Clb=6.2m/s p=547.4hPa t=-12.6C h=6.7% 403.000MHz Type=RS41-SGP rdzTTGOsonde
EA4GBR-10U02301112022-12-06 23:31:1340.4716-3.5644392194942Clb=5.5m/s p=552.5hPa t=-11.9C h=6.2% 403.000MHz Type=RS41-SGP rdzTTGOsonde
EA4EKH-12U02301112022-12-06 23:31:0640.4716-3.5648118174911Clb=5.7m/s p=554.9hPa t=-11.6C h=6.0% 403.000MHz Type=RS41-SGP rdzTTGOsonde
EA4EKH-11U02301112022-12-06 23:30:5740.4717-3.5653596114862Clb=4.0m/s t=-11.1C h=5.8% p=558.5hPa 403.000 MHz Type=RS41-SGP ser=U0230111 Radiosonde
EA4GBR-10U02301112022-12-06 23:30:5040.4717-3.56553101134842Clb=4.7m/s p=559.8hPa t=-10.9C h=5.8% 403.000MHz Type=RS41-SGP rdzTTGOsonde
EA4EKH-12U02301112022-12-06 23:30:4640.4717-3.56574106174828Clb=4.8m/s p=560.9hPa t=-10.8C h=5.7% 403.000MHz Type=RS41-SGP rdzTTGOsonde
EA4GBR-10U02301112022-12-06 23:30:2840.4718-3.5665796134763Clb=3.2m/s p=565.8hPa t=-10.2C h=5.7% 403.000MHz Type=RS41-SGP rdzTTGOsonde
EA4EKH-12U02301112022-12-06 23:30:2640.4718-3.5666410294755Clb=5.6m/s p=566.5hPa t=-10.1C h=5.7% 403.000MHz Type=RS41-SGP rdzTTGOsonde
EA4GBR-10U02301112022-12-06 23:30:0740.4718-3.56742122174666Clb=2.8m/s p=572.8hPa t=-9.4C h=5.7% 403.000MHz Type=RS41-SGP rdzTTGOsonde
EA4EKH-12U02301112022-12-06 23:30:0540.4718-3.56747117194663Clb=4.6m/s p=573.0hPa t=-9.4C h=5.7% 403.000MHz Type=RS41-SGP rdzTTGOsonde
EA4EKH-11U02301112022-12-06 23:29:5440.4719-3.5681496174595Clb=4.2m/s t=-8.9C h=5.9% p=577.6hPa 403.000 MHz Type=RS41-SGP ser=U0230111 Radiosonde
EA4EKH-12U02301112022-12-06 23:29:4440.4719-3.56879104224552Clb=4.6m/s p=580.5hPa t=-8.8C h=5.6% 403.000MHz Type=RS41-SGP rdzTTGOsonde
EA4EKH-12U02301112022-12-06 23:29:2440.472-3.56997102224465Clb=4.2m/s p=587.8hPa t=-8.2C h=5.5% 403.000MHz Type=RS41-SGP rdzTTGOsonde
EA4EKH-12U02301112022-12-06 23:29:1740.4721-3.5712369114363Clb=5.6m/s p=595.3hPa t=-7.8C h=5.1% 403.000MHz Type=RS41-SGP rdzTTGOsonde
EA4EKH-11U02301112022-12-06 23:29:0240.472-3.571658094295Clb=3.8m/s t=-7.5C h=5.0% p=600.4hPa 403.000 MHz Type=RS41-SGP ser=U0230111 Radiosonde
EA4EKH-12U02301112022-12-06 23:28:5140.472-3.5720187174260Clb=3.9m/s p=603.4hPa t=-7.2C h=4.8% 403.000MHz Type=RS41-SGP rdzTTGOsonde
EA4GBR-10U02301112022-12-06 23:28:4540.472-3.5722790134236Clb=5.2m/s p=605.5hPa t=-7.0C h=4.8% 403.000MHz Type=RS41-SGP rdzTTGOsonde
EA4EKH-12U02301112022-12-06 23:28:2740.472-3.57284100154183Clb=4.0m/s p=609.5hPa t=-6.7C h=5.0% 403.000MHz Type=RS41-SGP rdzTTGOsonde
EA4EKH-11U02301112022-12-06 23:28:2440.472-3.5729691114173Clb=4.2m/s t=-6.6C h=4.9% p=610.4hPa 403.000 MHz Type=RS41-SGP ser=U0230111 Radiosonde
EA4GBR-10U02301112022-12-06 23:28:1840.4719-3.5731675154155Clb=3.0m/s p=611.7hPa t=-6.5C h=4.9% 403.000MHz Type=RS41-SGP rdzTTGOsonde
EA4EKH-12U02301112022-12-06 23:28:0340.4719-3.573899154114Clb=4.2m/s p=615.0hPa t=-6.2C h=4.8% 403.000MHz Type=RS41-SGP rdzTTGOsonde
EA4GBR-10U02301112022-12-06 23:27:5240.4719-3.5743285154082Clb=3.6m/s p=617.6hPa t=-5.9C h=4.8% 403.000MHz Type=RS41-SGP rdzTTGOsonde
EA4EKH-11U02301112022-12-06 23:27:5040.4719-3.5744910774068Clb=3.7m/s t=-5.8C h=4.7% p=618.7hPa 403.000 MHz Type=RS41-SGP ser=U0230111 Radiosonde
EA4EKH-12U02301112022-12-06 23:27:4140.4719-3.5747987204043Clb=5.1m/s p=620.5hPa t=-5.6C h=5.2% 403.000MHz Type=RS41-SGP rdzTTGOsonde
EA4EKH-12U02301112022-12-06 23:27:2140.4719-3.575887203955Clb=4.0m/s p=628.0hPa t=-5.1C h=4.9% 403.000MHz Type=RS41-SGP rdzTTGOsonde
EA4EKH-11U02301112022-12-06 23:27:1940.4719-3.5759993203941Clb=6.6m/s t=-5.1C h=5.0% p=629.0hPa 403.000 MHz Type=RS41-SGP ser=U0230111 Radiosonde
EA4GBR-10U02301112022-12-06 23:27:0740.4719-3.5766699153881Clb=5.4m/s p=633.6hPa t=-6.1C h=16.8% 403.000MHz Type=RS41-SGP rdzTTGOsonde
EA4EKH-12U02301112022-12-06 23:27:0040.4719-3.5769678153845Clb=4.6m/s p=636.1hPa t=-6.8C h=27.5% 403.000MHz Type=RS41-SGP rdzTTGOsonde
EA4EKH-11U02301112022-12-06 23:26:4840.4717-3.5774477133794Clb=4.7m/s t=-6.8C h=37.3% p=640.5hPa 403.000 MHz Type=RS41-SGP ser=U0230111 Radiosonde
EA4GBR-10U02301112022-12-06 23:26:4540.4717-3.5775375133786Clb=4.5m/s p=641.3hPa t=-6.7C h=40.1% 403.000MHz Type=RS41-SGP rdzTTGOsonde
EA4EKH-12U02301112022-12-06 23:26:3940.4717-3.5778478173756Clb=5.2m/s p=643.5hPa t=-6.8C h=51.4% 403.000MHz Type=RS41-SGP rdzTTGOsonde
EA4GSU-11U02301112022-12-06 23:26:3040.4714-3.5783141193712Clb=6.1m/s t=-6.8C h=67.8% p=647.5hPa 403.000 MHz Type=RS41-SGP Radiosonde auto_rx v1.5.3
EA4GBR-10U02301112022-12-06 23:26:2440.4713-3.5784930133690Clb=6.2m/s p=649.5hPa t=-6.6C h=68.0% 403.000MHz Type=RS41-SGP rdzTTGOsonde
EA4EKH-12U02301112022-12-06 23:26:1840.4711-3.5785135973662Clb=6.6m/s p=651.6hPa t=-6.3C h=67.8% 403.000MHz Type=RS41-SGP rdzTTGOsonde
EA4EKH-11U02301112022-12-06 23:26:1740.4711-3.578524163649Clb=6.0m/s t=-6.2C h=67.0% p=652.5hPa 403.000 MHz Type=RS41-SGP ser=U0230111 Radiosonde
EA4GBR-10U02301112022-12-06 23:26:0140.4708-3.5787930173586Clb=5.0m/s p=657.8hPa t=-5.7C h=66.7% 403.000MHz Type=RS41-SGP rdzTTGOsonde
EA4GSU-11U02301112022-12-06 23:26:0040.4707-3.578872493572Clb=5.5m/s t=-5.6C h=66.2% p=658.9hPa 403.000 MHz Type=RS41-SGP Radiosonde auto_rx v1.5.3
EA4EKH-12U02301112022-12-06 23:25:5740.4707-3.578882243568Clb=4.1m/s p=659.3hPa t=-5.6C h=66.2% 403.000MHz Type=RS41-SGP rdzTTGOsonde
EA4EKH-11U02301112022-12-06 23:25:4640.4705-3.5790711623522Clb=4.3m/s t=-5.2C h=64.8% p=663.2hPa 403.000 MHz Type=RS41-SGP ser=U0230111 Radiosonde
EA4EKH-12U02301112022-12-06 23:25:3740.4704-3.579296263490Clb=3.8m/s p=665.9hPa t=-5.0C h=66.3% 403.000MHz Type=RS41-SGP rdzTTGOsonde
EA4GSU-11U02301112022-12-06 23:25:3040.4704-3.579486093449Clb=6.4m/s t=-4.8C h=69.3% p=669.4hPa 403.000 MHz Type=RS41-SGP Radiosonde auto_rx v1.5.3
EA4GBR-10U02301112022-12-06 23:25:1640.4703-3.579685143388Clb=7.5m/s p=674.9hPa t=-4.8C h=69.7% 403.000MHz Type=RS41-SGP rdzTTGOsonde
EA4EKH-11U02301112022-12-06 23:25:1540.4702-3.579724173371Clb=5.5m/s t=-5.0C h=70.5% p=676.1hPa 403.000 MHz Type=RS41-SGP ser=U0230111 Radiosonde
EA4GSU-11U02301112022-12-06 23:25:0840.4701-3.5799735943290Clb=3.8m/s t=-5.0C h=75.4% p=682.7hPa 403.000 MHz Type=RS41-SGP Radiosonde auto_rx v1.5.3
EA4GBR-10U02301112022-12-06 23:25:0340.4701-3.580149543239Clb=3.7m/s p=684.3hPa t=-5.0C h=75.8% 403.000MHz Type=RS41-SGP rdzTTGOsonde
EA4EKH-11U02301112022-12-06 23:24:5140.4701-3.5801611423235Clb=3.5m/s t=-5.0C h=77.0% p=687.8hPa 403.000 MHz Type=RS41-SGP ser=U0230111 Radiosonde
EA4EKH-12U02301112022-12-06 23:24:4040.4701-3.58039593202Clb=3.3m/s p=690.6hPa t=-4.9C h=78.0% 403.000MHz Type=RS41-SGP rdzTTGOsonde
EA4GBR-10U02301112022-12-06 23:24:3740.4701-3.580357993196Clb=2.9m/s p=691.5hPa t=-4.9C h=78.4% 403.000MHz Type=RS41-SGP rdzTTGOsonde
EA4GSU-11U02301112022-12-06 23:24:3440.4701-3.580439163185Clb=4.7m/s t=-4.8C h=78.1% p=692.2hPa 403.000 MHz Type=RS41-SGP Radiosonde auto_rx v1.5.3
EA4EKH-12U02301112022-12-06 23:24:1540.4702-3.58072111133133Clb=2.4m/s p=696.5hPa t=-5.9C h=100.7% 403.000MHz Type=RS41-SGP rdzTTGOsonde
EA4EKH-11U02301112022-12-06 23:24:1440.4703-3.58076108113130Clb=3.5m/s t=-5.9C h=100.0% p=696.8hPa 403.000 MHz Type=RS41-SGP ser=U0230111 Radiosonde
EA4GBR-10U02301112022-12-06 23:24:0940.4702-3.580852113114Clb=4.7m/s p=698.1hPa t=-5.8C h=100.3% 403.000MHz Type=RS41-SGP rdzTTGOsonde
EA4GSU-11U02301112022-12-06 23:24:0040.4702-3.5809120373070Clb=6.2m/s t=-5.4C h=100.0% p=702.4hPa 403.000 MHz Type=RS41-SGP Radiosonde auto_rx v1.5.3
EA4EKH-12U02301112022-12-06 23:23:5240.4702-3.5807428263035Clb=5.1m/s p=705.4hPa t=-5.2C h=100.3% 403.000MHz Type=RS41-SGP rdzTTGOsonde
EA4GBR-10U02301112022-12-06 23:23:4540.4703-3.5806918173002Clb=3.9m/s p=708.6hPa t=-5.0C h=100.5% 403.000MHz Type=RS41-SGP rdzTTGOsonde
EA4EKH-11U02301112022-12-06 23:23:4240.4704-3.58054271112979Clb=6.1m/s t=-4.8C h=100.0% p=710.5hPa 403.000 MHz Type=RS41-SGP ser=U0230111 Radiosonde
EA4EKH-12U02301112022-12-06 23:23:3140.4704-3.58043316112934Clb=5.7m/s p=714.4hPa t=-4.6C h=99.8% 403.000MHz Type=RS41-SGP rdzTTGOsonde
EA4GSU-11U02301112022-12-06 23:23:3040.4703-3.580412492921Clb=4.3m/s t=-4.5C h=100.0% p=716.0hPa 403.000 MHz Type=RS41-SGP Radiosonde auto_rx v1.5.3
EA4GBR-10U02301112022-12-06 23:23:2240.4702-3.5804259152892Clb=6.4m/s p=718.4hPa t=-4.3C h=99.3% 403.000MHz Type=RS41-SGP rdzTTGOsonde
EA4EKH-12U02301112022-12-06 23:23:1140.4703-3.5800930192833Clb=4.1m/s p=723.9hPa t=-3.8C h=96.9% 403.000MHz Type=RS41-SGP rdzTTGOsonde
EA4GSU-11U02301112022-12-06 23:23:0040.4701-3.5799510522769Clb=4.2m/s t=-3.2C h=92.9% p=729.5hPa 403.000 MHz Type=RS41-SGP Radiosonde auto_rx v1.5.3
EA4EKH-12U02301112022-12-06 23:22:5140.4702-3.5799833162744Clb=4.9m/s p=732.1hPa t=-2.9C h=92.0% 403.000MHz Type=RS41-SGP rdzTTGOsonde
EA4EKH-11U02301112022-12-06 23:22:4040.4701-3.57984301132681Clb=5.3m/s t=-2.3C h=88.8% p=737.8hPa 403.000 MHz Type=RS41-SGP ser=U0230111 Radiosonde
EA4GBR-10U02301112022-12-06 23:22:3840.4701-3.57984302152681Clb=5.3m/s p=737.8hPa 403.000MHz Type=RS41-SGP rdzTTGOsonde
EA4EKH-12U02301112022-12-06 23:22:3040.4701-3.5796293152647Clb=3.1m/s p=740.8hPa t=-2.0C h=87.7% 403.000MHz Type=RS41-SGP rdzTTGOsonde
EA4GBR-10U02301112022-12-06 23:22:1740.4701-3.5792289152577Clb=6.1m/s p=747.4hPa 403.000MHz Type=RS41-SGP rdzTTGOsonde
EA4EKH-12U02301112022-12-06 23:22:1040.4701-3.5790321992544Clb=6.6m/s p=750.4hPa t=-1.0C h=83.1% 403.000MHz Type=RS41-SGP rdzTTGOsonde
EA4EKH-11U02301112022-12-06 23:22:0940.4701-3.57935622525Clb=4.8m/s t=-0.8C h=81.4% p=752.3hPa 403.000 MHz Type=RS41-SGP ser=U0230111 Radiosonde
EA4GSU-11U02301112022-12-06 23:22:0040.4702-3.5789725462486Clb=5.9m/s t=-0.5C h=81.5% p=755.9hPa 403.000 MHz Type=RS41-SGP Radiosonde auto_rx v1.5.3
EA4GBR-10U02301112022-12-06 23:21:5340.4702-3.5789419672464Clb=4.6m/s 403.000MHz Type=RS41 rdzTTGOsonde
EA4EKH-12U02301112022-12-06 23:21:4940.4702-3.5788327792440Clb=5.3m/s p=759.9hPa t=-0.1C h=79.9% 403.000MHz Type=RS41-SGP rdzTTGOsonde
EA4EKH-11U02301112022-12-06 23:21:3740.4703-3.57848314152385Clb=2.7m/s t=0.3C h=80.6% p=765.8hPa 403.000 MHz Type=RS41-SGP ser=U0230111 Radiosonde
EA4GBR-10U02301112022-12-06 23:21:3140.4702-3.5783222972363Clb=5.4m/s 403.000MHz Type=RS41 rdzTTGOsonde
EA4GSU-11U02301112022-12-06 23:21:3040.4703-3.5783118562350Clb=3.2m/s t=0.5C h=81.9% p=768.7hPa 403.000 MHz Type=RS41-SGP Radiosonde auto_rx v1.5.3
EA4EKH-12U02301112022-12-06 23:21:2940.4703-3.5783118662350Clb=3.2m/s p=768.4hPa t=0.5C h=81.7% 403.000MHz Type=RS41-SGP rdzTTGOsonde
EA4GBR-10U02301112022-12-06 23:21:0840.4701-3.5778430272256Clb=6.6m/s 403.000MHz Type=RS41 rdzTTGOsonde
EA4EKH-11U02301112022-12-06 23:21:0640.4701-3.5777831162238Clb=4.7m/s t=1.2C h=83.3% p=779.6hPa 403.000 MHz Type=RS41-SGP ser=U0230111 Radiosonde
EA4GSU-11U02301112022-12-06 23:21:0040.47-3.57761343152208Clb=3.7m/s t=1.5C h=82.1% p=782.4hPa 403.000 MHz Type=RS41-SGP Radiosonde auto_rx v1.5.3
EA4EKH-12U02301112022-12-06 23:20:4940.4696-3.5774934692172Clb=3.9m/s p=786.0hPa t=1.7C h=82.1% 403.000MHz Type=RS41-SGP rdzTTGOsonde
EA4GBR-10U02301112022-12-06 23:20:4740.4696-3.5774732392165Clb=3.1m/s 403.000MHz Type=RS41 rdzTTGOsonde
EA4EKH-11U02301112022-12-06 23:20:3740.4693-3.5772330492112Clb=6.8m/s t=2.2C h=81.0% p=791.9hPa 403.000 MHz Type=RS41-SGP ser=U0230111 Radiosonde
EA4GSU-11U02301112022-12-06 23:20:3140.4691-3.57713351172086Clb=5.3m/s t=2.4C h=80.7% p=794.4hPa 403.000 MHz Type=RS41-SGP Radiosonde auto_rx v1.5.3
EA4EKH-12U02301112022-12-06 23:20:2840.4691-3.57712351172082Clb=3.6m/s p=794.9hPa t=2.4C h=81.1% 403.000MHz Type=RS41-SGP rdzTTGOsonde
EA4GBR-10U02301112022-12-06 23:20:2440.469-3.57707343132062Clb=4.4m/s 403.000MHz Type=RS41 rdzTTGOsonde
EA4EKH-12U02301112022-12-06 23:20:0740.4685-3.5769729061995Clb=5.4m/s p=803.5hPa t=2.7C h=90.3% 403.000MHz Type=RS41-SGP rdzTTGOsonde
EA4EKH-11U02301112022-12-06 23:20:0440.4685-3.57692342131983Clb=3.1m/s t=2.8C h=90.7% p=804.5hPa 403.000 MHz Type=RS41-SGP ser=U0230111 Radiosonde
EA4GBR-10U02301112022-12-06 23:20:0340.4684-3.57691351171979Clb=5.8m/s 403.000MHz Type=RS41 rdzTTGOsonde
EA4GSU-11U02301112022-12-06 23:20:0040.4683-3.576967241957Clb=5.5m/s t=3.0C h=89.3% p=807.4hPa 403.000 MHz Type=RS41-SGP Radiosonde auto_rx v1.5.3
EA4EKH-12U02301112022-12-06 23:19:4540.4681-3.5771828111900Clb=6.7m/s p=813.0hPa t=3.5C h=87.7% 403.000MHz Type=RS41-SGP rdzTTGOsonde
EA4EKH-11U02301112022-12-06 23:19:3340.4679-3.5773610891841Clb=7.1m/s t=4.0C h=86.9% p=818.8hPa 403.000 MHz Type=RS41-SGP ser=U0230111 Radiosonde
EA4GSU-11U02301112022-12-06 23:19:3040.468-3.5773820021820Clb=4.7m/s t=4.1C h=-1.0% p=820.9hPa 403.000 MHz Type=RS41-SGP Radiosonde auto_rx v1.5.3
EA4EKH-12U02301112022-12-06 23:19:2540.468-3.5773813161808Clb=3.1m/s p=822.0hPa t=4.2C h=86.1% 403.000MHz Type=RS41-SGP rdzTTGOsonde
EA4EKH-12U02301112022-12-06 23:19:0440.468-3.577689871714Clb=5.5m/s p=831.9hPa t=4.7C h=88.9% 403.000MHz Type=RS41-SGP rdzTTGOsonde
EA4EKH-11U02301112022-12-06 23:19:0240.468-3.5777412661700Clb=4.8m/s t=4.8C h=88.4% p=833.4hPa 403.000 MHz Type=RS41-SGP ser=U0230111 Radiosonde
EA4EKH-11U02301112022-12-06 23:18:3140.4681-3.578153741563Clb=3.4m/s t=5.1C h=93.9% p=847.3hPa 403.000 MHz Type=RS41-SGP ser=U0230111 Radiosonde
EA4EKH-12U02301112022-12-06 23:18:2240.4681-3.578217291535Clb=4.9m/s p=850.2hPa t=5.3C h=93.7% 403.000MHz Type=RS41-SGP rdzTTGOsonde
EA4EKH-12U02301112022-12-06 23:18:0240.468-3.5784611141448Clb=5.7m/s p=859.4hPa t=5.9C h=92.0% 403.000MHz Type=RS41-SGP rdzTTGOsonde
EA4EKH-11U02301112022-12-06 23:18:0040.468-3.5784521171430Clb=4.5m/s t=-273.0C h=-1.0% p=861.4hPa 403.000 MHz Type=RS41-SGP ser=U0230111 Radiosonde
EA4EKH-12U02301112022-12-06 23:17:4240.468-3.5787215561364Clb=6.6m/s p=868.2hPa t=6.2C h=96.3% 403.000MHz Type=RS41-SGP rdzTTGOsonde
EA4EKH-11U02301112022-12-06 23:17:2940.4678-3.57884324191300Clb=5.2m/s t=-273.0C h=-1.0% p=-1.0hPa 403.000 MHz Type=RS41 ser=U0230111 Radiosonde
EA4EKH-12U02301112022-12-06 23:17:2140.4677-3.5788910961277Clb=5.1m/s p=877.4hPa t=6.6C h=100.1% 403.000MHz Type=RS41-SGP rdzTTGOsonde
EA4EKH-12U02301112022-12-06 23:17:0140.4674-3.57891304111189Clb=5.3m/s p=886.8hPa t=7.3C h=97.5% 403.000MHz Type=RS41-SGP rdzTTGOsonde
EA4EKH-11U02301112022-12-06 23:17:0040.4674-3.5789212171172Clb=5.2m/s t=-273.0C h=-1.0% p=-1.0hPa 403.000 MHz Type=RS41 ser=U0230111 Radiosonde
EA4EKH-12U02301112022-12-06 23:16:4140.4672-3.5791420761093Clb=3.4m/s p=897.0hPa t=8.1C h=95.3% 403.000MHz Type=RS41-SGP rdzTTGOsonde
EA4EKH-12U02301112022-12-06 23:16:1940.4669-3.579369513991Clb=4.0m/s p=907.9hPa t=8.5C h=97.8% 403.000MHz Type=RS41-SGP rdzTTGOsonde